[[[{"header":{"parameterUnit":"kt","parameterCategory":2,"dx":1,"dy":1,"la1":29.587661999999998,"la2":31.0,"lo1":-88.76705300000003,"lo2":-86.6583820000003,"nx":115,"ny":88,"refTime":"2022-09-29T06:00:00:Z","depth":0,"parameterNumber":1,"parameterNumberName":"U-component_of_WINDS"},"data":[17.5014,17.1822,17.3032,17.3134,17.2834,17.5042,17.6106,17.6106,17.6106,17.6106,17.6106,17.6106,17.6106,17.6106,17.6106,17.6106,17.6106,17.6106,17.6106,17.6106,17.6106,17.6106,17.6106,17.6106,17.6106,17.6106,17.6106,17.6106,17.6106,17.6106,17.6106,17.6106,17.6106,17.6106,17.6106,17.6106,17.6106,17.6268,17.679,17.7271,17.7529,17.7984,17.8752,18.0012,18.1669,18.3048,18.4619,18.6836,18.812,18.9279,19.0435,19.1223,19.1499,19.1499,19.1499,19.1499,19.1499,19.1499,19.1499,19.1499,19.1674,19.2881,19.4568,19.5834,19.7127,19.9279,20.1082,20.242,20.3467,20.4689,20.5572,20.5165,20.4409,20.2711,20.1548,20.0617,19.9454,19.9221,19.9221,19.9221,19.9221,19.9221,19.9221,19.9221,19.9221,19.9221,19.9221,19.9221,19.9221,19.9221,19.9221,19.9221,19.9221,19.9221,19.9221,19.9221,19.9221,19.9221,19.9221,19.9221,19.9221,19.9221,19.9221,19.9221,19.9221,19.9221,19.9221,19.9221,19.9221,19.9395,20.0326,20.1257,20.2536,20.3816,20.4874,17.7167,17.4964,17.3934,17.3173,17.2834,17.5042,17.6106,17.6106,17.6106,17.6106,17.6106,17.6106,17.6106,17.6106,17.6106,17.6106,17.6106,17.6106,17.6106,17.6106,17.6106,17.6106,17.6106,17.6106,17.6106,17.6106,17.6106,17.6106,17.6106,17.6106,17.6106,17.6106,17.6106,17.6106,17.6106,17.6106,17.6106,17.6187,17.6348,17.675,17.7111,17.7529,17.7705,17.8846,18.058,18.2396,18.3608,18.534,18.7599,18.8879,19.0115,19.0932,19.1325,19.1499,19.1499,19.1499,19.1499,19.1499,19.1499,19.1499,19.1615,19.2313,19.4277,19.5556,19.6299,19.8116,20.0268,20.1606,20.2536,20.3642,20.4874,20.5165,20.434,20.3234,20.2478,20.1722,20.0384,19.9221,19.9221,19.9221,19.9221,19.9221,19.9221,19.9221,19.9221,19.9221,19.9221,19.9221,19.9221,19.9221,19.9221,19.9221,19.9221,19.9221,19.9221,19.9221,19.9221,19.9221,19.9221,19.9221,19.9221,19.9221,19.9221,19.9221,19.9221,19.9221,19.9221,19.9221,19.9221,19.9221,19.9919,20.0559,20.1955,20.3467,20.463,17.8226,17.6016,17.4038,17.3133,17.3348,17.4525,17.5507,17.6048,17.6106,17.6106,17.6106,17.6106,17.6106,17.6106,17.6106,17.6106,17.6106,17.6106,17.6106,17.6106,17.6106,17.6106,17.6106,17.6106,17.6106,17.6106,17.6106,17.6106,17.6106,17.6106,17.6106,17.6106,17.6106,17.6106,17.6106,17.6106,17.6106,17.6106,17.6106,17.6308,17.6589,17.667,17.6768,17.7118,17.8685,18.0093,18.1496,18.2934,18.5153,18.7083,18.866,18.9725,19.115,19.1441,19.1499,19.1499,19.1499,19.1499,19.1499,19.1499,19.1499,19.1964,19.336,19.48,19.5556,19.6881,19.8988,20.0384,20.1257,20.2478,20.3711,20.434,20.3642,20.2769,20.2071,20.1315,20.0152,19.9279,19.9221,19.9221,19.9221,19.9221,19.9221,19.9221,19.9221,19.9221,19.9221,19.9221,19.9221,19.9221,19.9221,19.9221,19.9221,19.9221,19.9221,19.9221,19.9221,19.9221,19.9221,19.9221,19.9221,19.9221,19.9221,19.9221,19.9221,19.9221,19.9221,19.9221,19.9221,19.9221,19.957,19.9977,20.1548,20.3118,20.4165,17.9342,17.7228,17.4595,17.3464,17.3701,17.4339,17.5224,17.6106,17.6106,17.6106,17.6106,17.6106,17.6106,17.6106,17.6106,17.6106,17.6106,17.6106,17.6106,17.6106,17.6106,17.6106,17.6106,17.6106,17.6106,17.6106,17.6106,17.6106,17.6106,17.6106,17.6106,17.6106,17.6106,17.6106,17.6106,17.6106,17.6106,17.6106,17.6106,17.6187,17.6268,17.6147,17.6164,17.6594,17.735,17.8793,17.9783,18.1156,18.3267,18.5028,18.6583,18.8518,19.0801,19.1267,19.1441,19.1499,19.1499,19.1499,19.1499,19.1499,19.1499,19.1906,19.2662,19.3811,19.4858,19.6125,19.7405,19.8756,20.0035,20.1257,20.2246,20.2653,20.2653,20.1838,20.1036,20.0268,19.9454,19.9279,19.9221,19.9221,19.9221,19.9221,19.9221,19.9221,19.9221,19.9221,19.9221,19.9221,19.9221,19.9221,19.9221,19.9221,19.9221,19.9221,19.9221,19.9221,19.9221,19.9221,19.9221,19.9221,19.9221,19.9221,19.9221,19.9221,19.9221,19.9221,19.9221,19.9221,19.9221,19.9221,19.9512,19.9977,20.1315,20.2653,20.3642,18.1189,17.9411,17.6541,17.4688,17.3857,17.4814,17.5546,17.6089,17.6106,17.6106,17.6106,17.6106,17.6106,17.6106,17.6106,17.6106,17.6106,17.6106,17.6106,17.6106,17.6106,17.6106,17.6106,17.6106,17.6106,17.6106,17.6106,17.6106,17.6106,17.6106,17.6106,17.6106,17.6106,17.6106,17.6106,17.6106,17.6106,17.6106,17.6106,17.6106,17.6106,17.6106,17.6164,17.6379,17.7135,17.8182,17.8863,18.0433,18.2569,18.3923,18.5435,18.7223,18.9158,19.0452,19.1208,19.1441,19.1499,19.1499,19.1499,19.1499,19.1499,19.1906,19.2648,19.323,19.3811,19.4787,19.6067,19.736,19.893,20.0268,20.1024,20.1489,20.1489,20.0966,20.0501,19.9977,19.9454,19.9279,19.9221,19.9221,19.9221,19.9221,19.9221,19.9221,19.9221,19.9221,19.9221,19.9221,19.9221,19.9221,19.9221,19.9221,19.9221,19.9221,19.9221,19.9221,19.9221,19.9221,19.9221,19.9221,19.9221,19.9221,19.9221,19.9221,19.9221,19.9221,19.9221,19.9221,19.9221,19.9221,19.9454,19.9977,20.0908,20.2129,20.313,18.1697,18.0376,17.7945,17.5776,17.423,17.4282,17.493,17.5721,17.5999,17.6106,17.6106,17.6106,17.6106,17.6106,17.6106,17.6106,17.6106,17.6106,17.6106,17.6106,17.6106,17.6106,17.6106,17.6106,17.6106,17.6106,17.6106,17.6106,17.6106,17.6106,17.6106,17.6106,17.6106,17.6106,17.6106,17.6106,17.6106,17.6106,17.6106,17.6106,17.6106,17.6106,17.6106,17.6223,17.6496,17.7368,17.824,17.9619,18.1306,18.2685,18.4912,18.6409,18.7122,18.9274,19.038,19.1383,19.1441,19.1499,19.1499,19.1499,19.1499,19.1615,19.1906,19.2255,19.2764,19.3579,19.4845,19.6125,19.7754,19.915,19.9803,20.0326,20.0152,20.0035,19.9919,19.9699,19.9512,19.9279,19.9221,19.9221,19.9221,19.9221,19.9221,19.9221,19.9221,19.9221,19.9221,19.9221,19.9221,19.9221,19.9221,19.9221,19.9221,19.9221,19.9221,19.9221,19.9221,19.9221,19.9221,19.9221,19.9221,19.9221,19.9221,19.9221,19.9221,19.9221,19.9221,19.9221,19.9221,19.9221,19.9395,19.9628,20.021,20.1548,20.2711,18.247,18.1596,17.9411,17.7106,17.5111,17.4431,17.4437,17.5029,17.5681,17.6017,17.6106,17.6106,17.6106,17.6106,17.6106,17.6106,17.6106,17.6106,17.6106,17.6106,17.6106,17.6106,17.6106,17.6106,17.6106,17.6106,17.6106,17.6106,17.6106,17.6106,17.6106,17.6106,17.6106,17.6106,17.6106,17.6106,17.6106,17.6106,17.6106,17.6106,17.6106,17.6106,17.6106,17.6106,17.6281,17.6571,17.7484,17.8746,18.0026,18.1405,18.3516,18.5362,18.5594,18.7456,18.9376,19.0612,19.1267,19.1441,19.1499,19.1499,19.1499,19.1499,19.1557,19.1499,19.1848,19.272,19.387,19.5136,19.659,19.7812,19.8627,19.9279,19.9628,19.9628,19.957,19.9454,19.9395,19.9221,19.9221,19.9221,19.9221,19.9221,19.9221,19.9221,19.9221,19.9221,19.9221,19.9221,19.9221,19.9221,19.9221,19.9221,19.9221,19.9221,19.9221,19.9221,19.9221,19.9221,19.9221,19.9221,19.9221,19.9221,19.9221,19.9221,19.9221,19.9221,19.9221,19.9221,19.9221,19.9221,19.9221,19.9221,19.957,20.1024,20.2246,18.3899,18.2974,18.0888,17.8681,17.6705,17.586,17.4807,17.3916,17.5087,17.5761,17.6089,17.6048,17.6106,17.6106,17.6106,17.6106,17.6106,17.6106,17.6106,17.6106,17.6106,17.6106,17.6106,17.6106,17.6106,17.6106,17.6106,17.6106,17.6106,17.6106,17.6106,17.6106,17.6106,17.6106,17.6106,17.6106,17.6106,17.6106,17.6106,17.6106,17.6106,17.6106,17.6106,17.6106,17.6106,17.6281,17.6786,17.7659,17.8921,18.0084,18.148,18.35,18.4896,18.5885,18.7514,18.91,19.0627,19.0976,19.1208,19.1441,19.1441,19.1092,19.1325,19.1499,19.179,19.2415,19.323,19.4219,19.531,19.6416,19.7521,19.8278,19.8988,19.9221,19.9221,19.9221,19.9221,19.9221,19.9221,19.9221,19.9221,19.9221,19.9221,19.9221,19.9221,19.9221,19.9221,19.9221,19.9221,19.9221,19.9221,19.9221,19.9221,19.9221,19.9221,19.9221,19.9221,19.9221,19.9221,19.9221,19.9221,19.9221,19.9221,19.9221,19.9221,19.9221,19.9221,19.9221,19.9221,19.9221,19.9221,19.9221,19.9279,20.0617,20.1897,18.419,18.4454,18.2437,18.0444,17.882,17.7557,17.6382,17.5469,17.546,17.5256,17.5202,17.5856,17.6106,17.6106,17.6106,17.6106,17.6106,17.6106,17.6106,17.6106,17.6106,17.6106,17.6106,17.6106,17.6106,17.6106,17.6106,17.6106,17.6106,17.6106,17.6106,17.6106,17.6106,17.6106,17.6106,17.6106,17.6106,17.6106,17.6106,17.6106,17.6106,17.6106,17.6106,17.6106,17.6106,17.6106,17.6455,17.7252,17.8298,17.9171,18.0608,18.2453,18.35,18.4621,18.625,18.7107,18.8344,18.9391,19.0263,19.0685,19.0787,19.0496,19.1092,19.1383,19.1674,19.1964,19.2546,19.3288,19.4102,19.5485,19.6881,19.745,19.8278,19.9221,19.9221,19.9221,19.9221,19.9221,19.9221,19.9221,19.9221,19.9221,19.9221,19.9221,19.9221,19.9221,19.9221,19.9221,19.9221,19.9221,19.9221,19.9221,19.9221,19.9221,19.9221,19.9221,19.9221,19.9221,19.9221,19.9221,19.9221,19.9221,19.9221,19.9221,19.9221,19.9221,19.9221,19.9221,19.9221,19.9221,19.9221,19.9221,19.9221,20.0268,20.1606,18.4321,18.4942,18.3336,18.2101,18.0956,17.9307,17.7728,17.6463,17.5675,17.5148,17.4923,17.5162,17.5623,17.6048,17.6106,17.6106,17.6106,17.6106,17.6106,17.6106,17.6106,17.6106,17.6106,17.6106,17.6106,17.6106,17.6106,17.6106,17.6106,17.6106,17.6106,17.6106,17.6106,17.6106,17.6106,17.6106,17.6106,17.6106,17.6106,17.6106,17.6106,17.6106,17.6106,17.6106,17.6106,17.6106,17.6223,17.6688,17.76,17.8415,17.9212,18.0666,18.1655,18.3093,18.4563,18.5377,18.6467,18.7631,18.8809,18.9449,18.9856,19.0031,19.0321,19.0859,19.1441,19.1499,19.1906,19.2648,19.3346,19.4277,19.595,19.6532,19.7405,19.8349,19.9105,19.9105,19.9163,19.9163,19.9221,19.9221,19.9221,19.9221,19.9221,19.9221,19.9221,19.9221,19.9221,19.9221,19.9221,19.9221,19.9221,19.9221,19.9221,19.9221,19.9221,19.9221,19.9221,19.9221,19.9221,19.9221,19.9221,19.9221,19.9221,19.9221,19.9221,19.9221,19.9221,19.9221,19.9221,19.9221,19.9221,19.9221,19.9221,19.9977,20.114,18.4454,18.4388,18.3702,18.3372,18.304,18.099,17.882,17.7096,17.5764,17.5116,17.4833,17.4862,17.5184,17.5798,17.6048,17.6106,17.6106,17.6106,17.6106,17.6106,17.6106,17.6106,17.6106,17.6106,17.6106,17.6106,17.6106,17.6106,17.6106,17.6106,17.6106,17.6106,17.6106,17.6106,17.6106,17.6106,17.6106,17.6106,17.6106,17.6106,17.6106,17.6106,17.6106,17.6106,17.6106,17.6106,17.6106,17.6455,17.6903,17.76,17.8356,17.9112,18.0026,18.1364,18.2527,18.3574,18.4854,18.6176,18.7398,18.7514,18.8096,18.8751,18.9507,19.0147,19.1034,19.1499,19.1674,19.1906,19.2488,19.323,19.4277,19.5485,19.6474,19.7463,19.8452,19.8859,19.8976,19.893,19.9163,19.9221,19.9221,19.9221,19.9221,19.9221,19.9221,19.9221,19.9221,19.9221,19.9221,19.9221,19.9221,19.9221,19.9221,19.9221,19.9221,19.9221,19.9221,19.9221,19.9221,19.9221,19.9221,19.9221,19.9221,19.9221,19.9221,19.9221,19.9221,19.9221,19.9221,19.9221,19.9221,19.9221,19.9221,19.957,20.0326,18.4714,18.5104,18.4909,18.4844,18.4552,18.2537,18.0581,17.8777,17.6547,17.4538,17.29,17.4558,17.5156,17.5144,17.5623,17.6048,17.6106,17.6106,17.6106,17.6106,17.6106,17.6106,17.6106,17.6106,17.6106,17.6106,17.6106,17.6106,17.6106,17.6106,17.6106,17.6106,17.6106,17.6106,17.6106,17.6106,17.6106,17.6106,17.6106,17.6106,17.6106,17.6106,17.6106,17.6106,17.6106,17.6106,17.6106,17.6164,17.6496,17.6903,17.7542,17.8182,17.888,17.9735,18.0666,18.1422,18.2353,18.3632,18.433,18.4605,18.4722,18.6831,18.8111,18.9507,19.0263,19.0918,19.1441,19.1557,19.179,19.2474,19.3579,19.416,19.5019,19.6125,19.7172,19.8103,19.8219,19.8627,19.8859,19.9221,19.9221,19.9221,19.9221,19.9221,19.9221,19.9221,19.9221,19.9221,19.9221,19.9221,19.9221,19.9221,19.9221,19.9221,19.9221,19.9221,19.9221,19.9221,19.9221,19.9221,19.9221,19.9221,19.9221,19.9221,19.9221,19.9221,19.9221,19.9221,19.9221,19.9221,19.9221,19.9221,19.9221,19.9337,19.9919,18.4682,18.5104,18.5716,18.5684,18.5298,18.3765,18.2135,18.0204,17.7909,17.534,17.2835,17.3581,17.4128,17.4506,17.5198,17.5623,17.6106,17.6106,17.6106,17.6106,17.6106,17.6106,17.6106,17.6106,17.6106,17.6106,17.6106,17.6106,17.6106,17.6106,17.6106,17.6106,17.6106,17.6106,17.6106,17.6106,17.6106,17.6106,17.6106,17.6106,17.6106,17.6106,17.6106,17.6106,17.6106,17.6106,17.6106,17.6106,17.6106,17.6339,17.6903,17.7135,17.7484,17.8589,17.9212,17.9461,18.0608,18.1887,18.2802,18.2743,18.2627,18.4737,18.7006,18.9042,18.9682,19.0743,19.1325,19.1499,19.1557,19.179,19.272,19.3172,19.3579,19.4612,19.5659,19.6648,19.7288,19.787,19.8278,19.9092,19.9221,19.9221,19.9221,19.9221,19.9221,19.9221,19.9221,19.9221,19.9221,19.9221,19.9221,19.9221,19.9221,19.9221,19.9221,19.9221,19.9221,19.9221,19.9221,19.9221,19.9221,19.9221,19.9221,19.9221,19.9221,19.9221,19.9221,19.9221,19.9221,19.9221,19.9221,19.9221,19.9221,19.9221,19.957,18.4519,18.4746,18.6133,18.6293,18.5684,18.4973,18.3402,18.1431,17.9784,17.7203,17.4404,17.2932,17.3056,17.3868,17.431,17.5024,17.5972,17.6048,17.6106,17.6106,17.6106,17.6106,17.6106,17.6106,17.6106,17.6106,17.6106,17.6106,17.6106,17.6106,17.6106,17.6106,17.6106,17.6106,17.6106,17.6106,17.6106,17.6106,17.6106,17.6106,17.6106,17.6106,17.6106,17.6106,17.6106,17.6106,17.6106,17.6106,17.6106,17.6164,17.6339,17.6397,17.6571,17.7426,17.7833,17.8182,17.9153,18.0259,18.1056,18.1189,18.1638,18.2918,18.4954,18.7398,18.8867,19.0496,19.1325,19.1441,19.1499,19.1615,19.1906,19.2415,19.2881,19.3637,19.4393,19.531,19.595,19.6707,19.787,19.8801,19.9163,19.9221,19.9221,19.9221,19.9221,19.9221,19.9221,19.9221,19.9221,19.9221,19.9221,19.9221,19.9221,19.9221,19.9221,19.9221,19.9221,19.9221,19.9221,19.9221,19.9221,19.9221,19.9221,19.9221,19.9221,19.9221,19.9221,19.9221,19.9221,19.9221,19.9221,19.9221,19.9221,19.9221,19.9395,18.5103,18.6165,18.6991,18.7526,18.7683,18.6548,18.5072,18.3209,18.0922,17.8436,17.6038,17.3959,17.2612,17.2666,17.3714,17.4405,17.4889,17.574,17.6048,17.6106,17.6106,17.6106,17.6106,17.6106,17.6106,17.6106,17.6106,17.6106,17.6106,17.6106,17.6106,17.6106,17.6106,17.6106,17.6106,17.6106,17.6106,17.6106,17.6106,17.6106,17.6106,17.6106,17.6106,17.6106,17.6106,17.6106,17.6106,17.6106,17.6106,17.6106,17.6106,17.6106,17.6164,17.6513,17.6746,17.7077,17.7833,17.8764,17.9037,17.9502,18.02,18.148,18.3383,18.5129,18.7529,18.9274,19.0205,19.1267,19.1383,19.1499,19.1557,19.1732,19.2139,19.2546,19.3172,19.3753,19.4509,19.595,19.7172,19.7928,19.8394,19.8697,19.8697,19.893,19.9163,19.9163,19.9221,19.9221,19.9221,19.9221,19.9221,19.9221,19.9221,19.9221,19.9221,19.9221,19.9221,19.9221,19.9221,19.9221,19.9221,19.9221,19.9221,19.9221,19.9221,19.9221,19.9221,19.9221,19.9221,19.9221,19.9221,19.9221,19.9221,19.9221,19.9279,18.6037,18.7054,18.7745,18.8213,18.8399,18.7432,18.6357,18.4878,18.2574,18.0204,17.7945,17.5473,17.3589,17.2688,17.2784,17.3597,17.4405,17.5024,17.5565,17.599,17.6106,17.6106,17.6106,17.6106,17.6106,17.6106,17.6106,17.6106,17.6106,17.6106,17.6106,17.6106,17.6106,17.6106,17.6106,17.6106,17.6106,17.6106,17.6106,17.6106,17.6106,17.6106,17.6106,17.6106,17.6106,17.6106,17.6106,17.6106,17.6106,17.6106,17.6106,17.6106,17.6106,17.6106,17.6106,17.6164,17.6903,17.7252,17.731,17.7833,17.8764,18.0084,18.1522,18.3051,18.5711,18.8053,18.9972,19.0612,19.1092,19.1441,19.1499,19.1499,19.1499,19.1615,19.2197,19.2881,19.3811,19.5207,19.6183,19.6823,19.7405,19.723,19.7127,19.7638,19.8161,19.8336,19.8568,19.8859,19.9046,19.9163,19.9221,19.9221,19.9221,19.9221,19.9221,19.9221,19.9221,19.9221,19.9221,19.9221,19.9221,19.9221,19.9221,19.9221,19.9221,19.9221,19.9221,19.9221,19.9221,19.9221,19.9221,19.9221,19.9221,19.9221,19.9221,18.7151,18.7745,18.8399,18.8708,18.8708,18.8151,18.7401,18.642,18.439,18.2307,17.9791,17.7238,17.5038,17.3552,17.2519,17.2803,17.3714,17.4369,17.4965,17.5681,17.599,17.6106,17.6106,17.6106,17.6106,17.6106,17.6106,17.6106,17.6106,17.6106,17.6106,17.6106,17.6106,17.6106,17.6106,17.6106,17.6106,17.6106,17.6106,17.6106,17.6106,17.6106,17.6106,17.6106,17.6106,17.6106,17.6106,17.6106,17.6106,17.6106,17.6106,17.6106,17.6106,17.6106,17.6106,17.6106,17.6106,17.6164,17.6397,17.7077,17.7949,17.8804,18.0317,18.212,18.4214,18.6657,18.8925,18.9333,19.0729,19.1441,19.1499,19.1499,19.1499,19.1557,19.1674,19.2197,19.2837,19.3986,19.4568,19.5207,19.5673,19.5615,19.5659,19.6416,19.7114,19.7579,19.7987,19.851,19.8872,19.9105,19.9221,19.9221,19.9221,19.9221,19.9221,19.9221,19.9221,19.9221,19.9221,19.9221,19.9221,19.9221,19.9221,19.9221,19.9221,19.9221,19.9221,19.9221,19.9221,19.9221,19.9221,19.9221,19.9221,19.9221,19.9221,18.7745,18.8399,18.9077,18.9657,18.996,18.9348,18.8492,18.7244,18.5684,18.3534,18.0951,17.9056,17.674,17.4589,17.3426,17.2646,17.2218,17.3789,17.4347,17.4907,17.5565,17.6106,17.6106,17.6106,17.6106,17.6106,17.6106,17.6106,17.6106,17.6106,17.6106,17.6106,17.6106,17.6106,17.6106,17.6106,17.6106,17.6106,17.6106,17.6106,17.6106,17.6106,17.6106,17.6106,17.6106,17.599,17.5816,17.5757,17.5816,17.5932,17.6048,17.6106,17.6106,17.6106,17.6106,17.6106,17.6106,17.6106,17.6164,17.6571,17.7077,17.7833,17.9502,18.0898,18.2643,18.4796,18.7355,18.9274,19.0612,19.1325,19.1441,19.1499,19.1499,19.1499,19.1499,19.1615,19.2183,19.2706,19.3346,19.3579,19.387,19.4044,19.416,19.4787,19.5659,19.6125,19.6881,19.7463,19.8219,19.8627,19.893,19.9046,19.9221,19.9221,19.9221,19.9221,19.9221,19.9221,19.9221,19.9221,19.9221,19.9221,19.9221,19.9221,19.9221,19.9221,19.9221,19.9221,19.9221,19.9221,19.9221,19.9221,19.9221,19.9221,19.9221,18.8244,18.8615,18.9596,19.0201,19.0352,18.9773,18.9138,18.8337,18.6738,18.4909,18.3007,18.0922,17.8716,17.6633,17.4857,17.2993,17.1996,17.2392,17.3183,17.4405,17.4965,17.5449,17.6106,17.6106,17.6106,17.6106,17.6106,17.6106,17.6106,17.6106,17.6106,17.6106,17.6106,17.6106,17.6106,17.6106,17.6106,17.6106,17.6106,17.6106,17.6106,17.6106,17.5681,17.5216,17.4733,17.4344,17.4286,17.4344,17.4635,17.514,17.5256,17.5565,17.574,17.5681,17.5256,17.5373,17.5798,17.6106,17.6106,17.6164,17.6339,17.7193,17.8298,17.9619,18.1131,18.2876,18.497,18.7297,18.9158,19.0743,19.1383,19.1499,19.1499,19.1499,19.1499,19.1499,19.1674,19.2081,19.2255,19.243,19.2706,19.2823,19.2823,19.3404,19.416,19.4961,19.5659,19.6474,19.7392,19.787,19.8349,19.8697,19.9221,19.9221,19.9221,19.9221,19.9221,19.9221,19.9221,19.9221,19.9221,19.9221,19.9221,19.9221,19.9221,19.9221,19.9221,19.9221,19.9221,19.9221,19.9221,19.9221,19.9221,19.9221,19.9221,18.8461,18.8646,18.993,19.0472,19.0412,18.996,18.9591,18.9291,18.7808,18.6548,18.5298,18.2904,18.0786,17.8716,17.6107,17.3834,17.2211,17.1459,17.1944,17.3144,17.39,17.4656,17.5391,17.5565,17.5681,17.5798,17.574,17.5856,17.599,17.6106,17.6106,17.6106,17.6106,17.6106,17.6106,17.6106,17.6106,17.6106,17.6106,17.5914,17.574,17.5565,17.5158,17.4075,17.3318,17.2813,17.2639,17.2581,17.2911,17.39,17.4016,17.4558,17.4907,17.4482,17.4075,17.4191,17.4733,17.5274,17.5565,17.574,17.5856,17.6339,17.7385,17.8705,17.9735,18.1189,18.3383,18.5494,18.7529,18.9507,19.0918,19.0961,19.115,19.1499,19.1499,19.1499,19.1499,19.1615,19.1674,19.1732,19.1674,19.1674,19.2023,19.2488,19.2997,19.3404,19.4321,19.5252,19.5892,19.6474,19.7185,19.7999,19.8814,19.893,19.893,19.8872,19.9163,19.9163,19.9221,19.9221,19.9221,19.9221,19.9221,19.9221,19.9221,19.9221,19.9221,19.9221,19.9221,19.9221,19.9221,19.9221,19.9221,19.9221,19.9221,18.8057,18.8646,18.996,19.0472,19.0472,19.0352,19.0051,18.9561,18.9165,18.7964,18.6293,18.4618,18.2311,17.9998,17.8015,17.5714,17.3531,17.2173,17.1245,17.1808,17.2487,17.3514,17.4347,17.4522,17.4562,17.4656,17.4773,17.5256,17.5798,17.6106,17.6106,17.6106,17.6106,17.6106,17.6106,17.6106,17.599,17.5874,17.5757,17.5449,17.4733,17.4598,17.3918,17.2911,17.2213,17.1999,17.198,17.2057,17.2387,17.2639,17.2736,17.2795,17.2911,17.2736,17.2697,17.2736,17.3086,17.3744,17.4442,17.4773,17.518,17.6147,17.7252,17.8066,17.8764,18.0375,18.2236,18.3981,18.561,18.7471,18.9449,18.9972,19.0496,19.1092,19.1441,19.1499,19.1499,19.1499,19.1499,19.1499,19.1499,19.1499,19.1674,19.179,19.1732,19.1964,19.2997,19.387,19.4219,19.4742,19.5556,19.6371,19.723,19.7579,19.7709,19.787,19.8872,19.9046,19.9221,19.9221,19.9221,19.9221,19.9221,19.9221,19.9221,19.9221,19.9221,19.9221,19.9221,19.9221,19.9221,19.9221,19.9221,19.9221,19.9221,18.8275,18.8677,18.996,19.0472,19.0472,19.0472,19.0322,19.0051,18.9717,18.88,18.7495,18.6165,18.4096,18.1673,17.9791,17.7627,17.5256,17.3404,17.2097,17.1458,17.1674,17.2489,17.3225,17.3092,17.3092,17.3435,17.39,17.454,17.5256,17.574,17.599,17.6106,17.6106,17.599,17.6106,17.5489,17.5256,17.514,17.4558,17.3918,17.3435,17.3318,17.2736,17.1592,17.0719,17.0351,17.0409,17.0409,17.0719,17.101,17.0719,17.0351,17.0409,17.0952,17.1301,17.1534,17.198,17.2795,17.3376,17.3958,17.454,17.514,17.6321,17.7193,17.8298,17.8996,18.0724,18.2527,18.4098,18.5843,18.8212,18.9027,18.9682,19.0438,19.0976,19.1441,19.1499,19.1499,19.1499,19.1499,19.1499,19.1499,19.1499,19.1557,19.1557,19.1615,19.259,19.2837,19.3127,19.3637,19.4335,19.4917,19.5718,19.6299,19.6532,19.7185,19.8174,19.8523,19.8697,19.8976,19.9034,19.915,19.9221,19.9221,19.9221,19.9221,19.9221,19.9221,19.9221,19.9221,19.9221,19.9221,19.9221,19.9221,19.9221,18.8399,18.8646,18.996,19.0472,19.0472,19.0472,19.0472,19.0412,18.996,18.9413,18.8554,18.7338,18.5588,18.3636,18.1431,17.9376,17.7335,17.5196,17.3411,17.2291,17.1854,17.1768,17.214,17.1575,17.1634,17.2315,17.3146,17.3609,17.4016,17.4675,17.5391,17.5507,17.5274,17.5449,17.5449,17.454,17.3958,17.3784,17.3027,17.2446,17.2155,17.198,17.1359,17.0138,16.9188,16.8606,16.8548,16.8548,16.9013,16.9537,16.9246,16.8954,16.9225,16.9866,17.0487,17.0779,17.1459,17.1906,17.2293,17.3011,17.3707,17.4307,17.5373,17.6263,17.7426,17.7949,17.9112,18.0724,18.2585,18.4214,18.606,18.7704,18.8809,18.9623,19.0394,19.0918,19.1034,19.0976,19.115,19.1383,19.1499,19.1499,19.1499,19.1499,19.1499,19.1499,19.1732,19.2023,19.2371,19.2779,19.3288,19.3637,19.4335,19.4961,19.531,19.5905,19.6778,19.7347,19.7987,19.8452,19.8627,19.8743,19.9105,19.9221,19.9221,19.9221,19.9221,19.9221,19.9221,19.9221,19.9221,19.9221,19.9221,19.9221,19.9221,18.8026,18.8646,18.993,19.0472,19.0472,19.0472,19.0472,19.0472,19.0382,18.999,18.923,18.8057,18.661,18.5104,18.307,18.1257,17.955,17.7344,17.5667,17.405,17.245,17.1704,17.2248,17.1217,17.1042,17.1419,17.109,17.171,17.2504,17.2813,17.3453,17.4093,17.3453,17.3511,17.4133,17.322,17.2678,17.2562,17.2155,17.1515,17.0875,17.0642,17.0138,16.9129,16.8606,16.8548,16.8548,16.8548,16.8431,16.8722,16.8606,16.8641,16.9294,16.9525,16.9968,17.0446,17.0279,17.0579,17.138,17.1362,17.1961,17.3747,17.4387,17.5024,17.6205,17.731,17.8124,17.8921,18.0823,18.2162,18.3267,18.4896,18.6831,18.8693,18.9333,18.9682,18.974,18.974,19.0205,19.1267,19.1441,19.1499,19.1499,19.1499,19.1499,19.1499,19.1557,19.1732,19.1906,19.2197,19.2371,19.2648,19.3055,19.3637,19.4102,19.4684,19.544,19.6125,19.6823,19.7347,19.7521,19.8045,19.8685,19.9221,19.9221,19.9221,19.9221,19.9221,19.9221,19.9221,19.9221,19.9221,19.9221,19.9221,19.9221,18.8523,18.9199,19.0111,19.0472,19.0472,19.0472,19.0472,19.0472,19.0472,19.0141,18.95,18.8858,18.7712,18.6069,18.4714,18.3336,18.1769,17.9653,17.8085,17.6776,17.4639,17.3603,17.3147,17.2414,17.1359,17.071,17.0933,17.1187,17.136,17.2057,17.2678,17.3027,17.2678,17.2639,17.3144,17.1941,17.1301,17.1185,17.0526,17.0002,16.942,16.9362,16.8955,16.8722,16.8548,16.8548,16.8489,16.8489,16.7733,16.6704,16.6754,16.7095,16.7435,16.7886,16.8277,16.8597,16.908,16.948,17.0034,17.0831,17.1635,17.2608,17.3905,17.4562,17.5198,17.6205,17.7385,17.7891,17.8938,18.0375,18.1655,18.286,18.4722,18.689,18.7355,18.7747,18.8503,18.8503,18.8751,18.9274,18.9856,19.0321,19.0336,19.1034,19.1325,19.1441,19.1208,19.1267,19.1267,19.1499,19.1674,19.1848,19.2139,19.2415,19.2764,19.3521,19.4335,19.4568,19.5149,19.5615,19.6008,19.659,19.7347,19.8161,19.8859,19.9221,19.9221,19.9221,19.9221,19.9221,19.9221,19.9221,19.9221,19.9221,19.9221,18.7998,18.8448,18.9115,18.9354,18.9384,18.9384,18.9354,18.9384,18.9318,18.9145,18.9214,18.9037,18.8221,18.7338,18.642,18.5362,18.3932,18.2106,18.0684,17.9418,17.7479,17.6294,17.5309,17.4179,17.26,17.1052,17.0922,17.0796,17.0371,17.0836,17.1457,17.1864,17.1515,17.1457,17.1689,17.0603,17.0021,16.9827,16.8955,16.8606,16.8606,16.8606,16.8548,16.8489,16.814,16.7966,16.8024,16.7733,16.6511,16.5088,16.5869,16.6465,16.7086,16.7727,16.8409,16.8674,16.9145,16.9444,16.9762,17.0564,17.1271,17.1709,17.2822,17.3847,17.4329,17.5198,17.6147,17.7269,17.7949,17.8996,18.0898,18.1813,18.2992,18.4796,18.5071,18.542,18.6816,18.7281,18.7456,18.7747,18.862,18.8969,18.9216,18.974,19.0263,19.0263,19.0263,19.0263,19.0031,19.0089,19.0205,19.0554,19.0976,19.1092,19.1557,19.2415,19.2939,19.3172,19.3462,19.3986,19.4509,19.5019,19.5834,19.6881,19.7638,19.8278,19.8568,19.8976,19.9221,19.9221,19.9221,19.9221,19.9221,19.9221,19.9221,18.5479,18.5598,18.616,18.6717,18.6688,18.6688,18.682,18.6622,18.6622,18.7382,18.8154,18.7968,18.8201,18.8816,18.7899,18.6894,18.6197,18.4394,18.2757,18.1133,17.998,17.8822,17.7359,17.5383,17.3865,17.257,17.0956,17.0009,16.982,16.938,16.9362,17.037,16.9653,16.942,17.0138,16.9304,16.878,16.8838,16.8664,16.8548,16.8548,16.8528,16.8431,16.8373,16.7326,16.6706,16.6511,16.5656,16.5163,16.5795,16.6702,16.7742,16.8887,16.986,17.0275,17.0712,17.0612,17.0664,17.0802,17.0784,17.0849,17.1562,17.1962,17.2453,17.3945,17.4525,17.53,17.6147,17.7252,17.8572,17.991,18.0898,18.2278,18.3516,18.3076,18.35,18.5478,18.5901,18.6292,18.7223,18.7747,18.7863,18.7921,18.8038,18.8271,18.8271,18.8387,18.8445,18.8445,18.8736,18.8736,18.9042,18.9565,19.0031,19.0845,19.1601,19.1776,19.195,19.2008,19.2474,19.2881,19.3404,19.4044,19.5369,19.6358,19.6998,19.7521,19.8103,19.851,19.8639,19.8872,19.9163,19.9221,19.9221,19.9221,18.5484,18.5839,18.614,18.6228,18.6228,18.6228,18.6228,18.6228,18.6228,18.6491,18.7083,18.7635,18.8094,18.8262,18.8685,18.794,18.6449,18.5414,18.3951,18.2482,18.1709,18.0569,17.9007,17.6968,17.4964,17.2877,17.1677,17.0665,16.9736,16.8971,16.878,16.9129,16.878,16.8838,16.9129,16.878,16.8548,16.8548,16.8548,16.8548,16.8373,16.7733,16.7287,16.7151,16.6066,16.5484,16.5289,16.3913,16.3173,16.3651,16.4868,16.6523,16.8126,16.9372,17.007,17.0521,17.0924,17.1239,17.0919,17.1264,17.1588,17.1469,17.203,17.2564,17.2803,17.442,17.4901,17.5202,17.6169,17.7368,17.8572,17.9328,18.0372,18.2009,18.1387,18.1638,18.2992,18.4098,18.4854,18.5319,18.6017,18.6467,18.6816,18.7107,18.7747,18.7747,18.7747,18.7747,18.7747,18.7689,18.7921,18.8212,18.8445,18.8984,18.9972,19.038,19.0612,19.0612,19.0612,19.0903,19.1136,19.1601,19.2313,19.3623,19.4612,19.5194,19.6183,19.6881,19.7521,19.7754,19.7928,19.8452,19.9034,19.9092,19.9105,18.4467,18.4847,18.4847,18.4876,18.4876,18.4847,18.4847,18.4876,18.4847,18.511,18.5767,18.7046,18.773,18.8028,18.9118,18.8689,18.6741,18.5881,18.4666,18.3158,18.2146,18.1105,17.9834,17.8073,17.5957,17.3728,17.2404,17.1229,17.0114,16.9316,16.8779,16.8586,16.8548,16.8548,16.8606,16.8548,16.8548,16.8548,16.8548,16.8257,16.7849,16.6997,16.6415,16.5891,16.4728,16.3968,16.3822,16.2962,16.2642,16.328,16.4285,16.6165,16.8606,17.0032,17.0828,17.109,17.1989,17.2177,17.1778,17.2197,17.2337,17.2178,17.2146,17.2253,17.2575,17.3816,17.4659,17.5338,17.5782,17.7086,17.833,17.8676,17.9224,18.0594,18.0222,18.0338,18.133,18.212,18.276,18.3283,18.4039,18.4737,18.5261,18.5784,18.6351,18.6351,18.6409,18.6366,18.6467,18.6292,18.6642,18.7107,18.7281,18.7572,18.8503,18.91,18.926,18.926,18.9158,18.9376,18.9391,18.974,19.067,19.1703,19.2532,19.3404,19.4451,19.5266,19.6022,19.6474,19.6707,19.7405,19.8336,19.8743,19.8814,18.2048,18.2179,18.1982,18.2245,18.2377,18.2377,18.2142,18.234,18.2245,18.3006,18.4255,18.5702,18.7083,18.8302,18.9659,18.9323,18.7526,18.6711,18.5245,18.3231,18.1835,18.0931,18.008,17.8621,17.7055,17.5591,17.2818,17.1303,17.0908,17.0021,16.9278,16.8702,16.8625,16.8548,16.8548,16.8548,16.8548,16.8548,16.8548,16.7908,16.6764,16.6531,16.5833,16.4632,16.3486,16.273,16.2368,16.2919,16.388,16.5171,16.6095,16.8109,17.1131,17.254,17.3349,17.3833,17.396,17.3911,17.376,17.3199,17.3217,17.3314,17.2275,17.2388,17.3513,17.3626,17.4194,17.581,17.6558,17.758,17.9524,17.9558,17.9297,17.9444,17.9188,17.9328,17.9906,18.0067,18.0491,18.1696,18.2045,18.2527,18.3458,18.3823,18.4039,18.4098,18.4156,18.4214,18.4505,18.4563,18.4679,18.5435,18.5843,18.6351,18.7107,18.7747,18.7689,18.7747,18.7572,18.7747,18.7863,18.8445,18.9434,18.9841,19.0714,19.131,19.2299,19.3637,19.4393,19.5207,19.5427,19.5834,19.6707,19.7405,19.7812,18.1945,18.1945,18.1945,18.1945,18.1945,18.1945,18.1945,18.1945,18.1916,18.2179,18.3034,18.5176,18.6425,18.7214,18.945,18.9563,18.8094,18.7783,18.6271,18.384,18.287,18.1613,18.0093,17.8661,17.7542,17.6535,17.5084,17.3755,17.2547,17.0649,16.9622,16.9316,16.8779,16.8548,16.8548,16.8548,16.8548,16.8548,16.8548,16.7908,16.6686,16.5717,16.4632,16.3428,16.2687,16.2631,16.3557,16.4309,16.5348,16.6852,16.8511,17.04,17.2543,17.4599,17.6015,17.6574,17.6326,17.5831,17.5295,17.4628,17.4551,17.5067,17.4237,17.3985,17.4854,17.5126,17.5233,17.5638,17.632,17.7301,17.8436,17.8722,17.8813,17.9087,17.7776,17.7545,17.9292,17.9015,17.9352,18.0242,18.0549,18.0782,18.1131,18.1247,18.1713,18.2469,18.2527,18.2992,18.369,18.3881,18.4156,18.4388,18.4447,18.497,18.5711,18.4896,18.4314,18.5129,18.5261,18.6118,18.6642,18.7456,18.8096,18.8271,18.8736,18.9318,19.0321,19.1732,19.2881,19.3811,19.4102,19.4496,19.5369,19.595,19.6648,18.1945,18.1945,18.1945,18.1945,18.1945,18.1945,18.1945,18.1945,18.1945,18.1945,18.2377,18.4387,18.5702,18.6359,18.8661,18.9217,18.8427,18.8362,18.7112,18.4986,18.3884,18.2338,18.0387,17.9012,17.7982,17.7039,17.6546,17.5405,17.3667,17.1569,17.0249,16.9736,16.8932,16.8548,16.8548,16.8548,16.8548,16.8548,16.8548,16.7675,16.595,16.5077,16.4209,16.3328,16.3249,16.3987,16.5418,16.5674,16.6645,16.8253,16.9398,17.0786,17.2514,17.4705,17.6261,17.7041,17.6832,17.6363,17.59,17.5295,17.5186,17.5827,17.5003,17.4727,17.5738,17.605,17.637,17.6912,17.7695,17.8484,17.9074,17.9008,17.8823,17.8702,17.7305,17.6657,17.7102,17.7283,17.7325,17.7955,17.8863,17.9502,17.9968,18.0026,18.0317,18.1056,18.1231,18.158,18.2294,18.2427,18.2311,18.2469,18.2527,18.2818,18.369,18.212,18.148,18.2527,18.3109,18.3632,18.3865,18.4489,18.5652,18.5827,18.6816,18.7572,18.8678,18.9972,19.0496,19.1485,19.2648,19.3172,19.4393,19.4568,19.531,18.1945,18.1945,18.1945,18.1945,18.1945,18.1945,18.1945,18.1945,18.1945,18.1945,18.2114,18.3532,18.4781,18.5994,18.7309,18.8164,18.823,18.8164,18.7309,18.5833,18.4591,18.2921,18.0935,17.9726,17.8346,17.7141,17.7217,17.6362,17.4542,17.2857,17.1382,16.9889,16.9028,16.8566,16.8548,16.8548,16.8548,16.8548,16.8548,16.7326,16.5153,16.4821,16.4824,16.4522,16.5125,16.613,16.7378,16.7095,16.767,16.9647,16.9393,16.9902,17.1693,17.3237,17.4699,17.5718,17.5797,17.5831,17.5904,17.5226,17.5184,17.586,17.4932,17.4766,17.6823,17.6683,17.7339,17.9481,17.9562,18.0127,18.1154,18.0118,17.9226,17.846,17.7653,17.6227,17.4325,17.5265,17.5025,17.5034,17.6326,17.7757,17.927,17.9793,17.9677,17.9851,17.991,18.0084,18.0317,18.0259,18.0317,18.0317,18.0317,18.0026,17.9968,17.991,17.9968,18.0608,18.1015,18.0491,18.0549,18.0957,18.2294,18.3458,18.4563,18.5769,18.7049,18.7921,18.8445,18.9391,19.0496,19.1485,19.2474,19.3055,19.3811,18.1945,18.1945,18.1945,18.1945,18.1945,18.1945,18.1945,18.1945,18.1945,18.1945,18.2114,18.3466,18.3729,18.3429,18.4584,18.5833,18.6754,18.682,18.603,18.4686,18.4226,18.295,18.1088,18.0549,17.9518,17.8221,17.9228,17.8629,17.6232,17.4512,17.2903,17.1397,17.0021,16.9124,16.8625,16.8548,16.8548,16.8548,16.8548,16.7535,16.5922,16.6591,16.6755,16.601,16.6548,16.7676,16.9019,16.8978,16.9433,17.05,17.1238,17.2052,17.3139,17.482,17.5889,17.6297,17.626,17.6285,17.6331,17.5286,17.5446,17.7011,17.6086,17.6304,17.808,17.8829,17.9302,18.0058,18.0082,17.9944,18.0103,17.9524,17.9074,17.868,17.7363,17.6648,17.6104,17.4772,17.4092,17.3817,17.4141,17.4482,17.5704,17.671,17.7542,17.824,17.8531,17.8863,17.9735,17.9851,17.991,17.9968,17.991,17.9561,17.8764,17.8397,17.9153,17.9561,17.9735,17.9619,18.0084,18.02,18.0898,18.1306,18.2236,18.3383,18.4563,18.5885,18.67,18.7805,18.8503,18.9085,19.0496,19.0612,19.1601,18.0075,18.0075,18.0141,18.0075,18.0141,18.0141,18.0141,18.0141,18.0141,18.0141,18.0244,18.0967,18.0967,18.0272,18.2311,18.3692,18.4547,18.5731,18.5439,18.416,18.4058,18.3066,18.1501,18.1139,18.0403,17.9445,18.024,17.9867,17.8173,17.654,17.4723,17.2592,17.0649,16.9469,16.9048,16.8702,16.8548,16.8548,16.8855,16.8447,16.7499,16.8426,16.8658,16.7959,16.82,16.9072,17.0321,17.0026,17.015,17.1109,17.1549,17.217,17.3106,17.4128,17.4833,17.5178,17.5178,17.5263,17.5571,17.4955,17.5095,17.641,17.5611,17.594,17.8023,17.8432,17.9004,17.99,18.0308,18.0531,18.0441,17.9789,17.8999,17.8114,17.7198,17.6151,17.5505,17.4605,17.3789,17.2919,17.2823,17.3229,17.3612,17.4151,17.4867,17.5507,17.6303,17.6652,17.7507,17.8106,17.8356,17.8298,17.7467,17.6652,17.5896,17.578,17.6012,17.671,17.7333,17.7641,17.7699,17.8281,17.9212,17.9171,18.0433,18.1538,18.2294,18.3109,18.4098,18.561,18.6292,18.6758,18.8503,18.9201,18.9682,17.7548,17.7482,17.7613,17.7482,17.7613,17.7576,17.7613,17.7641,17.7482,17.735,17.7153,17.7247,17.7378,17.7679,18.0206,18.1588,18.1982,18.4387,18.4913,18.386,18.3926,18.3203,18.1896,18.137,18.0986,18.0833,18.0626,18.0324,17.9804,17.8711,17.6705,17.385,17.1269,17.0041,16.9736,16.9066,16.8759,16.872,16.964,16.9915,16.9584,17.0324,17.0535,17.006,17.0031,17.0646,17.1601,17.0623,17.0454,17.1474,17.1006,17.1146,17.2134,17.2318,17.2594,17.318,17.3235,17.3449,17.4141,17.4282,17.4335,17.4453,17.4164,17.4798,17.6577,17.6283,17.6925,17.8912,18.0063,18.0427,18.1326,18.0179,17.8719,17.7216,17.6731,17.5705,17.3655,17.3967,17.4074,17.1856,17.2352,17.3037,17.2469,17.2369,17.2446,17.2988,17.3842,17.4482,17.4656,17.5314,17.5798,17.5449,17.4093,17.2813,17.2755,17.2504,17.2988,17.2911,17.3551,17.4307,17.4889,17.6071,17.7641,17.735,17.863,17.9502,17.9851,18.0084,18.1073,18.3051,18.369,18.4214,18.6583,18.8038,18.8286,17.7482,17.7482,17.7482,17.7482,17.7482,17.7482,17.7482,17.7482,17.7444,17.626,17.4484,17.5378,17.581,17.5969,17.7613,17.9126,18.0084,18.0807,18.1559,18.2377,18.2442,18.2245,18.1888,18.1867,18.1457,18.1037,18.1489,18.1191,18.0295,18.0336,17.9249,17.6756,17.401,17.1891,17.0628,17.0438,17.0324,17.0476,17.2332,17.2562,17.1085,17.3413,17.3294,17.0968,17.2074,17.2463,17.1725,17.1848,17.1832,17.1504,17.1735,17.1892,17.2263,17.2704,17.3033,17.3235,17.3262,17.3312,17.3438,17.3476,17.3736,17.4355,17.4352,17.4755,17.5737,17.4855,17.4865,17.6368,17.6917,17.7097,17.7294,17.703,17.6906,17.6907,17.6034,17.5014,17.423,17.347,17.257,17.1513,17.0897,17.1025,17.1497,17.1323,17.1282,17.2097,17.2678,17.2853,17.2853,17.3086,17.322,17.3104,17.2813,17.229,17.2406,17.229,17.2232,17.2406,17.2678,17.2795,17.2969,17.326,17.4075,17.5238,17.6245,17.7193,17.8339,17.9153,17.9968,18.0549,18.1015,18.148,18.3209,18.5129,18.6075,17.6059,17.6305,17.6305,17.6141,17.5895,17.5829,17.5757,17.5301,17.2926,17.0991,16.9792,17.139,17.2023,17.2006,17.4643,17.6152,17.6731,17.8074,17.9126,17.9878,17.9878,17.9878,17.9943,18.0573,18.0665,18.0452,18.1218,18.1221,18.0574,18.031,17.9243,17.7447,17.5822,17.3963,17.2093,17.1231,17.1043,17.1435,17.3733,17.4235,17.2623,17.4766,17.4728,17.2295,17.3185,17.3207,17.2152,17.1658,17.1241,17.0822,17.0748,17.101,17.16,17.2058,17.2511,17.3196,17.3262,17.3262,17.3262,17.3262,17.3427,17.3791,17.358,17.3712,17.4562,17.3815,17.4011,17.5384,17.5515,17.5663,17.6097,17.6115,17.5957,17.5506,17.5192,17.4589,17.3938,17.3006,17.212,17.1,17.0554,17.0264,16.9909,17.0017,17.0371,17.0506,17.0642,17.0933,17.1417,17.1049,17.0642,17.0642,17.0642,17.0642,17.0584,17.0642,17.0603,17.0642,17.1166,17.1475,17.1534,17.2115,17.2678,17.3376,17.3958,17.4693,17.5216,17.6536,17.7525,17.8048,17.8589,17.9619,18.0724,18.2062,18.2876,17.4422,17.5269,17.5269,17.4661,17.3706,17.3626,17.2988,17.1752,16.7505,16.5538,16.5696,16.7479,16.7959,16.7774,17.1575,17.3134,17.3034,17.5702,17.7067,17.7292,17.7406,17.7482,17.7548,17.8703,17.9295,17.937,17.9944,18.0315,18.0228,17.9317,17.8182,17.709,17.6889,17.5857,17.3936,17.2332,17.1855,17.2623,17.4935,17.5579,17.4435,17.5848,17.5834,17.4063,17.405,17.3706,17.2609,17.1083,17.0251,17.0186,16.9428,16.9498,17.0643,17.0511,17.0999,17.2117,17.2051,17.2183,17.2511,17.2577,17.2774,17.3076,17.2677,17.2397,17.2589,17.2972,17.3695,17.4824,17.4966,17.5288,17.5928,17.5861,17.5188,17.4194,17.4153,17.3942,17.2983,17.2603,17.1927,17.06,17.0664,16.9965,16.864,16.8637,16.8808,16.8602,16.8605,16.878,16.9614,16.8955,16.814,16.8198,16.8373,16.8548,16.878,16.8548,16.878,16.8548,16.9595,17.0196,17.0196,17.0933,17.1631,17.2097,17.2213,17.2348,17.2678,17.3376,17.4482,17.5391,17.6321,17.7542,17.9037,17.8921,17.8979,17.4498,17.6815,17.6815,17.5168,17.2334,17.1876,16.9776,16.6675,16.701,0.0,0.0,16.757,16.7612,16.7714,16.9092,17.0437,17.1588,17.3693,17.5206,17.6367,17.7112,17.7482,17.7482,17.7745,17.7876,17.7848,17.7482,17.7289,17.7264,17.7812,17.7672,17.7002,17.6877,17.668,17.6215,17.5323,17.4991,17.5334,17.7206,17.8003,17.7387,17.9117,17.8294,17.4663,17.5501,17.482,17.2387,17.1376,17.0876,17.0876,16.9576,16.9038,16.9235,16.8144,16.7645,16.7842,16.6671,16.7039,16.9459,16.9696,17.0709,17.3038,17.306,17.2074,16.9827,17.1854,17.3301,17.3564,17.3564,17.3575,17.3756,17.3287,17.3301,17.4176,17.304,17.2398,17.2538,17.1759,17.095,17.0553,16.9571,16.8829,16.8859,16.7624,16.6774,16.7559,16.7358,16.7384,16.8257,16.6977,16.5967,16.6898,16.7617,16.8373,16.8489,16.8373,16.8548,16.8315,16.8606,16.8897,16.8897,16.9071,16.9653,17.037,17.0777,17.1126,17.2097,17.2387,17.2853,17.2988,17.3279,17.4035,17.5972,17.5198,17.4558,17.285,17.4445,17.4537,17.3228,0.0,17.0699,16.778,16.3403,16.4147,16.4537,16.4627,16.5761,16.6032,16.5685,16.7657,16.8952,16.9623,17.1117,17.2519,17.3626,17.4323,17.4604,17.4643,17.5845,17.6364,17.643,17.678,17.6864,17.6524,17.6975,17.6897,17.6442,17.6751,17.657,17.5928,17.5855,17.6204,17.7043,17.8595,17.9158,17.8557,17.9061,17.8208,17.5732,17.5521,0.0,0.0,0.0,0.0,0.0,0.0,0.0,0.0,0.0,0.0,16.5488,16.2135,16.0754,16.2226,16.2292,16.3278,16.5343,16.6855,16.6171,16.2595,16.5645,16.8631,17.0775,17.1038,17.1656,17.2972,17.2923,17.2856,17.3151,17.2497,17.1962,17.2033,17.1212,17.0405,16.9747,16.9004,16.8339,16.7923,16.6962,16.6731,16.6743,16.6394,16.6288,16.6413,16.5729,16.5409,16.6109,16.6544,16.6589,16.6628,16.6531,16.6531,16.6531,16.6531,16.6531,16.6531,16.6589,16.6764,16.7346,16.7578,16.7695,16.8393,16.9032,16.9711,17.0293,17.0952,17.1766,17.1941,17.1301,17.1224,17.1442,17.2409,17.2499,17.1564,17.0017,16.8745,16.5705,16.1518,16.1435,16.1393,16.1524,16.3407,16.3833,16.3344,16.6073,16.7391,16.747,16.8784,17.0127,17.1373,17.1813,17.2262,17.2793,17.46,17.5384,17.545,17.635,17.6544,17.604,17.6077,17.5912,17.5655,17.6458,17.6363,17.5436,0.0,0.0,0.0,17.9378,17.9837,17.8981,17.8429,17.7611,17.633,17.5151,0.0,17.3208,17.1761,17.1038,17.0972,16.9696,0.0,0.0,0.0,0.0,0.0,0.0,0.0,0.0,0.0,0.0,0.0,15.6768,15.5847,15.3414,15.6965,16.1371,16.5948,16.6961,16.8341,17.0867,17.1393,17.1506,17.1567,17.1467,17.1483,17.1753,17.093,17.0108,16.9147,16.86,16.7822,16.6711,16.6431,16.6201,16.5788,16.5441,16.4954,16.4019,16.45,16.5111,16.5278,16.514,16.4867,16.5063,16.5125,16.5166,16.4821,16.4783,16.469,16.4749,16.4749,16.469,16.4807,16.4632,16.4749,16.4749,16.5484,16.6648,16.7578,16.8567,16.8974,16.7695,16.7404,16.8257,17.2301,17.4688,17.4708,17.2727,16.9283,16.4914,16.2451,16.1332,16.1025,16.0872,16.0872,16.1177,16.1227,16.1283,16.3546,16.4555,16.4702,16.7221,16.9611,17.174,17.228,17.376,17.5831,17.5755,17.5693,17.564,17.4819,17.432,17.4305,17.4475,17.4646,17.4625,17.6133,17.6798,17.6609,17.6695,17.6841,17.7071,17.9578,18.0187,17.8902,17.9186,17.8177,17.5634,17.5305,17.4572,17.3235,17.1854,17.1038,17.1038,16.9722,16.9038,16.9038,16.262,15.7754,0.0,14.7299,0.0,0.0,0.0,0.0,0.0,0.0,0.0,0.0,14.6575,15.1442,15.7097,15.9833,16.1937,16.3541,16.483,16.6553,16.8997,16.8831,16.9499,17.1772,17.0696,16.9825,17.0377,16.8261,16.6852,16.6569,16.4581,16.3758,16.4948,16.4367,16.3226,16.1569,16.2256,16.3144,16.3371,16.4287,16.4979,16.5885,16.5837,16.539,16.5433,16.4788,16.4632,16.4417,16.4475,16.4554,16.4495,16.4396,16.4437,16.4632,16.467,16.4844,16.4961,16.5211,16.4978,16.3951,16.366,16.469,16.7357,16.852,16.859,16.6209,16.242,16.1075,16.0107,15.9479,15.9354,15.9283,15.9195,15.9283,15.8792,15.8054,15.8959,16.0097,16.1386,16.2899,16.6373,17.1235,17.1317,17.3326,17.6863,17.6924,17.6773,17.6551,17.5777,17.5229,17.4926,17.4398,17.4385,17.4934,17.5306,17.5255,17.4801,17.5255,17.631,17.7967,17.8322,17.8388,17.8074,17.7511,17.6665,17.535,17.4589,17.3827,17.3169,17.2577,17.2248,17.2248,17.1629,16.9854,16.654,15.9596,15.2954,0.0,0.0,0.0,0.0,0.0,0.0,0.0,0.0,0.0,0.0,0.0,14.0219,14.3616,14.9403,15.4203,15.7269,15.8872,16.0228,16.1568,16.2127,16.3155,16.4935,16.6495,16.7331,16.6928,16.6664,16.6392,16.6048,16.4013,16.2936,16.4085,16.4057,16.3765,16.3361,16.3044,16.3029,16.3188,16.3113,16.3239,16.3714,16.3191,16.2785,16.2713,16.2136,16.1629,16.1629,16.1629,16.1665,16.1629,16.1629,16.152,16.1178,16.1105,16.1192,16.1438,16.1572,16.1528,16.1294,16.171,16.273,16.2198,16.1701,15.9839,15.7233,15.4288,15.5838,15.6158,15.5707,15.5974,15.599,15.562,15.562,15.4575,15.2735,15.2991,15.4307,15.6297,15.7756,16.2748,17.0129,17.0396,17.3363,17.8719,17.8946,17.8771,17.8468,17.7604,17.6942,17.6381,17.4934,17.4409,17.4794,17.3782,17.2647,17.1438,17.2606,17.4598,17.7434,17.6976,17.6939,17.7416,17.6101,17.518,17.4852,17.3761,17.3262,17.3262,17.3262,17.3262,17.3169,17.1854,16.8828,16.3776,15.5156,0.0,0.0,0.0,0.0,0.0,0.0,0.0,0.0,0.0,11.5676,11.9971,0.0,12.8821,0.0,13.9079,14.5589,14.9314,15.1244,0.0,0.0,15.384,15.5231,15.7018,16.0376,16.2515,16.242,16.3957,16.4893,16.4671,16.3702,16.3172,16.3833,16.4211,16.4506,16.4791,16.4235,16.396,16.3754,16.3051,16.2358,16.2539,16.188,16.1648,16.1149,16.0376,15.9723,15.9723,15.9723,15.9688,15.9723,15.9583,15.9326,15.9009,15.8549,15.863,15.8653,15.8715,15.8922,15.9515,16.0395,16.1354,15.925,15.7309,15.002,14.6811,14.6641,14.8154,14.8766,14.885,15.026,15.0046,14.8707,14.8722,14.7082,14.4358,14.5375,0.0,14.8483,15.2175,15.9338,16.905,17.0185,17.5157,18.3154,18.2545,18.2147,18.2058,18.0083,17.9008,17.8474,17.6105,17.4421,17.3465,17.1281,16.9026,16.6796,16.8787,17.115,17.3641,17.6111,17.7454,17.7416,17.6101,17.472,17.3432,17.3235,17.3262,17.3262,17.3262,17.3262,17.3065,16.8052,16.3959,16.0846,0.0,0.0,0.0,0.0,0.0,0.0,0.0,0.0,0.0,0.0,0.0,0.0,0.0,0.0,0.0,13.0267,0.0,13.7654,14.0328,0.0,0.0,0.0,14.6268,15.038,15.2199,15.4439,15.7955,0.0,0.0,16.2235,16.3489,16.4578,16.5151,16.4375,16.35,16.2829,16.4393,16.5217,16.4673,16.4943,16.5187,16.488,16.4753,16.4197,16.2998,16.2051,16.1082,16.1108,16.1073,16.1158,16.1108,16.0664,16.0188,16.0178,15.9616,15.8804,15.796,15.7761,15.7891,15.8554,15.8906,15.9553,14.8517,14.1921,13.8844,13.6983,13.6339,13.8871,13.9944,14.0088,14.1577,14.1376,13.9931,13.9795,13.794,13.497,13.5332,0.0,0.0,0.0,15.5234,16.7403,17.0145,17.6358,18.4804,18.4485,18.4043,18.3745,18.2368,18.14,18.092,17.8687,17.3066,16.4043,0.0,0.0,16.1547,16.4258,16.7852,17.2246,17.4056,17.5312,17.6101,17.4786,17.3761,17.3262,17.3262,17.3262,17.3262,17.3262,17.1591,16.7986,16.4273,15.7779,0.0,0.0,0.0,0.0,0.0,0.0,0.0,0.0,0.0,0.0,0.0,10.0119,0.0,0.0,0.0,0.0,11.766,12.2856,12.6914,12.9873,0.0,0.0,0.0,0.0,0.0,0.0,0.0,15.0781,15.6653,16.1077,16.2752,16.535,16.7061,16.7115,16.6792,16.6382,16.621,0.0,16.6594,16.6043,16.5111,16.4426,16.4426,16.3709,16.2807,16.1712,16.1149,16.1006,16.1465,16.1581,16.1581,16.1548,16.135,16.0886,16.0078,16.072,16.1156,16.0737,16.0298,15.9795,15.9215,15.9764,16.0234,13.5904,0.0,0.0,0.0,0.0,12.9758,13.0897,13.098,13.2502,13.2297,13.0666,12.9991,0.0,0.0,0.0,0.0,0.0,0.0,15.1014,16.2494,17.0344,17.7694,18.4547,18.4065,18.3427,18.2593,18.0344,17.8689,17.752,17.3712,16.5696,15.4032,0.0,0.0,0.0,0.0,16.4312,16.9699,17.2123,17.3695,17.472,17.3761,17.3262,17.3262,17.3262,17.3262,17.3196,17.1591,16.8263,16.2971,15.7516,0.0,0.0,0.0,0.0,0.0,0.0,0.0,0.0,0.0,0.0,0.0,0.0,0.0,0.0,0.0,0.0,0.0,0.0,0.0,11.705,12.0516,12.2662,0.0,0.0,0.0,0.0,0.0,0.0,0.0,0.0,0.0,15.885,16.3275,16.6591,0.0,0.0,16.8633,16.8717,16.8559,16.8259,16.788,16.6079,0.0,16.4712,16.3195,16.1982,16.2089,16.1816,16.1683,16.1874,16.1066,16.0508,16.0415,16.0908,16.0472,15.8369,15.8806,15.9665,15.9887,15.9549,15.8775,15.755,15.8207,15.8707,0.0,0.0,0.0,0.0,0.0,0.0,0.0,0.0,12.3336,12.2851,0.0,11.9462,0.0,0.0,0.0,0.0,12.1168,13.5983,0.0,0.0,16.9981,17.9183,18.0841,18.0317,17.9475,17.7767,17.2476,16.8609,16.5803,15.77,0.0,0.0,0.0,0.0,0.0,0.0,16.0473,16.5497,17.0608,17.3262,17.3301,17.3235,17.3262,17.3262,17.3262,17.3131,17.2933,16.7776,16.2997,15.876,14.6598,0.0,0.0,0.0,0.0,0.0,0.0,0.0,0.0,0.0,0.0,0.0,0.0,0.0,0.0,0.0,0.0,0.0,0.0,0.0,0.0,11.2477,0.0,0.0,0.0,0.0,0.0,0.0,0.0,0.0,0.0,0.0,14.8381,15.5521,16.17,16.4253,0.0,0.0,0.0,0.0,17.038,17.0352,16.861,16.7216,16.7216,16.4879,16.3726,16.5684,0.0,0.0,16.2415,15.9569,15.737,15.7432,15.8906,15.8807,15.3653,15.2816,15.3075,15.3324,15.3327,15.2808,15.1745,15.2636,15.3239,0.0,0.0,0.0,0.0,0.0,0.0,0.0,0.0,0.0,11.0899,0.0,10.8163,0.0,0.0,0.0,0.0,0.0,0.0,0.0,0.0,15.3906,16.1612,16.7106,16.6973,16.6035,0.0,16.2249,15.391,0.0,0.0,0.0,0.0,0.0,0.0,0.0,0.0,15.8068,16.4299,17.0175,17.3262,17.3262,17.3262,17.3262,17.3262,17.3262,17.1067,16.6772,16.101,15.3925,0.0,0.0,0.0,0.0,0.0,0.0,0.0,0.0,0.0,0.0,0.0,0.0,0.0,0.0,0.0,0.0,0.0,0.0,0.0,0.0,0.0,0.0,0.0,10.8136,0.0,0.0,0.0,0.0,0.0,0.0,0.0,0.0,0.0,14.1512,14.9554,15.7507,16.3213,16.5496,16.7772,17.0827,0.0,0.0,0.0,0.0,0.0,0.0,0.0,16.2924,16.2772,16.1135,15.9346,15.7984,15.5629,15.3981,15.3981,0.0,0.0,14.637,14.6295,14.7585,14.8609,14.8213,14.7817,14.787,14.8747,14.9247,0.0,0.0,0.0,0.0,0.0,0.0,0.0,0.0,0.0,10.0347,9.9021,0.0,0.0,0.0,0.0,0.0,0.0,0.0,0.0,0.0,0.0,0.0,15.2622,15.2678,0.0,0.0,0.0,0.0,0.0,0.0,0.0,0.0,0.0,0.0,0.0,0.0,15.5463,16.2294,16.9529,17.3262,17.3262,17.3262,17.3262,17.3262,17.3262,17.0226,16.3968,0.0,0.0,0.0,0.0,0.0,0.0,0.0,0.0,0.0,0.0,0.0,0.0,0.0,0.0,0.0,0.0,0.0,0.0,0.0,0.0,0.0,0.0,0.0,0.0,0.0,10.2095,0.0,0.0,0.0,0.0,0.0,0.0,0.0,0.0,0.0,0.0,0.0,15.0177,15.735,16.1865,16.5981,17.0034,17.1272,17.1877,0.0,0.0,0.0,0.0,0.0,0.0,0.0,0.0,0.0,0.0,0.0,0.0,0.0,0.0,14.1815,13.7241,13.7534,13.8941,14.0202,0.0,0.0,0.0,0.0,0.0,0.0,0.0,0.0,0.0,0.0,0.0,0.0,0.0,0.0,0.0,9.1252,0.0,0.0,8.7911,0.0,0.0,0.0,0.0,0.0,0.0,0.0,0.0,0.0,0.0,0.0,0.0,0.0,0.0,0.0,0.0,0.0,0.0,0.0,0.0,0.0,0.0,15.2786,15.9398,16.8605,17.3262,17.3262,17.3262,17.3262,17.3196,17.3131,17.0489,16.4984,0.0,0.0,0.0,0.0,0.0,0.0,0.0,0.0,0.0,0.0,0.0,0.0,0.0,0.0,0.0,0.0,0.0,0.0,0.0,0.0,0.0,0.0,0.0,0.0,0.0,0.0,9.8649,10.0571,10.2756,0.0,0.0,0.0,0.0,0.0,0.0,0.0,0.0,0.0,0.0,15.6441,16.4018,16.7031,16.9515,17.1471,17.2813,17.0682,16.9367,17.0589,16.8578,16.6237,0.0,0.0,0.0,0.0,0.0,0.0,0.0,0.0,0.0,0.0,0.0,0.0,0.0,0.0,0.0,0.0,0.0,0.0,0.0,0.0,0.0,0.0,0.0,0.0,0.0,0.0,0.0,0.0,0.0,0.0,0.0,0.0,0.0,0.0,0.0,0.0,0.0,0.0,0.0,0.0,0.0,0.0,0.0,0.0,0.0,0.0,0.0,0.0,0.0,0.0,0.0,0.0,0.0,0.0,15.1786,15.9332,16.8539,17.3262,17.3262,17.3262,17.3262,17.3131,17.0275,16.5656,0.0,0.0,0.0,0.0,0.0,0.0,0.0,0.0,0.0,0.0,0.0,0.0,0.0,0.0,0.0,0.0,0.0,0.0,0.0,0.0,0.0,0.0,0.0,0.0,0.0,0.0,0.0,0.0,9.7612,10.0285,10.2356,0.0,0.0,0.0,0.0,0.0,0.0,0.0,0.0,0.0,0.0,16.0097,16.6499,16.8593,16.9722,17.0117,16.9459,16.8736,16.8171,16.821,16.6369,16.0845,0.0,0.0,0.0,0.0,0.0,0.0,0.0,0.0,0.0,0.0,0.0,0.0,0.0,0.0,0.0,0.0,0.0,0.0,0.0,0.0,0.0,0.0,0.0,0.0,0.0,0.0,0.0,0.0,0.0,0.0,0.0,0.0,0.0,0.0,0.0,0.0,0.0,0.0,0.0,0.0,0.0,0.0,0.0,0.0,0.0,0.0,0.0,0.0,0.0,0.0,0.0,0.0,0.0,15.0653,15.8776,16.8288,17.3262,17.3262,17.3262,17.3262,17.3169,16.9026,16.3125,0.0,0.0,0.0,0.0,0.0,0.0,0.0,0.0,0.0,0.0,0.0,0.0,0.0,0.0,0.0,0.0,0.0,0.0,0.0,0.0,0.0,0.0,0.0,0.0,0.0,0.0,0.0,0.0,9.4324,9.7329,9.7889,0.0,0.0,0.0,0.0,0.0,0.0,0.0,0.0,0.0,0.0,15.5882,16.3272,16.5995,0.0,0.0,16.7618,16.7092,16.679,16.8894,16.7487,15.8634,15.2452,0.0,0.0,0.0,0.0,0.0,0.0,0.0,0.0,0.0,0.0,0.0,0.0,0.0,0.0,0.0,0.0,0.0,0.0,0.0,0.0,0.0,0.0,0.0,0.0,0.0,0.0,0.0,0.0,0.0,0.0,0.0,0.0,0.0,0.0,0.0,0.0,0.0,0.0,0.0,0.0,0.0,0.0,0.0,0.0,0.0,0.0,0.0,0.0,0.0,0.0,0.0,0.0,0.0,15.7734,16.7916,17.3224,17.3262,17.3262,17.3262,17.3103,16.8658,16.1826,0.0,0.0,0.0,0.0,0.0,0.0,0.0,0.0,0.0,0.0,0.0,0.0,0.0,0.0,0.0,0.0,0.0,0.0,0.0,0.0,0.0,0.0,0.0,0.0,0.0,0.0,0.0,0.0,0.0,0.0,0.0,0.0,0.0,0.0,0.0,0.0,0.0,0.0,0.0,0.0,0.0,15.1988,15.8595,16.2367,16.496,0.0,16.5237,16.4685,16.5987,16.9776,16.8697,15.7187,0.0,0.0,0.0,0.0,0.0,0.0,0.0,0.0,0.0,0.0,0.0,0.0,0.0,0.0,0.0,0.0,0.0,0.0,0.0,0.0,0.0,0.0,0.0,0.0,0.0,0.0,0.0,0.0,0.0,0.0,0.0,0.0,0.0,0.0,0.0,0.0,0.0,0.0,0.0,0.0,0.0,0.0,0.0,0.0,0.0,0.0,0.0,0.0,0.0,0.0,0.0,0.0,0.0,0.0,15.6226,16.7789,17.3576,17.3262,17.3262,17.3262,17.3065,16.5178,0.0,0.0,0.0,0.0,0.0,0.0,0.0,0.0,0.0,0.0,0.0,0.0,0.0,0.0,0.0,0.0,0.0,0.0,0.0,0.0,0.0,0.0,0.0,0.0,0.0,0.0,0.0,7.6436,0.0,0.0,0.0,0.0,0.0,0.0,0.0,0.0,0.0,0.0,0.0,0.0,0.0,0.0,15.29,15.9613,16.1616,16.2991,0.0,0.0,16.1613,16.0937,16.4102,16.2661,0.0,0.0,0.0,0.0,0.0,0.0,0.0,0.0,0.0,0.0,0.0,0.0,0.0,0.0,0.0,0.0,0.0,0.0,0.0,0.0,0.0,0.0,0.0,0.0,0.0,0.0,0.0,0.0,0.0,0.0,0.0,0.0,0.0,0.0,0.0,0.0,0.0,0.0,0.0,0.0,0.0,0.0,0.0,0.0,0.0,0.0,0.0,0.0,0.0,0.0,0.0,0.0,0.0,0.0,14.6091,15.5175,16.571,17.1798,17.3131,17.3262,17.3262,17.3196,16.4424,15.5731,0.0,0.0,0.0,0.0,0.0,0.0,0.0,0.0,0.0,0.0,0.0,0.0,0.0,0.0,0.0,0.0,0.0,0.0,0.0,0.0,0.0,0.0,0.0,0.0,0.0,0.0,0.0,0.0,0.0,0.0,0.0,0.0,0.0,0.0,0.0,0.0,0.0,0.0,0.0,0.0,0.0,0.0,15.9106,15.8247,0.0,0.0,0.0,15.8469,15.8101,0.0,0.0,0.0,0.0,0.0,0.0,0.0,0.0,0.0,0.0,0.0,0.0,0.0,0.0,0.0,0.0,0.0,0.0,0.0,0.0,0.0,0.0,0.0,0.0,0.0,0.0,0.0,0.0,0.0,0.0,0.0,0.0,0.0,0.0,0.0,0.0,0.0,0.0,0.0,0.0,0.0,0.0,0.0,0.0,0.0,0.0,0.0,0.0,0.0,0.0,0.0,0.0,0.0,0.0,0.0,0.0,0.0,15.393,16.2805,16.929,17.3042,17.3224,17.3262,17.3131,16.5545,15.7234,0.0,0.0,0.0,0.0,0.0,0.0,0.0,0.0,0.0,0.0,0.0,0.0,0.0,0.0,0.0,0.0,0.0,0.0,0.0,0.0,0.0,0.0,0.0,0.0,0.0,0.0,0.0,0.0,0.0,0.0,0.0,0.0,0.0,0.0,0.0,0.0,0.0,0.0,0.0,0.0,0.0,14.7376,15.7552,15.3396,14.8822,0.0,0.0,15.4721,15.6141,15.9501,0.0,0.0,0.0,0.0,0.0,0.0,0.0,0.0,0.0,0.0,0.0,0.0,0.0,0.0,0.0,0.0,0.0,0.0,0.0,0.0,0.0,0.0,0.0,0.0,0.0,0.0,0.0,0.0,0.0,0.0,0.0,0.0,0.0,0.0,0.0,0.0,0.0,0.0,0.0,0.0,0.0,0.0,0.0,0.0,0.0,0.0,0.0,0.0,0.0,0.0,0.0,0.0,0.0,0.0,0.0,0.0,15.1428,16.1744,16.9153,17.3555,17.3387,17.3262,17.3131,16.7432,15.8895,0.0,0.0,0.0,0.0,0.0,0.0,0.0,0.0,0.0,0.0,0.0,0.0,0.0,0.0,0.0,0.0,0.0,0.0,0.0,0.0,0.0,0.0,0.0,0.0,0.0,0.0,0.0,0.0,0.0,0.0,0.0,0.0,0.0,0.0,0.0,0.0,0.0,0.0,0.0,0.0,0.0,14.443,15.5877,14.8676,0.0,0.0,0.0,0.0,15.1566,15.1407,0.0,0.0,0.0,0.0,0.0,0.0,0.0,0.0,0.0,0.0,0.0,0.0,0.0,0.0,0.0,0.0,0.0,0.0,0.0,0.0,0.0,0.0,0.0,0.0,0.0,0.0,0.0,0.0,0.0,0.0,0.0,0.0,0.0,0.0,0.0,0.0,0.0,0.0,0.0,0.0,0.0,0.0,0.0,0.0,0.0,0.0,0.0,0.0,0.0,0.0,0.0,0.0,0.0,0.0,0.0,0.0,14.9768,15.8262,16.6169,17.365,17.3441,17.3262,17.3131,16.9039,16.0778,0.0,0.0,0.0,0.0,0.0,0.0,0.0,0.0,0.0,0.0,0.0,0.0,0.0,0.0,0.0,0.0,0.0,0.0,0.0,0.0,0.0,0.0,0.0,0.0,0.0,0.0,0.0,0.0,0.0,0.0,0.0,0.0,0.0,0.0,0.0,0.0,0.0,0.0,0.0,0.0,13.0611,13.593,14.5105,0.0,0.0,0.0,0.0,0.0,0.0,14.7211,14.3514,0.0,0.0,0.0,0.0,0.0,0.0,0.0,0.0,0.0,0.0,0.0,0.0,0.0,0.0,0.0,0.0,0.0,0.0,0.0,0.0,0.0,0.0,0.0,0.0,0.0,0.0,0.0,0.0,0.0,0.0,0.0,0.0,0.0,0.0,0.0,0.0,0.0,0.0,0.0,0.0,0.0,0.0,0.0,0.0,0.0,0.0,0.0,0.0,0.0,0.0,0.0,0.0,0.0,0.0,0.0,14.7647,15.4153,16.2518,17.2832,17.3274,17.3251,17.3131,16.9684,16.1686,14.8631,0.0,0.0,0.0,0.0,0.0,0.0,0.0,0.0,0.0,0.0,0.0,0.0,0.0,0.0,0.0,0.0,0.0,0.0,0.0,0.0,0.0,0.0,0.0,0.0,0.0,0.0,0.0,0.0,0.0,0.0,0.0,0.0,0.0,0.0,0.0,0.0,0.0,0.0,0.0,12.1561,12.5601,0.0,0.0,0.0,0.0,0.0,0.0,0.0,0.0,13.7873,0.0,0.0,0.0,0.0,0.0,0.0,0.0,0.0,0.0,0.0,0.0,0.0,0.0,0.0,0.0,0.0,0.0,0.0,0.0,0.0,0.0,0.0,0.0,0.0,0.0,0.0,0.0,0.0,0.0,0.0,0.0,0.0,0.0,0.0,0.0,0.0,0.0,0.0,0.0,0.0,0.0,0.0,0.0,0.0,0.0,0.0,0.0,0.0,0.0,0.0,0.0,0.0,0.0,0.0,0.0,0.0,15.0752,16.0303,16.9315,17.2409,17.363,17.3158,16.8328,15.9404,14.605,0.0,0.0,0.0,0.0,0.0,0.0,0.0,0.0,0.0,0.0,0.0,0.0,0.0,0.0,0.0,0.0,0.0,0.0,0.0,0.0,0.0,0.0,0.0,0.0,0.0,0.0,0.0,0.0,0.0,0.0,0.0,0.0,0.0,0.0,0.0,0.0,0.0,0.0,9.9284,10.8571,0.0,0.0,0.0,0.0,0.0,0.0,0.0,0.0,12.9207,0.0,0.0,0.0,0.0,0.0,0.0,0.0,0.0,0.0,0.0,0.0,0.0,0.0,0.0,0.0,0.0,0.0,0.0,0.0,0.0,0.0,0.0,0.0,0.0,0.0,0.0,0.0,0.0,0.0,0.0,0.0,0.0,0.0,0.0,0.0,0.0,0.0,0.0,0.0,0.0,0.0,0.0,0.0,0.0,0.0,0.0,0.0,0.0,0.0,0.0,0.0,0.0,0.0,0.0,0.0,0.0,0.0,0.0,15.8411,16.8217,17.2345,17.4142,17.3262,16.4333,15.4275,0.0,0.0,0.0,0.0,0.0,0.0,0.0,0.0,0.0,0.0,0.0,0.0,0.0,0.0,0.0,0.0,0.0,0.0,0.0,0.0,0.0,0.0,0.0,0.0,0.0,0.0,0.0,0.0,0.0,0.0,0.0,0.0,0.0,0.0,0.0,0.0,0.0,0.0,0.0,0.0,0.0,0.0,0.0,0.0,0.0,0.0,0.0,0.0,0.0,0.0,0.0,0.0,0.0,0.0,0.0,0.0,0.0,0.0,0.0,0.0,0.0,0.0,0.0,0.0,0.0,0.0,0.0,0.0,0.0,0.0,0.0,0.0,0.0,0.0,0.0,0.0,0.0,0.0,0.0,0.0,0.0,0.0,0.0,0.0,0.0,0.0,0.0,0.0,0.0,0.0,0.0,0.0,0.0,0.0,0.0,0.0,0.0,0.0,0.0,0.0,0.0,0.0,0.0,0.0,0.0,0.0,0.0,0.0,15.6476,16.6457,17.2318,17.4952,17.4263,16.058,14.8618,0.0,0.0,0.0,0.0,0.0,0.0,0.0,0.0,0.0,0.0,0.0,0.0,0.0,0.0,0.0,0.0,0.0,0.0,0.0,0.0,0.0,0.0,0.0,0.0,0.0,0.0,0.0,0.0,0.0,0.0,0.0,0.0,0.0,0.0,0.0,0.0,0.0,0.0,0.0,0.0,0.0,0.0,0.0,0.0,0.0,0.0,0.0,0.0,11.4577,0.0,0.0,0.0,0.0,0.0,0.0,0.0,0.0,0.0,0.0,0.0,0.0,0.0,0.0,0.0,0.0,0.0,0.0,0.0,0.0,0.0,0.0,0.0,0.0,0.0,0.0,0.0,0.0,0.0,0.0,0.0,0.0,0.0,0.0,0.0,0.0,0.0,0.0,0.0,0.0,0.0,0.0,0.0,0.0,0.0,0.0,0.0,0.0,0.0,0.0,0.0,0.0,0.0,0.0,0.0,0.0,0.0,0.0,0.0,15.4021,16.1793,17.1774,17.6509,17.5154,15.8927,14.3329,0.0,0.0,0.0,0.0,0.0,0.0,0.0,0.0,0.0,0.0,0.0,0.0,0.0,0.0,0.0,0.0,0.0,0.0,0.0,0.0,0.0,0.0,0.0,0.0,0.0,0.0,0.0,0.0,0.0,0.0,0.0,0.0,0.0,0.0,0.0,0.0,0.0,0.0,0.0,0.0,0.0,0.0,0.0,0.0,0.0,0.0,0.0,0.0,0.0,0.0,0.0,0.0,0.0,0.0,0.0,0.0,0.0,0.0,0.0,0.0,0.0,0.0,0.0,0.0,0.0,0.0,0.0,0.0,0.0,0.0,0.0,0.0,0.0,0.0,0.0,0.0,0.0,0.0,0.0,0.0,0.0,0.0,0.0,0.0,0.0,0.0,0.0,0.0,0.0,0.0,0.0,0.0,0.0,0.0,0.0,0.0,0.0,0.0,0.0,0.0,0.0,0.0,0.0,0.0,0.0,0.0,0.0,0.0,14.8699,15.9173,16.8902,16.9752,16.1123,14.6797,13.3676,0.0,0.0,0.0,0.0,0.0,0.0,0.0,0.0,0.0,0.0,0.0,0.0,0.0,0.0,0.0,0.0,0.0,0.0,0.0,0.0,0.0,0.0,0.0,0.0,0.0,0.0,0.0,0.0,0.0,0.0,0.0,0.0,0.0,0.0,0.0,0.0,0.0,0.0,0.0,0.0,0.0,0.0,0.0,0.0,0.0,0.0,0.0,0.0,0.0,0.0,0.0,0.0,0.0,0.0,0.0,0.0,0.0,0.0,0.0,0.0,0.0,0.0,0.0,0.0,0.0,0.0,0.0,0.0,0.0,0.0,0.0,0.0,0.0,0.0,0.0,0.0,0.0,0.0,0.0,0.0,0.0,0.0,0.0,0.0,0.0,0.0,0.0,0.0,0.0,0.0,0.0,0.0,0.0,0.0,0.0,0.0,0.0,0.0,0.0,0.0,0.0,0.0,0.0,0.0,0.0,0.0,0.0,0.0,0.0,15.3422,15.9283,15.6952,14.6021,13.4639,12.3958,0.0,0.0,0.0,0.0,0.0,0.0,0.0,0.0,0.0,0.0,0.0,0.0,0.0,0.0,0.0,0.0,0.0,0.0,0.0,0.0,0.0,0.0,0.0,0.0,0.0,0.0,0.0,0.0,0.0,0.0,0.0,0.0,0.0,0.0,0.0,0.0,0.0,0.0,0.0,0.0,0.0,0.0,0.0,0.0,0.0,0.0,0.0,0.0,0.0,0.0,0.0,0.0,0.0,0.0,0.0,0.0,0.0,0.0,0.0,0.0,0.0,0.0,0.0,0.0,0.0,0.0,0.0,0.0,0.0,0.0,0.0,0.0,0.0,0.0,0.0,0.0,0.0,0.0,0.0,0.0,0.0,0.0,0.0,0.0,0.0,0.0,0.0,0.0,0.0,0.0,0.0,0.0,0.0,0.0,0.0,0.0,0.0,0.0,0.0,0.0,0.0,0.0,0.0,0.0,0.0,0.0,0.0,0.0,0.0,14.2664,13.9698,13.6727,13.3809,12.541,11.5159,0.0,0.0,0.0,0.0,0.0,0.0,0.0,0.0,0.0,0.0,0.0,0.0,0.0,0.0,0.0,0.0,0.0,0.0,0.0,0.0,0.0,0.0,0.0,0.0,0.0,0.0,0.0,0.0,0.0,0.0,0.0,0.0,0.0,0.0,0.0,0.0,0.0,0.0,0.0,0.0,0.0,0.0,0.0,0.0,0.0,0.0,0.0,0.0,0.0,0.0,0.0,0.0,0.0,0.0,0.0,0.0,0.0,0.0,0.0,0.0,0.0,0.0,0.0,0.0,0.0,0.0,0.0,0.0,0.0,0.0,0.0,0.0,0.0,0.0,0.0,0.0,0.0,0.0,0.0,0.0,0.0,0.0,0.0,0.0,0.0,0.0,0.0,0.0,0.0,0.0,0.0,0.0,0.0,0.0,0.0,0.0,0.0,0.0,0.0,0.0,0.0,0.0,0.0,0.0,0.0,0.0,0.0,0.0,0.0,12.2314,12.153,11.9617,11.6577,11.1221,10.3779,9.3971,0.0,0.0,0.0,0.0,0.0,0.0,0.0,0.0,0.0,0.0,0.0,0.0,0.0,0.0,0.0,0.0,0.0,0.0,0.0,0.0,0.0,0.0,0.0,0.0,0.0,0.0,0.0,0.0,0.0,0.0,0.0,0.0,0.0,0.0,0.0,0.0,0.0,0.0,0.0,0.0,0.0,0.0,0.0,0.0,0.0,0.0,0.0,0.0,0.0,0.0,0.0,0.0,0.0,0.0,0.0,0.0,0.0,0.0,0.0,0.0,0.0,0.0,0.0,0.0,0.0,0.0,0.0,0.0,0.0,0.0,0.0,0.0,0.0,0.0,0.0,0.0,0.0,0.0,0.0,0.0,0.0,0.0,0.0,0.0,0.0,0.0,0.0,0.0,0.0,0.0,0.0,0.0,0.0,0.0,0.0,0.0,0.0,0.0,0.0,0.0,0.0,0.0,0.0,0.0,0.0,0.0,0.0,0.0,10.7962,10.8039,10.6814,10.4109,9.9532,9.4168,0.0,0.0,0.0,0.0,0.0,0.0,0.0,0.0,0.0,0.0,0.0,0.0,0.0,0.0,0.0,0.0,0.0,0.0,0.0,0.0,0.0,0.0,0.0,0.0,0.0,0.0,0.0,0.0,0.0,0.0,0.0,0.0,0.0,0.0,0.0,0.0,0.0,0.0,0.0,0.0,0.0,0.0,0.0,0.0,0.0,0.0,0.0,0.0,0.0,0.0,0.0,0.0,0.0,0.0,0.0,0.0,0.0,0.0,0.0,0.0,0.0,0.0,0.0,0.0,0.0,0.0,0.0,0.0,0.0,0.0,0.0,0.0,0.0,0.0,0.0,0.0,0.0,0.0,0.0,0.0,0.0,0.0,0.0,0.0,0.0,0.0,0.0,0.0,0.0,0.0,0.0,0.0,0.0,0.0,0.0,0.0,0.0,0.0,0.0,0.0,0.0,0.0,0.0,0.0,0.0,0.0,0.0,0.0,0.0,10.1536,10.0069,9.8946,9.8116,9.1825,8.7208,0.0,0.0,0.0,0.0,0.0,0.0,0.0,0.0,0.0,0.0,0.0,0.0,0.0,0.0,0.0,0.0,0.0,0.0,0.0,0.0,0.0,0.0,0.0,0.0,0.0,0.0,0.0,0.0,0.0,0.0,0.0,0.0,0.0,0.0,0.0,0.0,0.0,0.0,0.0,0.0,0.0,0.0,0.0,0.0,0.0,0.0,0.0,0.0,0.0,0.0,0.0,0.0,0.0,0.0,0.0,0.0,0.0,0.0,0.0,0.0,0.0,0.0,0.0,0.0,0.0,0.0,0.0,0.0,0.0,0.0,0.0,0.0,0.0,0.0,0.0,0.0,0.0,0.0,0.0,0.0,0.0,0.0,0.0,0.0,0.0,0.0,0.0,0.0,0.0,0.0,0.0,0.0,0.0,0.0,0.0,0.0,0.0,0.0,0.0,0.0,0.0,0.0,0.0,0.0,0.0,0.0,0.0,0.0,0.0,9.3857,0.0,9.3568,0.0,8.8553,8.5211,0.0,0.0,0.0,0.0,0.0,0.0,0.0,0.0,0.0,0.0,0.0,0.0,0.0,0.0,0.0,0.0,0.0,0.0,0.0,0.0,0.0,0.0,0.0,0.0,0.0,0.0,0.0,0.0,0.0,0.0,0.0,0.0,0.0,0.0,0.0,0.0,0.0,0.0,0.0,0.0,0.0,0.0,0.0,0.0,0.0,0.0,0.0,0.0,0.0,0.0,0.0,0.0,0.0,0.0,0.0,0.0,0.0,0.0,0.0,0.0,0.0,0.0,0.0,0.0,0.0,0.0,0.0,0.0,0.0,0.0,0.0,0.0,0.0,0.0,0.0,0.0,0.0,0.0,0.0,0.0,0.0,0.0,0.0,0.0,0.0,0.0,0.0,0.0,0.0,0.0,0.0,0.0,0.0,0.0,0.0,0.0,0.0,0.0,0.0,0.0,0.0,0.0,0.0,0.0,0.0,0.0,0.0,0.0,0.0,8.9308,9.0164,9.008,0.0,8.6106,8.3276,0.0,0.0,0.0,0.0,0.0,0.0,0.0,0.0,0.0,0.0,0.0,0.0,0.0,0.0,0.0,0.0,0.0,0.0,0.0,0.0,0.0,0.0,0.0,0.0,0.0,0.0,0.0,0.0,0.0,0.0,0.0,0.0,0.0,0.0,0.0,0.0,0.0,0.0,0.0,0.0,0.0,0.0,0.0,0.0,0.0,0.0,0.0,0.0,0.0,0.0,0.0,0.0,0.0,0.0,0.0,0.0,0.0,0.0,0.0,0.0,0.0,0.0,0.0,0.0,0.0,0.0,0.0,0.0,0.0,0.0,0.0,0.0,0.0,0.0,0.0,0.0,0.0,0.0,0.0,0.0,0.0,0.0,0.0,0.0,0.0,0.0,0.0,0.0,0.0,0.0,0.0,0.0,0.0,0.0,0.0,0.0,0.0,0.0,0.0,0.0,0.0,0.0,0.0,0.0,0.0,0.0,0.0,0.0,0.0,0.0,8.7623,8.8013,8.8884,8.409,8.1183,0.0,0.0,0.0,0.0,0.0,0.0,0.0,0.0,0.0,0.0,0.0,0.0,0.0,0.0,0.0,0.0,0.0,0.0,0.0,0.0,0.0,0.0,0.0,0.0,0.0,0.0,0.0,0.0,0.0,0.0,0.0,0.0,0.0,0.0,0.0,0.0,0.0,0.0,0.0,0.0,0.0,0.0,0.0,0.0,0.0,0.0,0.0,0.0,0.0,0.0,0.0,0.0,0.0,0.0,0.0,0.0,0.0,0.0,0.0,0.0,0.0,0.0,0.0,0.0,0.0,0.0,0.0,0.0,0.0,0.0,0.0,0.0,0.0,0.0,0.0,0.0,0.0,0.0,0.0,0.0,0.0,0.0,0.0,0.0,0.0,0.0,0.0,0.0,0.0,0.0,0.0,0.0,0.0,0.0,0.0,0.0,0.0,0.0,0.0,0.0,0.0,0.0,0.0,0.0,0.0,0.0,0.0,0.0,0.0,0.0,8.431,0.0,8.45,8.1511,7.9676,7.9196,0.0,0.0,0.0,0.0,0.0,0.0,0.0,0.0,0.0,0.0,0.0,0.0,0.0,0.0,0.0,0.0,0.0,0.0,0.0,0.0,0.0,0.0,0.0,0.0,0.0,0.0,0.0,0.0,0.0,0.0,0.0,0.0,0.0,0.0,0.0,0.0,0.0,0.0,0.0,0.0,0.0,0.0,0.0,0.0,0.0,0.0,0.0,0.0,0.0,0.0,0.0,0.0,0.0,0.0,0.0,0.0,0.0,0.0,0.0,0.0,0.0,0.0,0.0,0.0,0.0,0.0,0.0,0.0,0.0,0.0,0.0,0.0,0.0,0.0,0.0,0.0,0.0,0.0,0.0,0.0,0.0,0.0,0.0,0.0,0.0,0.0,0.0,0.0,0.0,0.0,0.0,0.0,0.0,0.0,0.0,0.0,0.0,0.0,0.0,0.0,0.0,0.0,0.0,0.0,0.0,0.0,0.0,0.0,0.0,0.0,0.0,8.2805,8.1265,7.981,0.0,0.0,0.0,0.0,0.0,0.0,0.0,0.0,0.0,0.0,0.0,0.0,0.0,0.0,0.0,0.0,0.0,0.0,0.0,0.0,0.0,0.0,0.0,0.0,0.0,0.0,0.0,0.0,0.0,0.0,0.0,0.0,0.0,0.0,0.0,0.0,0.0,0.0,0.0,0.0,0.0,0.0,0.0,0.0,0.0,0.0,0.0,0.0,0.0,0.0,0.0,0.0,0.0,0.0,0.0,0.0,0.0,0.0,0.0,0.0,0.0,0.0,0.0,0.0,0.0,0.0,0.0,0.0,0.0,0.0,0.0,0.0,0.0,0.0,0.0,0.0,0.0,0.0,0.0,0.0,0.0,0.0,0.0,0.0,0.0,0.0,0.0,0.0,0.0,0.0,0.0,0.0,0.0,0.0,0.0,0.0,0.0,0.0,0.0,0.0,0.0,0.0,0.0,0.0,0.0,0.0,0.0,0.0,0.0,0.0,0.0,8.0776,8.2277,8.1821,0.0,7.836,0.0,0.0,0.0,0.0,0.0,0.0,0.0,0.0,0.0,0.0,0.0,0.0,0.0,0.0,0.0,0.0,0.0,0.0,0.0,0.0,0.0,0.0,0.0,0.0,0.0,0.0,0.0,0.0,0.0,0.0,0.0,0.0,0.0,0.0,0.0,0.0,0.0,0.0,0.0,0.0,0.0,0.0,0.0,0.0,0.0,0.0,0.0,0.0,0.0,0.0,0.0,0.0,0.0,0.0,0.0,0.0,0.0,0.0,0.0,0.0,0.0,0.0,0.0,0.0,0.0,0.0,0.0,0.0,0.0,0.0,0.0,0.0,0.0,0.0,0.0,0.0,0.0,0.0,0.0,0.0,0.0,0.0,0.0,0.0,0.0,0.0,0.0,0.0,0.0,0.0,0.0,0.0,0.0,0.0,0.0,0.0,0.0,0.0,0.0,0.0,0.0,0.0,0.0,0.0,0.0,0.0,0.0,0.0,0.0,0.0,0.0,0.0,7.8561,7.7932,7.7131,0.0,0.0,0.0,0.0,0.0,0.0,0.0,0.0,0.0,0.0,0.0,0.0,0.0,0.0,0.0,0.0,0.0,0.0,0.0,0.0,0.0,0.0,0.0,0.0,0.0,0.0,0.0,0.0,0.0,0.0,0.0,0.0,0.0,0.0,0.0,0.0,0.0,0.0,0.0,0.0,0.0,0.0,0.0,0.0,0.0,0.0,0.0,0.0,0.0,0.0,0.0,0.0,0.0,0.0,0.0,0.0,0.0,0.0,0.0,0.0,0.0,0.0,0.0,0.0,0.0,0.0,0.0,0.0,0.0,0.0,0.0,0.0,0.0,0.0,0.0,0.0,0.0,0.0,0.0,0.0,0.0,0.0,0.0,0.0,0.0,0.0,0.0,0.0,0.0,0.0,0.0,0.0,0.0,0.0,0.0,0.0,0.0,0.0,0.0,0.0,0.0,0.0,0.0,0.0,0.0,0.0,0.0,0.0,0.0,0.0,7.7961,7.7951,7.6733,7.594,7.5641,0.0,0.0,0.0,0.0,0.0,0.0,0.0,0.0,0.0,0.0,0.0,0.0,0.0,0.0,0.0,0.0,0.0,0.0,0.0,0.0,0.0,0.0,0.0,0.0,0.0,0.0,0.0,0.0,0.0,0.0,0.0,0.0,0.0,0.0,0.0,0.0,0.0,0.0,0.0,0.0,0.0,0.0,0.0,0.0,0.0,0.0,0.0,0.0,0.0,0.0,0.0,0.0,0.0,0.0,0.0,0.0,0.0,0.0,0.0,0.0,0.0,0.0,0.0,0.0,0.0,0.0,0.0,0.0,0.0,0.0,0.0,0.0,0.0,0.0,0.0,0.0,0.0,0.0,0.0,0.0,0.0,0.0,0.0,0.0,0.0,0.0,0.0,0.0,0.0,0.0,0.0,0.0,0.0,0.0,0.0,0.0,0.0,0.0,0.0,0.0,0.0,0.0,0.0,0.0,0.0,0.0,0.0,0.0,0.0,0.0,0.0,0.0,0.0,0.0,7.4125,0.0,0.0,0.0,0.0,0.0,0.0,0.0,0.0,0.0,0.0,0.0,0.0,0.0,0.0,0.0,0.0,0.0,0.0,0.0,0.0,0.0,0.0,0.0,0.0,0.0,0.0,0.0,0.0,0.0,0.0,0.0,0.0,0.0,0.0,0.0,0.0,0.0,0.0,0.0,0.0,0.0,0.0,0.0,0.0,0.0,0.0,0.0,0.0,0.0,0.0,0.0,0.0,0.0,0.0,0.0,0.0,0.0,0.0,0.0,0.0,0.0,0.0,0.0,0.0,0.0,0.0,0.0,0.0,0.0,0.0,0.0,0.0,0.0,0.0,0.0,0.0,0.0,0.0,0.0,0.0,0.0,0.0,0.0,0.0,0.0,0.0,0.0,0.0,0.0,0.0,0.0,0.0,0.0,0.0,0.0,0.0,0.0,0.0,0.0,0.0,0.0,0.0,0.0,0.0,0.0,0.0,0.0,0.0,0.0,0.0,0.0,0.0,0.0,0.0,0.0,0.0,0.0,0.0,0.0,0.0,0.0,0.0,0.0,0.0,0.0,0.0,0.0,0.0,0.0,0.0,0.0,0.0,0.0,0.0,0.0,0.0,0.0,0.0,0.0,0.0,0.0,0.0,0.0,0.0,0.0,0.0,0.0,0.0,0.0,0.0,0.0,0.0,0.0,0.0,0.0,0.0,0.0,0.0,0.0,0.0,0.0,0.0,0.0,0.0,0.0,0.0,0.0,0.0,0.0,0.0,0.0,0.0,0.0,0.0,0.0,0.0,0.0,0.0,0.0,0.0,0.0,0.0,0.0,0.0,0.0,0.0,0.0,0.0,0.0,0.0,0.0,0.0,0.0,0.0,0.0,0.0,0.0,0.0,0.0,0.0,0.0,0.0,0.0,0.0,0.0,0.0,0.0,0.0,0.0,0.0,0.0,0.0,0.0,0.0,0.0,0.0,0.0,0.0,0.0,0.0,0.0,0.0,0.0,0.0,0.0,0.0,0.0,0.0,0.0,0.0,0.0,0.0,0.0,0.0,0.0,0.0,0.0,0.0,0.0,0.0,0.0,0.0,0.0,0.0,0.0,0.0,0.0,0.0,0.0,0.0,0.0,0.0,0.0,0.0,0.0,0.0,0.0,0.0,0.0,0.0,0.0,0.0,0.0,0.0,0.0,0.0,0.0,0.0,0.0,0.0,0.0,0.0,0.0,0.0,0.0,0.0,0.0,0.0,0.0,0.0,0.0,0.0,0.0,0.0,0.0,0.0,0.0,0.0,0.0,0.0,0.0,0.0,0.0,0.0,0.0,0.0,0.0,0.0,0.0,0.0,0.0,0.0,0.0,0.0,0.0,0.0,0.0,0.0,0.0,0.0,0.0,0.0,0.0,0.0,0.0,0.0,0.0,0.0,0.0,0.0,0.0,0.0,0.0,0.0,0.0,0.0,0.0,0.0,0.0,0.0,0.0,0.0,0.0,0.0,0.0,0.0,0.0,0.0,0.0,0.0,0.0,0.0,0.0,0.0,0.0,0.0,0.0,0.0,0.0,0.0,0.0,0.0,0.0,0.0,0.0,0.0,0.0,0.0,0.0,0.0,0.0,0.0,0.0,0.0,0.0,0.0,0.0,0.0,0.0,0.0,0.0,0.0,0.0,0.0,0.0,0.0,0.0,0.0,0.0,0.0,0.0,0.0,0.0,0.0,0.0,0.0,0.0,0.0,0.0,0.0,0.0,0.0,0.0,0.0,0.0,0.0,0.0,0.0,0.0,0.0,0.0,0.0,0.0,0.0,0.0,0.0,0.0,0.0,0.0,0.0,0.0,0.0,0.0,0.0,0.0,0.0,0.0,0.0,0.0,0.0,0.0,0.0,0.0,0.0,0.0,0.0,0.0,0.0,0.0,0.0,0.0,0.0,0.0,0.0,0.0,0.0,0.0,0.0,0.0,0.0,0.0,0.0,0.0,0.0,0.0,0.0,0.0,0.0,0.0,0.0,0.0,0.0,0.0,0.0,0.0,0.0,0.0,0.0,0.0,0.0,0.0,0.0,0.0,0.0,0.0,0.0,0.0,0.0,0.0,0.0,0.0,0.0,0.0,0.0,0.0,0.0,0.0,0.0,0.0,0.0,0.0,0.0,0.0,0.0,0.0,0.0,0.0,0.0,0.0,0.0,0.0,0.0,0.0,0.0,0.0,0.0,0.0,0.0,0.0,0.0,0.0,0.0,0.0,0.0,0.0,0.0,0.0,0.0,0.0,0.0,0.0,0.0,0.0,0.0,0.0,0.0,0.0,0.0,0.0,0.0,0.0,0.0,0.0,0.0,0.0,0.0,0.0,0.0,0.0,0.0,0.0,0.0,0.0,0.0,0.0,0.0,0.0,0.0,0.0,0.0,0.0,0.0,0.0,0.0,0.0,0.0,0.0,0.0,0.0,0.0,0.0,0.0,0.0,0.0,0.0,0.0,0.0,0.0,0.0,0.0,0.0,0.0,0.0,0.0,0.0,0.0,0.0,0.0,0.0,0.0,0.0,0.0,0.0,0.0,0.0,0.0,0.0,0.0,0.0,0.0,0.0,0.0,0.0,0.0,0.0,0.0,0.0,0.0,0.0,0.0,0.0,0.0,0.0,0.0,0.0,0.0,0.0,0.0,0.0,0.0,0.0,0.0,0.0,0.0,0.0,0.0,0.0,0.0,0.0,0.0,0.0,0.0,0.0,0.0,0.0,0.0,0.0,0.0,0.0,0.0,0.0,0.0,0.0,0.0,0.0,0.0,0.0,0.0,0.0,0.0,0.0,0.0,0.0,0.0,0.0,0.0,0.0,0.0,0.0,0.0,0.0,0.0,0.0,0.0,0.0,0.0,0.0,0.0,0.0,0.0,0.0,0.0,0.0,0.0,0.0,0.0,0.0,0.0,0.0,0.0,0.0,0.0,0.0,0.0,0.0,0.0,0.0,0.0,0.0,0.0,0.0,0.0,0.0,0.0,0.0,0.0,0.0,0.0,0.0,0.0,0.0,0.0,0.0,0.0,0.0,0.0,0.0,0.0,0.0,0.0,0.0,0.0,0.0,0.0,0.0,0.0,0.0,0.0,0.0,0.0,0.0,0.0,0.0,0.0,0.0,0.0,0.0,0.0,0.0,0.0,0.0,0.0,0.0,0.0,0.0,0.0,0.0,0.0,0.0,0.0,0.0,0.0,0.0,0.0,0.0,0.0,0.0,0.0,0.0,0.0,0.0,0.0,0.0,0.0,0.0,0.0,0.0,0.0,0.0,0.0,0.0,0.0,0.0,0.0,0.0,0.0,0.0,0.0,0.0,0.0,0.0,0.0,0.0,0.0,0.0,0.0,0.0,0.0,0.0,0.0,0.0,0.0,0.0,0.0,0.0,0.0,0.0,0.0,0.0,0.0,0.0,0.0,0.0,0.0,0.0,0.0,0.0,0.0,0.0,0.0,0.0,0.0,0.0,0.0,0.0,0.0,0.0,0.0,0.0,0.0,0.0,0.0,0.0,0.0,0.0,0.0,0.0,0.0,0.0,0.0,0.0,0.0,0.0,0.0,0.0,0.0,0.0,0.0,0.0,0.0,0.0,0.0,0.0,0.0,0.0,0.0,0.0,0.0,0.0,0.0,0.0,0.0,0.0,0.0,0.0,0.0,0.0,0.0,0.0,0.0,0.0,0.0,0.0,0.0,0.0,0.0,0.0,0.0,0.0,0.0,0.0,0.0,0.0,0.0,0.0,0.0,0.0,0.0,0.0,0.0,0.0,0.0,0.0,0.0,0.0,0.0,0.0,0.0,0.0,0.0,0.0,0.0,0.0,0.0,0.0,0.0,0.0,0.0,0.0,0.0,0.0,0.0,0.0,0.0,0.0,0.0,0.0,0.0,0.0,0.0,0.0,0.0,0.0,0.0,0.0,0.0,0.0,0.0,0.0,0.0,0.0,0.0,0.0,0.0,0.0,0.0,0.0,0.0,0.0,0.0,0.0,0.0,0.0,0.0,0.0,0.0,0.0,0.0,0.0,0.0,0.0,0.0,0.0,0.0,0.0,0.0,0.0,0.0,0.0,0.0,0.0,0.0,0.0,0.0,0.0,0.0,0.0,0.0,0.0,0.0,0.0,0.0,0.0,0.0,0.0,0.0,0.0,0.0,0.0,0.0,0.0,0.0,0.0,0.0,0.0,0.0,0.0,0.0,0.0,0.0,0.0,0.0,0.0,0.0,0.0,0.0,0.0,0.0,0.0,0.0,0.0,0.0,0.0,0.0,0.0,0.0,0.0,0.0,0.0,0.0,0.0,0.0,0.0,0.0,0.0,0.0,0.0,0.0,0.0,0.0,0.0,0.0,0.0,0.0,0.0,0.0,0.0,0.0]}],[{"header":{"parameterUnit":"kt","parameterCategory":2,"dx":1,"dy":1,"la1":29.587661999999998,"la2":31.0,"lo1":-88.76705300000003,"lo2":-86.6583820000003,"nx":115,"ny":88,"refTime":"2022-09-29T06:00:00:Z","depth":0,"parameterNumber":2,"parameterNumberName":"V-component_of_WINDS"},"data":[13.3009,13.7594,14.153,14.3675,14.4865,14.6959,14.7935,14.7935,14.7935,14.7935,14.7935,14.7935,14.7935,14.7935,14.7935,14.7935,14.7935,14.7935,14.7935,14.7935,14.7935,14.7935,14.7935,14.7935,14.7935,14.7935,14.7935,14.7935,14.7935,14.7935,14.7935,14.7935,14.7935,14.7935,14.7935,14.7935,14.7935,14.7742,14.7116,14.6537,14.6344,14.6149,14.629,14.6667,14.7277,14.8229,14.9668,15.1635,15.3786,15.6203,15.8735,16.0278,16.0776,16.0776,16.0776,16.0776,16.0776,16.0776,16.0776,16.0776,16.0922,16.1846,16.3262,16.4233,16.5409,16.7215,16.8728,16.9851,17.0729,17.1754,17.2591,17.2249,17.1615,17.0095,16.9119,16.8338,16.7361,16.7166,16.7166,16.7166,16.7166,16.7166,16.7166,16.7166,16.7166,16.7166,16.7166,16.7166,16.7166,16.7166,16.7166,16.7166,16.7166,16.7166,16.7166,16.7166,16.7166,16.7166,16.7166,16.7166,16.7166,16.7166,16.7166,16.7166,16.7166,16.7166,16.7166,16.7166,16.7166,16.7313,16.8094,16.8875,16.9948,17.1022,17.2005,13.0127,13.3951,14.03,14.3628,14.4865,14.6959,14.7935,14.7935,14.7935,14.7935,14.7935,14.7935,14.7935,14.7935,14.7935,14.7935,14.7935,14.7935,14.7935,14.7935,14.7935,14.7935,14.7935,14.7935,14.7935,14.7935,14.7935,14.7935,14.7935,14.7935,14.7935,14.7935,14.7935,14.7935,14.7935,14.7935,14.7935,14.7838,14.7646,14.7165,14.673,14.6344,14.6488,14.6775,14.7294,14.7949,14.9347,15.1429,15.4301,15.6567,15.8644,16.0034,16.0629,16.0776,16.0776,16.0776,16.0776,16.0776,16.0776,16.0776,16.0874,16.1459,16.3018,16.4091,16.4624,16.6239,16.8045,16.9167,16.9948,17.0876,17.2005,17.2249,17.1461,17.0534,16.9899,16.9265,16.8142,16.7166,16.7166,16.7166,16.7166,16.7166,16.7166,16.7166,16.7166,16.7166,16.7166,16.7166,16.7166,16.7166,16.7166,16.7166,16.7166,16.7166,16.7166,16.7166,16.7166,16.7166,16.7166,16.7166,16.7166,16.7166,16.7166,16.7166,16.7166,16.7166,16.7166,16.7166,16.7166,16.7166,16.7752,16.8289,16.946,17.0729,17.1705,12.8673,13.2187,13.8591,14.2245,14.4012,14.6039,14.7349,14.7886,14.7935,14.7935,14.7935,14.7935,14.7935,14.7935,14.7935,14.7935,14.7935,14.7935,14.7935,14.7935,14.7935,14.7935,14.7935,14.7935,14.7935,14.7935,14.7935,14.7935,14.7935,14.7935,14.7935,14.7935,14.7935,14.7935,14.7935,14.7935,14.7935,14.7935,14.7935,14.7694,14.7357,14.7261,14.7261,14.7553,14.8281,14.9201,15.0364,15.1723,15.4161,15.6114,15.778,15.911,16.0483,16.0727,16.0776,16.0776,16.0776,16.0776,16.0776,16.0776,16.0776,16.1166,16.2338,16.3457,16.4091,16.5111,16.6971,16.8142,16.8875,16.9899,17.1029,17.1461,17.0876,17.0144,16.9558,16.8923,16.7947,16.7215,16.7166,16.7166,16.7166,16.7166,16.7166,16.7166,16.7166,16.7166,16.7166,16.7166,16.7166,16.7166,16.7166,16.7166,16.7166,16.7166,16.7166,16.7166,16.7166,16.7166,16.7166,16.7166,16.7166,16.7166,16.7166,16.7166,16.7166,16.7166,16.7166,16.7166,16.7166,16.7166,16.7459,16.7801,16.9119,17.0436,17.1315,12.7113,13.0172,13.5796,14.0156,14.3109,14.5077,14.6623,14.7935,14.7935,14.7935,14.7935,14.7935,14.7935,14.7935,14.7935,14.7935,14.7935,14.7935,14.7935,14.7935,14.7935,14.7935,14.7935,14.7935,14.7935,14.7935,14.7935,14.7935,14.7935,14.7935,14.7935,14.7935,14.7935,14.7935,14.7935,14.7935,14.7935,14.7935,14.7935,14.7838,14.7742,14.7886,14.7983,14.818,14.8815,14.9693,15.0522,15.1839,15.3694,15.5257,15.6475,15.8186,16.019,16.0581,16.0727,16.0776,16.0776,16.0776,16.0776,16.0776,16.0776,16.1118,16.1752,16.2627,16.3506,16.4477,16.5551,16.6776,16.785,16.8875,16.9704,17.0046,17.0046,16.9363,16.8783,16.8045,16.7361,16.7215,16.7166,16.7166,16.7166,16.7166,16.7166,16.7166,16.7166,16.7166,16.7166,16.7166,16.7166,16.7166,16.7166,16.7166,16.7166,16.7166,16.7166,16.7166,16.7166,16.7166,16.7166,16.7166,16.7166,16.7166,16.7166,16.7166,16.7166,16.7166,16.7166,16.7166,16.7166,16.7166,16.741,16.7801,16.8923,17.0046,17.0876,12.46,12.7015,13.123,13.6788,14.268,14.4266,14.6,14.7838,14.7935,14.7935,14.7935,14.7935,14.7935,14.7935,14.7935,14.7935,14.7935,14.7935,14.7935,14.7935,14.7935,14.7935,14.7935,14.7935,14.7935,14.7935,14.7935,14.7935,14.7935,14.7935,14.7935,14.7935,14.7935,14.7935,14.7935,14.7935,14.7935,14.7935,14.7935,14.7935,14.7935,14.7935,14.7983,14.8082,14.8716,14.9595,15.0084,15.1401,15.3109,15.433,15.5599,15.7012,15.8723,15.9897,16.0532,16.0727,16.0776,16.0776,16.0776,16.0776,16.0776,16.1118,16.1651,16.2139,16.2627,16.3355,16.4428,16.5604,16.6922,16.8045,16.8679,16.907,16.907,16.8631,16.824,16.7801,16.7361,16.7215,16.7166,16.7166,16.7166,16.7166,16.7166,16.7166,16.7166,16.7166,16.7166,16.7166,16.7166,16.7166,16.7166,16.7166,16.7166,16.7166,16.7166,16.7166,16.7166,16.7166,16.7166,16.7166,16.7166,16.7166,16.7166,16.7166,16.7166,16.7166,16.7166,16.7166,16.7166,16.7166,16.7361,16.7801,16.8582,16.9607,17.0541,12.3858,12.5642,12.9062,13.3135,13.7738,14.192,14.4602,14.6146,14.7354,14.7935,14.7935,14.7935,14.7935,14.7935,14.7935,14.7935,14.7935,14.7935,14.7935,14.7935,14.7935,14.7935,14.7935,14.7935,14.7935,14.7935,14.7935,14.7935,14.7935,14.7935,14.7935,14.7935,14.7935,14.7935,14.7935,14.7935,14.7935,14.7935,14.7935,14.7935,14.7935,14.7935,14.7935,14.8032,14.8179,14.8912,14.9644,15.0718,15.2134,15.3206,15.516,15.6329,15.7014,15.882,15.9748,16.0678,16.0727,16.0776,16.0776,16.0776,16.0776,16.0874,16.1118,16.1411,16.1749,16.2432,16.3404,16.4477,16.5843,16.7014,16.7654,16.8094,16.7947,16.785,16.7752,16.766,16.741,16.7215,16.7166,16.7166,16.7166,16.7166,16.7166,16.7166,16.7166,16.7166,16.7166,16.7166,16.7166,16.7166,16.7166,16.7166,16.7166,16.7166,16.7166,16.7166,16.7166,16.7166,16.7166,16.7166,16.7166,16.7166,16.7166,16.7166,16.7166,16.7166,16.7166,16.7166,16.7166,16.7166,16.7313,16.7508,16.7996,16.9119,17.0095,12.2716,12.4007,12.7015,13.0082,13.3383,13.7974,14.1729,14.4363,14.6194,14.745,14.7935,14.7935,14.7935,14.7935,14.7935,14.7935,14.7935,14.7935,14.7935,14.7935,14.7935,14.7935,14.7935,14.7935,14.7935,14.7935,14.7935,14.7935,14.7935,14.7935,14.7935,14.7935,14.7935,14.7935,14.7935,14.7935,14.7935,14.7935,14.7935,14.7935,14.7935,14.7935,14.7935,14.7935,14.8081,14.8325,14.9009,14.9986,15.106,15.2133,15.3988,15.5451,15.5646,15.7207,15.8817,15.9943,16.0581,16.0727,16.0776,16.0776,16.0776,16.0776,16.0825,16.0776,16.1069,16.1801,16.2676,16.3648,16.4867,16.5892,16.6575,16.7215,16.7508,16.7508,16.7459,16.7361,16.7313,16.7166,16.7166,16.7166,16.7166,16.7166,16.7166,16.7166,16.7166,16.7166,16.7166,16.7166,16.7166,16.7166,16.7166,16.7166,16.7166,16.7166,16.7166,16.7166,16.7166,16.7166,16.7166,16.7166,16.7166,16.7166,16.7166,16.7166,16.7166,16.7166,16.7166,16.7166,16.7166,16.7166,16.7166,16.7166,16.7459,16.8679,16.9704,12.0426,12.1827,12.4903,12.8041,13.0755,13.252,13.6882,14.2967,14.4411,14.6098,14.7838,14.7886,14.7935,14.7935,14.7935,14.7935,14.7935,14.7935,14.7935,14.7935,14.7935,14.7935,14.7935,14.7935,14.7935,14.7935,14.7935,14.7935,14.7935,14.7935,14.7935,14.7935,14.7935,14.7935,14.7935,14.7935,14.7935,14.7935,14.7935,14.7935,14.7935,14.7935,14.7935,14.7935,14.7935,14.8081,14.8424,14.9156,15.0132,15.1109,15.228,15.3889,15.506,15.589,15.7256,15.8674,16.0044,16.0336,16.0532,16.0727,16.0727,16.0434,16.0629,16.0776,16.102,16.1456,16.2139,16.2969,16.3794,16.4721,16.5648,16.6282,16.6971,16.7166,16.7166,16.7166,16.7166,16.7166,16.7166,16.7166,16.7166,16.7166,16.7166,16.7166,16.7166,16.7166,16.7166,16.7166,16.7166,16.7166,16.7166,16.7166,16.7166,16.7166,16.7166,16.7166,16.7166,16.7166,16.7166,16.7166,16.7166,16.7166,16.7166,16.7166,16.7166,16.7166,16.7166,16.7166,16.7166,16.7166,16.7166,16.7166,16.7215,16.8338,16.9411,12.0258,11.9714,12.2766,12.5543,12.7846,12.9595,13.3215,13.8251,14.2879,14.5517,14.6768,14.7642,14.7935,14.7935,14.7935,14.7935,14.7935,14.7935,14.7935,14.7935,14.7935,14.7935,14.7935,14.7935,14.7935,14.7935,14.7935,14.7935,14.7935,14.7935,14.7935,14.7935,14.7935,14.7935,14.7935,14.7935,14.7935,14.7935,14.7935,14.7935,14.7935,14.7935,14.7935,14.7935,14.7935,14.7935,14.8228,14.8814,14.9693,15.0425,15.1548,15.3011,15.3889,15.4916,15.6282,15.6914,15.8039,15.8918,15.965,16.0092,16.0089,15.9845,16.0434,16.0678,16.0922,16.1166,16.1655,16.2188,16.2871,16.394,16.5111,16.5497,16.6282,16.7166,16.7166,16.7166,16.7166,16.7166,16.7166,16.7166,16.7166,16.7166,16.7166,16.7166,16.7166,16.7166,16.7166,16.7166,16.7166,16.7166,16.7166,16.7166,16.7166,16.7166,16.7166,16.7166,16.7166,16.7166,16.7166,16.7166,16.7166,16.7166,16.7166,16.7166,16.7166,16.7166,16.7166,16.7166,16.7166,16.7166,16.7166,16.7166,16.7166,16.8045,16.9167,12.0057,11.8959,12.1419,12.3263,12.4804,12.7162,13.039,13.449,13.9582,14.3501,14.5562,14.6816,14.7447,14.7886,14.7935,14.7935,14.7935,14.7935,14.7935,14.7935,14.7935,14.7935,14.7935,14.7935,14.7935,14.7935,14.7935,14.7935,14.7935,14.7935,14.7935,14.7935,14.7935,14.7935,14.7935,14.7935,14.7935,14.7935,14.7935,14.7935,14.7935,14.7935,14.7935,14.7935,14.7935,14.7935,14.8032,14.8423,14.9107,14.9791,15.0376,15.1597,15.2426,15.3548,15.4867,15.555,15.6378,15.7354,15.843,15.8967,15.9308,15.9455,15.9699,16.0239,16.0727,16.0776,16.1118,16.1651,16.2237,16.3018,16.4331,16.4819,16.5551,16.6434,16.7069,16.7069,16.7117,16.7117,16.7166,16.7166,16.7166,16.7166,16.7166,16.7166,16.7166,16.7166,16.7166,16.7166,16.7166,16.7166,16.7166,16.7166,16.7166,16.7166,16.7166,16.7166,16.7166,16.7166,16.7166,16.7166,16.7166,16.7166,16.7166,16.7166,16.7166,16.7166,16.7166,16.7166,16.7166,16.7166,16.7166,16.7166,16.7166,16.7801,16.8777,11.9714,11.9815,12.0727,12.1227,12.1727,12.4755,12.7846,13.1119,13.5402,13.9918,14.4362,14.5754,14.6671,14.7594,14.7886,14.7935,14.7935,14.7935,14.7935,14.7935,14.7935,14.7935,14.7935,14.7935,14.7935,14.7935,14.7935,14.7935,14.7935,14.7935,14.7935,14.7935,14.7935,14.7935,14.7935,14.7935,14.7935,14.7935,14.7935,14.7935,14.7935,14.7935,14.7935,14.7935,14.7935,14.7935,14.7935,14.8228,14.8521,14.9107,14.9742,15.0376,15.106,15.2182,15.3158,15.4037,15.5111,15.6134,15.7158,15.7256,15.7744,15.8381,15.9015,15.9552,16.0385,16.0776,16.0922,16.1118,16.1606,16.2139,16.3018,16.394,16.477,16.5599,16.6429,16.677,16.6868,16.6922,16.7117,16.7166,16.7166,16.7166,16.7166,16.7166,16.7166,16.7166,16.7166,16.7166,16.7166,16.7166,16.7166,16.7166,16.7166,16.7166,16.7166,16.7166,16.7166,16.7166,16.7166,16.7166,16.7166,16.7166,16.7166,16.7166,16.7166,16.7166,16.7166,16.7166,16.7166,16.7166,16.7166,16.7166,16.7166,16.7459,16.8094,11.9311,11.8706,11.9009,11.911,11.9563,12.2617,12.5346,12.8036,13.1984,13.6979,14.2528,14.4455,14.5757,14.6719,14.7447,14.7886,14.7935,14.7935,14.7935,14.7935,14.7935,14.7935,14.7935,14.7935,14.7935,14.7935,14.7935,14.7935,14.7935,14.7935,14.7935,14.7935,14.7935,14.7935,14.7935,14.7935,14.7935,14.7935,14.7935,14.7935,14.7935,14.7935,14.7935,14.7935,14.7935,14.7935,14.7935,14.7983,14.8179,14.8521,14.9058,14.9595,15.0181,15.0816,15.1597,15.2231,15.3012,15.4086,15.4671,15.4816,15.4914,15.677,15.7844,15.9015,15.965,16.0288,16.0727,16.0825,16.102,16.1505,16.2432,16.292,16.355,16.4477,16.5355,16.6136,16.6234,16.6575,16.677,16.7166,16.7166,16.7166,16.7166,16.7166,16.7166,16.7166,16.7166,16.7166,16.7166,16.7166,16.7166,16.7166,16.7166,16.7166,16.7166,16.7166,16.7166,16.7166,16.7166,16.7166,16.7166,16.7166,16.7166,16.7166,16.7166,16.7166,16.7166,16.7166,16.7166,16.7166,16.7166,16.7166,16.7166,16.7264,16.7752,11.9362,11.8706,11.7888,11.7796,11.8403,12.0769,12.3213,12.5888,12.9111,13.3709,13.8637,14.2058,14.4499,14.5942,14.7009,14.7447,14.7935,14.7935,14.7935,14.7935,14.7935,14.7935,14.7935,14.7935,14.7935,14.7935,14.7935,14.7935,14.7935,14.7935,14.7935,14.7935,14.7935,14.7935,14.7935,14.7935,14.7935,14.7935,14.7935,14.7935,14.7935,14.7935,14.7935,14.7935,14.7935,14.7935,14.7935,14.7935,14.7935,14.813,14.8521,14.8716,14.9009,14.9937,15.0376,15.0669,15.1548,15.2622,15.3304,15.3255,15.3157,15.5013,15.6917,15.8625,15.9162,16.0141,16.0629,16.0776,16.0825,16.102,16.1801,16.209,16.2432,16.3209,16.4087,16.4916,16.5453,16.5941,16.6282,16.6966,16.7166,16.7166,16.7166,16.7166,16.7166,16.7166,16.7166,16.7166,16.7166,16.7166,16.7166,16.7166,16.7166,16.7166,16.7166,16.7166,16.7166,16.7166,16.7166,16.7166,16.7166,16.7166,16.7166,16.7166,16.7166,16.7166,16.7166,16.7166,16.7166,16.7166,16.7166,16.7166,16.7166,16.7166,16.7459,11.9614,11.9403,11.737,11.6975,11.7796,11.905,12.1319,12.4112,12.6618,13.0079,13.443,13.8637,14.2577,14.5167,14.594,14.6862,14.774,14.7886,14.7935,14.7935,14.7935,14.7935,14.7935,14.7935,14.7935,14.7935,14.7935,14.7935,14.7935,14.7935,14.7935,14.7935,14.7935,14.7935,14.7935,14.7935,14.7935,14.7935,14.7935,14.7935,14.7935,14.7935,14.7935,14.7935,14.7935,14.7935,14.7935,14.7935,14.7935,14.7983,14.813,14.8179,14.8325,14.8961,14.9302,14.9595,15.0328,15.1255,15.184,15.2036,15.2328,15.3401,15.5109,15.7158,15.8478,15.9845,16.0629,16.0727,16.0776,16.0874,16.1118,16.1456,16.1846,16.2481,16.3115,16.3794,16.4331,16.4965,16.5941,16.6722,16.7117,16.7166,16.7166,16.7166,16.7166,16.7166,16.7166,16.7166,16.7166,16.7166,16.7166,16.7166,16.7166,16.7166,16.7166,16.7166,16.7166,16.7166,16.7166,16.7166,16.7166,16.7166,16.7166,16.7166,16.7166,16.7166,16.7166,16.7166,16.7166,16.7166,16.7166,16.7166,16.7166,16.7166,16.7313,11.8848,11.732,11.5855,11.4987,11.4731,11.6568,11.8757,12.1335,12.4854,12.8382,13.1903,13.5377,13.9156,14.2335,14.4878,14.6181,14.6668,14.7545,14.7886,14.7935,14.7935,14.7935,14.7935,14.7935,14.7935,14.7935,14.7935,14.7935,14.7935,14.7935,14.7935,14.7935,14.7935,14.7935,14.7935,14.7935,14.7935,14.7935,14.7935,14.7935,14.7935,14.7935,14.7935,14.7935,14.7935,14.7935,14.7935,14.7935,14.7935,14.7935,14.7935,14.7935,14.7983,14.8276,14.8472,14.8668,14.9302,15.0084,15.023,15.062,15.1206,15.228,15.3792,15.5256,15.7356,15.882,15.9601,16.0581,16.0678,16.0776,16.0825,16.0971,16.1313,16.1655,16.209,16.2578,16.3213,16.4331,16.5355,16.599,16.638,16.6727,16.6727,16.6922,16.7117,16.7117,16.7166,16.7166,16.7166,16.7166,16.7166,16.7166,16.7166,16.7166,16.7166,16.7166,16.7166,16.7166,16.7166,16.7166,16.7166,16.7166,16.7166,16.7166,16.7166,16.7166,16.7166,16.7166,16.7166,16.7166,16.7166,16.7166,16.7166,16.7166,16.7215,11.7381,11.5753,11.4628,11.386,11.3551,11.514,11.6873,11.8918,12.2425,12.5888,12.9062,13.2529,13.5851,13.9062,14.2669,14.478,14.6181,14.6862,14.7398,14.7837,14.7935,14.7935,14.7935,14.7935,14.7935,14.7935,14.7935,14.7935,14.7935,14.7935,14.7935,14.7935,14.7935,14.7935,14.7935,14.7935,14.7935,14.7935,14.7935,14.7935,14.7935,14.7935,14.7935,14.7935,14.7935,14.7935,14.7935,14.7935,14.7935,14.7935,14.7935,14.7935,14.7935,14.7935,14.7935,14.7983,14.8521,14.8814,14.8863,14.9302,15.0084,15.1109,15.223,15.3598,15.5743,15.7795,15.9406,15.9943,16.0434,16.0727,16.0776,16.0776,16.0776,16.0874,16.1362,16.1846,16.2627,16.3799,16.4526,16.5063,16.5551,16.5404,16.5409,16.5746,16.6185,16.6331,16.6526,16.677,16.702,16.7117,16.7166,16.7166,16.7166,16.7166,16.7166,16.7166,16.7166,16.7166,16.7166,16.7166,16.7166,16.7166,16.7166,16.7166,16.7166,16.7166,16.7166,16.7166,16.7166,16.7166,16.7166,16.7166,16.7166,16.7166,16.7166,11.5742,11.4628,11.3551,11.3037,11.3037,11.3962,11.5191,11.6771,11.9673,12.2823,12.6477,13.0031,13.3102,13.5899,13.9392,14.2527,14.4878,14.5989,14.6813,14.7496,14.7837,14.7935,14.7935,14.7935,14.7935,14.7935,14.7935,14.7935,14.7935,14.7935,14.7935,14.7935,14.7935,14.7935,14.7935,14.7935,14.7935,14.7935,14.7935,14.7935,14.7935,14.7935,14.7935,14.7935,14.7935,14.7935,14.7935,14.7935,14.7935,14.7935,14.7935,14.7935,14.7935,14.7935,14.7935,14.7935,14.7935,14.7983,14.8179,14.8668,14.94,15.0035,15.1304,15.2817,15.4574,15.6624,15.8527,15.8869,16.004,16.0727,16.0776,16.0776,16.0776,16.0825,16.0922,16.1362,16.1899,16.2774,16.3262,16.3799,16.4189,16.414,16.4087,16.4721,16.5307,16.5697,16.6038,16.6478,16.6873,16.7069,16.7166,16.7166,16.7166,16.7166,16.7166,16.7166,16.7166,16.7166,16.7166,16.7166,16.7166,16.7166,16.7166,16.7166,16.7166,16.7166,16.7166,16.7166,16.7166,16.7166,16.7166,16.7166,16.7166,16.7166,16.7166,11.4628,11.3551,11.2419,11.1438,11.092,11.1813,11.3397,11.5447,11.7796,12.1119,12.4946,12.7646,13.0706,13.3816,13.6182,13.8873,14.2519,14.5262,14.6133,14.6765,14.7398,14.7935,14.7935,14.7935,14.7935,14.7935,14.7935,14.7935,14.7935,14.7935,14.7935,14.7935,14.7935,14.7935,14.7935,14.7935,14.7935,14.7935,14.7935,14.7935,14.7935,14.7935,14.7935,14.7935,14.7935,14.7837,14.769,14.7641,14.769,14.7788,14.7886,14.7935,14.7935,14.7935,14.7935,14.7935,14.7935,14.7935,14.7983,14.8325,14.8668,14.9302,15.062,15.1792,15.3256,15.5062,15.7209,15.882,15.9943,16.0629,16.0727,16.0776,16.0776,16.0776,16.0776,16.0874,16.1261,16.17,16.2237,16.2432,16.2676,16.2822,16.292,16.3355,16.4087,16.4477,16.5111,16.5599,16.6234,16.6575,16.6922,16.702,16.7166,16.7166,16.7166,16.7166,16.7166,16.7166,16.7166,16.7166,16.7166,16.7166,16.7166,16.7166,16.7166,16.7166,16.7166,16.7166,16.7166,16.7166,16.7166,16.7166,16.7166,16.7166,16.7166,11.3808,11.3192,11.1541,11.0506,11.0246,11.1089,11.2316,11.3654,11.6262,11.9009,12.1777,12.4854,12.7992,13.0851,13.3341,13.7221,14.0997,14.3855,14.5157,14.6181,14.6813,14.7301,14.7935,14.7935,14.7935,14.7935,14.7935,14.7935,14.7935,14.7935,14.7935,14.7935,14.7935,14.7935,14.7935,14.7935,14.7935,14.7935,14.7935,14.7935,14.7935,14.7935,14.7496,14.7105,14.6618,14.6373,14.6324,14.6373,14.6617,14.696,14.7058,14.7398,14.7545,14.7496,14.7058,14.7155,14.7594,14.7935,14.7935,14.7983,14.813,14.8765,14.9693,15.0718,15.1987,15.3451,15.5208,15.7161,15.8723,16.0141,16.0678,16.0776,16.0776,16.0776,16.0776,16.0776,16.0922,16.1264,16.1411,16.1557,16.17,16.1797,16.1797,16.2285,16.292,16.3501,16.4087,16.477,16.5448,16.5941,16.6434,16.6727,16.7166,16.7166,16.7166,16.7166,16.7166,16.7166,16.7166,16.7166,16.7166,16.7166,16.7166,16.7166,16.7166,16.7166,16.7166,16.7166,16.7166,16.7166,16.7166,16.7166,16.7166,16.7166,16.7166,11.3449,11.314,11.0972,11.0038,11.0142,11.092,11.1399,11.2058,11.4526,11.6568,11.8403,12.2068,12.5051,12.7992,13.1431,13.5661,13.9532,14.2127,14.3799,14.5204,14.5839,14.6473,14.7252,14.7398,14.7496,14.7594,14.7545,14.7642,14.7837,14.7935,14.7935,14.7935,14.7935,14.7935,14.7935,14.7935,14.7935,14.7935,14.7935,14.7691,14.7545,14.7398,14.7056,14.5985,14.5351,14.5008,14.4861,14.4812,14.5009,14.5839,14.5936,14.6472,14.6765,14.6327,14.5985,14.6083,14.6618,14.7154,14.7398,14.7545,14.7642,14.813,14.9009,15.0035,15.0816,15.2036,15.3792,15.5648,15.7356,15.9015,16.0288,16.0236,16.0483,16.0776,16.0776,16.0776,16.0776,16.0874,16.0922,16.0971,16.0922,16.0922,16.1215,16.1606,16.1944,16.2285,16.2965,16.3745,16.4282,16.477,16.5458,16.6141,16.6825,16.6922,16.6922,16.6873,16.7117,16.7117,16.7166,16.7166,16.7166,16.7166,16.7166,16.7166,16.7166,16.7166,16.7166,16.7166,16.7166,16.7166,16.7166,16.7166,16.7166,16.7166,16.7166,11.4116,11.314,11.092,11.0038,11.0038,11.0246,11.0765,11.1451,11.2122,11.427,11.6975,11.9321,12.2681,12.6182,12.8965,13.2335,13.6417,13.9579,14.2265,14.3606,14.4333,14.5354,14.6133,14.6279,14.6231,14.6473,14.6571,14.7058,14.7594,14.7935,14.7935,14.7935,14.7935,14.7935,14.7935,14.7935,14.7837,14.7739,14.7641,14.7301,14.6618,14.6424,14.5935,14.5009,14.4424,14.4324,14.4229,14.4373,14.457,14.4861,14.4863,14.4912,14.5009,14.4863,14.491,14.4863,14.5156,14.5789,14.6374,14.6571,14.6912,14.7886,14.8814,14.9498,15.0084,15.1353,15.2914,15.4379,15.5745,15.7307,15.8967,15.9406,15.9845,16.0434,16.0727,16.0776,16.0776,16.0776,16.0776,16.0776,16.0776,16.0776,16.0922,16.102,16.0971,16.1166,16.1944,16.2676,16.2969,16.3408,16.4091,16.4775,16.5404,16.5697,16.5897,16.5941,16.6873,16.702,16.7166,16.7166,16.7166,16.7166,16.7166,16.7166,16.7166,16.7166,16.7166,16.7166,16.7166,16.7166,16.7166,16.7166,16.7166,16.7166,16.7166,11.3757,11.3089,11.092,11.0038,11.0038,11.0038,11.0298,11.0765,11.1334,11.2883,11.5038,11.7178,12.0125,12.3624,12.6477,12.9498,13.3192,13.6701,13.9672,14.189,14.27,14.3856,14.4871,14.4438,14.4438,14.5448,14.5839,14.6375,14.7058,14.7545,14.7837,14.7935,14.7935,14.7837,14.7935,14.7253,14.7058,14.696,14.6472,14.5935,14.5448,14.5351,14.4863,14.3983,14.3251,14.2862,14.2911,14.2911,14.3251,14.3495,14.3251,14.2862,14.2911,14.3446,14.3739,14.3934,14.4229,14.4912,14.54,14.5887,14.6375,14.696,14.8033,14.8765,14.9693,15.0279,15.1645,15.3158,15.4476,15.5941,15.7841,15.8525,15.9162,15.9796,16.0336,16.0727,16.0776,16.0776,16.0776,16.0776,16.0776,16.0776,16.0776,16.0825,16.0825,16.0874,16.1602,16.1899,16.2143,16.2481,16.3066,16.3554,16.4136,16.4624,16.4819,16.5458,16.6288,16.6581,16.6727,16.6868,16.6917,16.7014,16.7166,16.7166,16.7166,16.7166,16.7166,16.7166,16.7166,16.7166,16.7166,16.7166,16.7166,16.7166,16.7166,11.3551,11.314,11.092,11.0038,11.0038,11.0038,11.0038,11.0142,11.092,11.1851,11.3294,11.5293,11.7948,12.0827,12.4112,12.7064,13.0027,13.3146,13.6324,13.9674,14.0332,14.1752,14.2138,14.1986,14.2272,14.371,14.4965,14.5595,14.5936,14.6569,14.7252,14.7349,14.7154,14.7301,14.7301,14.6375,14.5887,14.5741,14.5107,14.4619,14.4375,14.4229,14.3787,14.2762,14.1887,14.1399,14.135,14.135,14.174,14.2179,14.1935,14.1456,14.1369,14.1904,14.2108,14.2114,14.2839,14.3608,14.4091,14.4772,14.5596,14.618,14.7155,14.7984,14.8961,14.94,15.0376,15.1645,15.3207,15.4574,15.6036,15.7502,15.843,15.9113,15.9848,16.0288,16.0385,16.0336,16.0483,16.0678,16.0776,16.0776,16.0776,16.0776,16.0776,16.0776,16.0971,16.1215,16.1508,16.185,16.2188,16.2481,16.3066,16.3501,16.3794,16.4384,16.5116,16.5502,16.6038,16.6429,16.6575,16.6673,16.7069,16.7166,16.7166,16.7166,16.7166,16.7166,16.7166,16.7166,16.7166,16.7166,16.7166,16.7166,16.7166,11.4167,11.314,11.0972,11.0038,11.0038,11.0038,11.0038,11.0038,11.0194,11.0868,11.2161,11.4116,11.6324,11.8706,12.1819,12.4502,12.682,12.9886,13.2524,13.4764,13.7173,13.8347,13.8398,13.9191,14.0605,14.1936,14.2926,14.3842,14.4668,14.5008,14.5544,14.6081,14.5544,14.5593,14.6034,14.5349,14.4814,14.4716,14.4375,14.3838,14.3302,14.3106,14.2762,14.1838,14.1399,14.135,14.135,14.135,14.1252,14.1496,14.1399,14.0647,14.0098,14.0057,13.9878,13.9415,13.9978,14.0927,14.1746,14.2837,14.4133,14.5549,14.6085,14.6862,14.7935,14.8863,14.9546,15.0132,15.1645,15.2767,15.3694,15.506,15.677,15.8332,15.8869,15.9162,15.9211,15.9211,15.9601,16.0581,16.0727,16.0776,16.0776,16.0776,16.0776,16.0776,16.0825,16.0971,16.1118,16.1362,16.1508,16.1651,16.1993,16.2481,16.2871,16.3359,16.3994,16.4477,16.5063,16.5502,16.5648,16.6087,16.6624,16.7166,16.7166,16.7166,16.7166,16.7166,16.7166,16.7166,16.7166,16.7166,16.7166,16.7166,16.7166,11.3346,11.2213,11.0661,11.0038,11.0038,11.0038,11.0038,11.0038,11.0038,11.0609,11.1554,11.2638,11.4538,11.733,11.9311,12.1419,12.3617,12.6673,12.8868,13.0658,13.325,13.4721,13.543,13.6607,13.8532,14.041,14.1691,14.2691,14.355,14.4373,14.4814,14.5107,14.4814,14.4861,14.5204,14.4275,14.3739,14.3641,14.3009,14.257,14.2082,14.2033,14.1691,14.1496,14.135,14.135,14.1301,14.1301,14.0667,13.9649,13.8996,13.8586,13.8176,13.7627,13.7029,13.6756,13.7606,13.8317,13.9079,14.0979,14.251,14.3477,14.5359,14.6231,14.7009,14.7935,14.9009,14.9351,15.023,15.1353,15.2426,15.3353,15.4914,15.6819,15.7209,15.7451,15.8085,15.8085,15.8381,15.882,15.9308,15.9699,15.9799,16.0385,16.0629,16.0727,16.0532,16.0581,16.0581,16.0776,16.0922,16.1069,16.1313,16.1456,16.1749,16.2383,16.3066,16.3262,16.375,16.414,16.438,16.4867,16.5502,16.6185,16.677,16.7166,16.7166,16.7166,16.7166,16.7166,16.7166,16.7166,16.7166,16.7166,16.7166,11.1708,11.0797,10.9805,10.9393,10.9341,10.9341,10.9393,10.9341,10.9303,10.9754,11.0692,11.1143,11.2815,11.5293,11.6629,11.8302,12.0376,12.3121,12.5199,12.6874,12.8281,12.9264,13.1357,13.3727,13.6372,13.867,14.0272,14.1499,14.2247,14.3111,14.3789,14.4131,14.3838,14.3789,14.3985,14.3153,14.2665,14.2423,14.1691,14.1399,14.1399,14.1399,14.135,14.1301,14.1008,14.0862,14.0911,14.0667,13.9642,13.7912,13.6732,13.6007,13.5605,13.469,13.3958,13.3869,13.4619,13.5462,13.64,13.8428,14.0324,14.1467,14.3575,14.531,14.6036,14.7009,14.7886,14.8911,14.94,15.0279,15.1792,15.2474,15.3549,15.5062,15.5207,15.5499,15.667,15.7061,15.7207,15.7451,15.8183,15.8476,15.8771,15.9211,15.965,15.965,15.965,15.965,15.9455,15.9503,15.9601,15.9894,16.0336,16.0434,16.0825,16.1456,16.1895,16.209,16.2334,16.2774,16.3213,16.355,16.4233,16.5111,16.5746,16.6282,16.6526,16.6868,16.7166,16.7166,16.7166,16.7166,16.7166,16.7166,16.7166,10.9255,10.9053,10.809,10.7733,10.7784,10.7784,10.786,10.7746,10.7746,10.8253,10.9042,10.9964,11.1066,11.2264,11.423,11.5724,11.7127,11.9247,12.1467,12.2391,12.1113,12.147,12.5708,13.037,13.3637,13.6043,13.8669,14.0067,14.0534,14.142,14.2033,14.2958,14.2277,14.2082,14.2762,14.1984,14.1545,14.1594,14.1447,14.135,14.135,14.1255,14.1252,14.1203,14.0325,13.9883,13.9642,13.8771,13.7822,13.6823,13.4993,13.3577,13.2618,13.1742,13.0583,12.9886,13.0767,13.2068,13.3745,13.5241,13.7351,14.0329,14.1518,14.2951,14.5312,14.6039,14.6769,14.7886,14.8814,14.984,15.0962,15.1792,15.2865,15.3988,15.3449,15.3889,15.5548,15.5989,15.6231,15.7012,15.7451,15.7549,15.7598,15.7695,15.789,15.789,15.7988,15.8037,15.8037,15.8281,15.8281,15.8625,15.9064,15.9455,16.0138,16.0772,16.0919,16.1065,16.1114,16.1505,16.1846,16.2285,16.2822,16.3843,16.4672,16.5209,16.5648,16.6136,16.6478,16.6678,16.6873,16.7117,16.7166,16.7166,16.7166,10.8646,10.8039,10.7671,10.7519,10.7519,10.7519,10.7519,10.7519,10.7519,10.7671,10.8012,10.8877,10.9899,11.0964,11.2186,11.3135,11.3837,11.5228,11.6275,11.6464,11.5274,11.6913,12.0246,12.4419,12.8509,13.3178,13.6558,13.8665,13.992,14.0844,14.1545,14.1838,14.1545,14.1594,14.1838,14.1545,14.135,14.135,14.135,14.135,14.1203,14.0667,14.0371,14.0179,13.9346,13.8858,13.8617,13.6476,13.5108,13.4529,13.2913,13.0835,12.8643,12.7125,12.6061,12.5963,12.6694,12.7798,12.9236,13.1787,13.4588,13.6698,13.9152,14.1383,14.3003,14.4742,14.5706,14.6768,14.7742,14.8912,14.984,15.0474,15.0764,15.1291,15.1445,15.2328,15.3549,15.4476,15.5111,15.5501,15.6087,15.6378,15.667,15.6914,15.7451,15.7451,15.7451,15.7451,15.7451,15.7402,15.7598,15.7841,15.8037,15.8576,15.9406,15.9748,15.9943,15.9943,15.9943,16.0187,16.0382,16.0772,16.1459,16.2379,16.3209,16.3696,16.4526,16.5111,16.5648,16.5843,16.599,16.6429,16.6917,16.6966,16.7069,10.7376,10.6721,10.6721,10.6671,10.6671,10.6721,10.6721,10.6671,10.6721,10.6873,10.7253,10.7923,10.8864,10.9861,11.0705,11.1285,11.1444,11.1551,11.1508,11.1212,11.1414,11.3098,11.5951,11.8774,12.3349,12.9287,13.379,13.7119,13.9221,14.0428,14.1074,14.1304,14.135,14.135,14.1399,14.135,14.135,14.135,14.135,14.1106,14.0764,14.0127,13.9639,13.9199,13.8223,13.7357,13.6703,13.441,13.2884,13.2221,13.0605,12.808,12.4976,12.2899,12.1921,12.1685,12.2255,12.3168,12.5019,12.7783,13.0382,13.3089,13.609,13.8634,14.0529,14.2251,14.3738,14.5181,14.5953,14.7117,14.8233,14.8768,14.9059,14.8953,14.964,15.0569,15.1986,15.2817,15.3354,15.3793,15.4427,15.5013,15.5452,15.5892,15.628,15.628,15.6329,15.638,15.6378,15.6231,15.6524,15.6914,15.7061,15.7305,15.8085,15.8674,15.872,15.872,15.8723,15.8817,15.8918,15.9211,15.9992,16.0769,16.1553,16.2285,16.3164,16.3847,16.4482,16.477,16.4965,16.5551,16.6331,16.6673,16.6825,10.5039,10.5115,10.5001,10.5153,10.5229,10.5229,10.5027,10.5141,10.5153,10.5658,10.638,10.7215,10.8012,10.8785,10.9776,11.0203,11.0117,10.8955,10.8303,10.8133,10.751,10.932,11.2732,11.5031,11.8794,12.3737,13.0375,13.5196,13.8245,13.9455,14.0475,14.1166,14.1258,14.135,14.135,14.135,14.135,14.135,14.135,14.0813,13.9932,13.9736,13.9151,13.8219,13.7105,13.5642,13.3698,13.2666,13.1234,12.9482,12.817,12.539,12.1364,11.9486,11.8445,11.7597,11.7545,11.8968,12.1456,12.3043,12.6138,12.9714,13.2715,13.5291,13.7787,13.935,14.0824,14.2447,14.3213,14.4122,14.5944,14.6624,14.7063,14.784,14.7793,14.8815,15.0375,15.1011,15.145,15.2377,15.267,15.3158,15.3939,15.4331,15.4427,15.4476,15.4525,15.4574,15.4818,15.4867,15.4964,15.5599,15.5941,15.628,15.6914,15.7451,15.7402,15.7451,15.7305,15.7451,15.7549,15.8037,15.8866,15.9208,15.994,16.0528,16.1358,16.2481,16.3115,16.3799,16.3892,16.4233,16.4965,16.5551,16.5892,10.4914,10.4914,10.4914,10.4914,10.4914,10.4914,10.4914,10.4914,10.4963,10.5115,10.5608,10.6911,10.7633,10.8088,10.9379,10.9789,10.9144,10.8621,10.7747,10.6944,10.7249,10.8183,10.9822,11.1708,11.5022,11.9566,12.4454,13.0266,13.5949,13.8806,14.0059,14.0428,14.1074,14.135,14.135,14.135,14.135,14.135,14.135,14.0813,13.9789,13.9053,13.8219,13.7056,13.5456,13.3617,13.1636,13.0697,12.9256,12.7309,12.4977,12.2389,11.9349,11.6457,11.4306,11.344,11.3825,11.5006,11.6783,11.9668,12.2577,12.5523,12.8855,13.1853,13.4094,13.5979,13.7446,13.8773,13.9624,14.0953,14.2332,14.1606,14.1123,14.2612,14.4604,14.6682,14.862,14.9547,15.0327,15.1157,15.1499,15.1694,15.1987,15.2085,15.2475,15.311,15.3158,15.3549,15.4135,15.438,15.4525,15.472,15.4769,15.5208,15.5743,15.506,15.4572,15.5256,15.5452,15.6085,15.6524,15.7207,15.7744,15.789,15.8281,15.8769,15.9699,16.0971,16.1846,16.2627,16.2871,16.3111,16.3843,16.4331,16.4916,10.4914,10.4914,10.4914,10.4914,10.4914,10.4914,10.4914,10.4914,10.4914,10.4914,10.5229,10.6456,10.7215,10.7595,10.8923,10.9176,10.872,10.8682,10.7961,10.6936,10.7171,10.7405,10.7719,10.9699,11.2502,11.6072,12.0629,12.7002,13.4391,13.7545,13.9176,13.992,14.089,14.135,14.135,14.135,14.135,14.135,14.135,14.0618,13.9248,13.8516,13.695,13.4563,13.2861,13.11,12.9166,12.7846,12.6075,12.3792,12.118,11.8685,11.6294,11.3116,11.0676,10.9423,10.9761,11.0941,11.2804,11.5545,11.8443,12.1408,12.4829,12.7676,12.9891,13.1762,13.3357,13.4527,13.5505,13.5722,13.6325,13.5659,13.5903,13.8678,14.1193,14.3453,14.5668,14.7118,14.8135,14.9157,15.0084,15.062,15.1011,15.106,15.1304,15.184,15.1986,15.2279,15.2963,15.3159,15.3062,15.311,15.3158,15.3403,15.4135,15.2817,15.228,15.3158,15.3647,15.4086,15.4281,15.4719,15.5695,15.5841,15.667,15.7305,15.8232,15.9406,15.9845,16.0675,16.1651,16.209,16.3115,16.3262,16.3794,10.4914,10.4914,10.4914,10.4914,10.4914,10.4914,10.4914,10.4914,10.4914,10.4914,10.5077,10.5962,10.6683,10.7316,10.8075,10.8568,10.8606,10.8568,10.8075,10.7291,10.6708,10.6409,10.6646,10.8525,11.0633,11.3259,11.8553,12.5146,13.25,13.5431,13.7779,13.9735,14.0657,14.1209,14.135,14.135,14.135,14.135,14.135,14.0325,13.8426,13.7995,13.5493,13.116,12.9664,12.8125,12.5986,12.4209,12.1889,11.8857,11.6829,11.46,11.1899,10.9635,10.758,10.5908,10.5629,10.6894,10.9384,11.0894,11.3494,11.7714,12.0298,12.2799,12.5546,12.7047,12.8475,13.0177,12.9936,12.9151,12.8101,12.9294,13.1941,13.5627,13.7553,13.9864,14.2588,14.4076,14.5083,14.614,14.7791,14.9156,15.0425,15.0865,15.0767,15.0913,15.0962,15.1109,15.1304,15.1255,15.1304,15.1304,15.1304,15.106,15.1011,15.0962,15.1011,15.1548,15.1889,15.145,15.1499,15.1841,15.2963,15.3939,15.4867,15.5792,15.6866,15.7598,15.8037,15.8918,15.9845,16.0675,16.1505,16.1993,16.2627,10.4914,10.4914,10.4914,10.4914,10.4914,10.4914,10.4914,10.4914,10.4914,10.4914,10.5077,10.5924,10.6076,10.5836,10.657,10.7291,10.7822,10.786,10.7405,10.6696,10.643,10.6359,10.6536,10.7149,10.8867,11.1838,11.5491,11.9991,12.5198,13.1281,13.5619,13.7638,13.9455,14.0659,14.1258,14.135,14.135,14.135,14.135,13.9957,13.7384,13.5732,13.2866,12.8901,12.7581,12.5209,12.1187,12.0461,11.8501,11.4936,11.287,11.1066,10.9507,10.6802,10.5033,10.4495,10.4409,10.4813,10.5624,10.735,10.9831,11.304,11.531,11.7733,12.0399,12.2403,12.3591,12.3967,12.2183,12.1302,12.1338,12.3672,12.6703,13.0117,13.4184,13.7238,13.9531,14.216,14.359,14.3922,14.5314,14.6327,14.7351,14.8278,14.9058,14.9644,14.9888,15.0084,15.0816,15.0913,15.0962,15.1011,15.0962,15.0669,15.0084,14.9693,15.0328,15.0669,15.0816,15.0718,15.1109,15.1206,15.1792,15.2134,15.2914,15.3792,15.4867,15.589,15.6573,15.75,15.8085,15.8573,15.9845,15.9943,16.0772,10.3901,10.3901,10.3939,10.3901,10.3939,10.3939,10.3939,10.3939,10.3939,10.3939,10.4064,10.4481,10.4481,10.4015,10.5191,10.5988,10.6481,10.7164,10.7063,10.6392,10.6266,10.616,10.5981,10.63,10.7395,10.9426,11.2763,11.632,12.0533,12.6726,13.2262,13.6137,13.8806,14.0244,14.0751,14.1166,14.135,14.135,14.0982,13.8857,13.5336,13.3448,13.0442,12.6351,12.4249,12.1505,11.8156,11.6174,11.3959,11.0987,10.8894,10.7193,10.582,10.3982,10.2792,10.2353,10.2353,10.2659,10.3484,10.467,10.6643,10.9432,11.1137,11.3304,11.6093,11.7822,11.792,11.6549,11.5353,11.5288,11.683,11.9211,12.2019,12.5297,12.9185,13.289,13.5738,13.8732,14.1203,14.2385,14.3337,14.4393,14.5355,14.613,14.6812,14.7349,14.7936,14.8229,14.8864,14.9449,14.9742,14.9693,14.8912,14.8229,14.7594,14.7497,14.7692,14.8278,14.8717,14.9059,14.9107,14.9596,15.0376,15.0425,15.1401,15.2329,15.2963,15.3647,15.4476,15.5745,15.6231,15.6622,15.8085,15.8671,15.9162,10.2507,10.2469,10.2545,10.2469,10.2545,10.2459,10.2545,10.2497,10.2469,10.2393,10.2279,10.2269,10.2345,10.2583,10.3977,10.4774,10.5001,10.6456,10.6759,10.6152,10.619,10.5772,10.515,10.5904,10.641,10.7117,11.0552,11.3913,11.6975,12.2037,12.7796,13.4154,13.7919,13.9549,13.992,14.0611,14.0979,14.1025,13.9918,13.7058,13.2344,13.0768,12.7852,12.299,12.0027,11.7419,11.5067,11.1732,10.8918,10.7019,10.5178,10.3344,10.1838,10.1377,10.0906,10.0049,9.9954,10.0646,10.2321,10.2532,10.3783,10.6382,10.7579,10.9292,11.1883,11.305,11.1901,10.957,10.9871,11.1311,11.303,11.5132,11.7662,12.0591,12.3964,12.7365,13.1156,13.4624,13.7691,14.0569,14.1761,14.3197,14.3999,14.4474,14.4619,14.5154,14.579,14.6327,14.6473,14.7106,14.7594,14.7301,14.6081,14.5008,14.4959,14.4668,14.5154,14.5009,14.5546,14.618,14.6668,14.7741,14.9059,14.8815,14.9888,15.062,15.0913,15.1109,15.1938,15.3598,15.4135,15.4574,15.6475,15.7695,15.799,10.2469,10.2469,10.2469,10.2469,10.2469,10.2469,10.2469,10.2469,10.2383,10.17,10.0675,10.1254,10.1568,10.1596,10.2545,10.3418,10.4037,10.4455,10.4823,10.5229,10.5267,10.5153,10.5013,10.52,10.5756,10.6772,10.8982,11.1374,11.4102,11.8797,12.3267,12.7466,13.3448,13.7265,13.8712,13.8944,13.9084,13.8898,13.6466,13.3461,13.0022,12.6643,12.304,11.9088,11.5997,11.2803,10.9467,10.7709,10.6009,10.4071,10.2806,10.1948,10.1471,10.0718,10.0152,9.9954,9.9907,10.0125,10.0513,10.0599,10.151,10.3601,10.4051,10.5004,10.6902,10.6889,10.6437,10.63,10.6565,10.7003,10.7849,11.0018,11.2498,11.4885,11.9086,12.2974,12.6295,13.0645,13.407,13.5666,13.8621,14.0982,14.208,14.2884,14.3643,14.4326,14.4814,14.496,14.496,14.5156,14.5349,14.5252,14.5008,14.4568,14.4666,14.4568,14.452,14.4666,14.4814,14.4912,14.5058,14.5302,14.5985,14.6961,14.7887,14.8765,14.9644,15.0328,15.1011,15.1499,15.1889,15.228,15.3645,15.5256,15.6136,10.0371,9.9939,9.9939,10.0227,10.0659,10.0622,10.0899,10.1083,9.9274,9.7915,9.7106,9.7524,9.7946,9.8434,9.9943,10.1126,10.21,10.2811,10.3418,10.3787,10.3787,10.3787,10.3825,10.4254,10.4701,10.5368,10.7212,10.9427,11.2083,11.5632,11.9484,12.3602,12.8623,13.326,13.6889,13.7966,13.8199,13.7591,13.331,12.9369,12.5922,12.2799,11.9387,11.5668,11.2669,10.9682,10.6791,10.4549,10.2892,10.1818,10.0453,9.9855,10.02,9.9714,9.9537,9.9869,9.9907,9.9907,9.9907,9.9907,10.0381,10.1416,10.1928,10.2452,10.2953,10.2576,10.2692,10.3502,10.358,10.3926,10.4832,10.6279,10.8289,11.0736,11.4179,11.797,12.1863,12.5912,12.9408,13.2254,13.5286,13.7954,13.9829,14.101,14.201,14.2913,14.3106,14.335,14.3836,14.3448,14.3106,14.3106,14.3106,14.3106,14.3058,14.3106,14.3153,14.3106,14.3545,14.3885,14.3934,14.4422,14.4814,14.54,14.5887,14.6666,14.7105,14.8131,14.8961,14.94,14.9937,15.0718,15.1645,15.2768,15.3451,9.6933,9.6343,9.6343,9.6816,9.7592,9.7734,9.8246,9.8725,9.483,9.3062,9.3091,9.3014,9.3401,9.4199,9.6579,9.8142,9.9085,10.0995,10.1972,10.2038,10.2297,10.2469,10.2507,10.3239,10.3581,10.3755,10.5335,10.7543,11.0039,11.2663,11.6127,12.0506,12.4003,12.8575,13.3918,13.6466,13.67,13.4868,12.9445,12.4806,12.1151,11.882,11.5969,11.2431,10.9486,10.7165,10.5322,10.1973,10.0098,10.006,9.8498,9.7922,9.8521,9.8445,9.8664,9.9309,9.9271,9.9347,9.9537,9.9575,9.9689,9.9926,10.0765,10.0791,9.9707,9.9802,10.022,10.0998,10.1208,10.1713,10.3177,10.359,10.4874,10.7532,10.9749,11.2757,11.7228,12.0858,12.4555,12.8775,13.1696,13.4441,13.6943,13.8628,13.9852,14.0693,14.1163,14.1545,14.2323,14.1691,14.1008,14.1057,14.1203,14.135,14.1545,14.135,14.1545,14.135,14.2228,14.2811,14.2811,14.335,14.3936,14.4326,14.4424,14.4617,14.4814,14.54,14.6327,14.7252,14.8033,14.9058,15.023,15.0132,15.0181,9.2172,9.315,9.315,9.3016,9.2841,9.3686,9.4351,9.4601,9.1506,0.0,0.0,9.0156,9.0238,9.0529,9.2288,9.3626,9.4685,9.7771,9.9569,10.0292,10.1741,10.2469,10.2469,10.2621,10.2697,10.2746,10.3829,10.4757,10.5395,10.9765,11.2849,11.4878,12.0008,12.4432,12.7954,13.1592,13.0895,12.5932,12.2218,11.9289,11.6924,11.3973,11.1005,10.8216,10.5973,10.4007,10.2305,10.0131,9.9028,9.9028,9.809,9.7656,9.777,9.7078,9.6729,9.6843,9.6288,9.6562,9.7837,9.8036,9.8559,9.984,10.0105,9.9535,9.8112,9.9157,9.9992,10.0144,10.0144,10.0277,10.0571,10.1375,10.2401,10.3753,10.6364,10.8972,11.1713,11.5785,11.9909,12.3346,12.7491,13.109,13.3267,13.5664,13.7784,13.874,13.9577,14.0374,14.1106,14.0032,13.9109,13.9889,14.0569,14.1203,14.1301,14.1203,14.135,14.1155,14.1399,14.1643,14.1643,14.1789,14.2277,14.2958,14.3299,14.3592,14.4326,14.457,14.496,14.5154,14.5398,14.6033,14.774,14.7009,14.6472,8.6239,8.6441,8.6427,8.6841,0.0,8.8624,8.7981,8.6027,8.4598,8.4005,8.3995,8.3437,8.3744,8.4762,8.6407,8.8361,9.0666,9.3332,9.5198,9.649,9.8816,9.9858,9.9943,10.1204,10.1824,10.1862,10.2772,10.3532,10.411,10.6469,10.8934,11.1528,11.5401,11.9379,12.3258,12.6379,12.5106,11.9628,11.7022,11.4756,11.2729,11.0199,10.7807,10.559,10.4165,0.0,0.0,0.0,0.0,0.0,0.0,0.0,0.0,0.0,0.0,9.5605,9.3667,9.287,9.3661,9.3699,9.4269,9.54,9.6273,9.5939,9.3933,9.5635,9.7298,9.8597,9.8749,9.9043,9.9802,10.0341,10.106,10.2057,10.3455,10.5508,10.8413,11.1385,11.4669,11.8582,12.2507,12.635,12.9654,13.2362,13.4715,13.7224,13.8005,13.8607,13.9405,13.8448,13.7645,13.8228,13.9129,13.9785,13.974,13.9736,13.9736,13.9736,13.9736,13.9736,13.9736,13.9785,13.9932,14.042,14.0615,14.0713,14.1298,14.1835,14.2326,14.2814,14.3446,14.4129,14.4275,14.3739,14.3594,7.9717,7.9254,7.9238,8.0173,8.1664,8.1506,7.9593,7.6554,7.673,7.6818,7.6719,7.5927,7.6451,7.802,7.9881,8.2378,8.5273,8.7863,9.0042,9.1902,9.4748,9.6286,9.6892,9.9098,10.0177,10.0214,10.1239,10.212,10.2986,10.3523,10.5437,10.8633,11.0933,11.4327,11.8751,0.0,0.0,0.0,11.2565,11.0677,10.8875,10.7145,10.5405,10.3543,10.285,0.0,10.0001,9.9166,9.8749,9.8711,9.8036,0.0,0.0,0.0,0.0,0.0,0.0,0.0,0.0,0.0,0.0,0.0,9.051,8.9979,8.8574,9.0624,9.3168,9.587,9.6395,9.7192,9.8588,9.8892,9.9456,10.0557,10.0876,10.2339,10.5702,10.7458,10.9877,11.4225,11.7439,12.1162,12.5483,12.8357,13.1243,13.4553,13.5699,13.6053,13.6111,13.5528,13.5503,13.6017,13.6661,13.7347,13.7586,13.7867,13.8055,13.7995,13.804,13.8268,13.8317,13.8317,13.8268,13.8366,13.8219,13.8317,13.8317,13.8858,13.9834,14.0615,14.1445,14.1786,14.0713,14.0468,14.1106,7.2916,7.4094,7.4047,7.4433,7.4542,7.0108,6.833,6.8637,6.9546,6.9897,6.9897,6.9768,6.9842,7.0285,7.3243,7.4884,7.5657,8.0995,8.4738,8.7093,8.9862,9.2268,9.4354,9.5613,9.6202,9.6297,9.8091,9.9128,9.9309,10.1751,10.3259,10.3891,10.7275,11.0677,11.3667,11.1554,11.0034,10.9375,10.8035,10.6867,10.5908,10.4826,10.339,10.1722,10.1531,10.098,9.9954,9.9157,9.8749,9.8749,9.7989,9.7656,9.7656,9.3889,9.108,0.0,8.5043,0.0,0.0,0.0,0.0,0.0,0.0,0.0,0.0,8.4625,8.7435,9.07,9.2338,9.3553,9.4421,9.5225,9.6341,9.7878,9.8768,10.0029,10.2003,10.4667,10.7216,10.9459,11.3094,11.6627,11.9913,12.3388,12.6724,12.9889,13.1476,13.1442,12.9746,12.9861,13.0937,13.2591,13.3631,13.4344,13.5157,13.6174,13.6716,13.6903,13.7205,13.8219,13.7886,13.7934,13.8077,13.8028,13.7792,13.7979,13.8219,13.8175,13.8321,13.8419,13.8475,13.828,13.7495,13.7251,13.8268,6.6769,6.7339,6.7367,6.6573,6.521,6.3246,6.3219,6.4585,6.5092,6.5266,6.5281,6.5266,6.5064,6.4863,6.625,6.7854,6.9859,7.3755,7.7471,8.0874,8.4717,8.766,8.9752,9.1794,9.3066,9.3812,9.5253,9.6258,9.6963,9.9299,10.0999,10.2019,10.4231,10.5499,10.5811,10.5499,10.5807,10.6735,10.5695,10.4686,10.3719,10.2874,10.2062,10.1302,10.0799,10.0296,9.9916,9.9575,9.9385,9.9385,9.909,9.8065,9.6212,9.2143,8.8308,0.0,0.0,0.0,0.0,0.0,0.0,0.0,0.0,0.0,0.0,0.0,8.0904,8.2917,8.6258,8.9029,9.0857,9.1725,9.2566,9.3282,9.4135,9.5388,9.7154,9.9732,10.2165,10.4119,10.7652,11.1245,11.4723,11.8005,12.1531,12.5552,12.4964,12.3967,12.3871,12.5038,12.6302,12.721,12.866,12.9846,13.0224,13.1121,13.1747,13.1836,13.2544,13.3162,13.3162,13.3162,13.3118,13.3162,13.3162,13.3295,13.3827,13.3915,13.4285,13.4938,13.4303,13.3523,13.3924,13.4493,13.5642,6.1603,6.1415,6.0757,5.9276,5.7398,5.8023,5.9114,6.0502,6.0655,6.0612,6.0517,6.0517,6.0062,5.9347,5.9735,6.1367,6.3943,6.6761,7.0343,7.4693,7.8723,8.1879,8.4408,8.7096,8.8828,8.9772,9.1472,9.2909,9.3969,9.5848,9.7736,9.9524,9.9765,9.9301,9.8357,10.0283,10.2142,10.4061,10.3792,10.3253,10.2431,10.1672,10.114,10.0951,10.0258,9.9907,9.9907,9.9907,9.9907,9.9916,9.9157,9.7412,9.4318,8.9354,0.0,0.0,0.0,0.0,0.0,0.0,0.0,0.0,0.0,6.6617,6.9353,0.0,7.4375,0.0,8.0297,8.4056,8.6261,8.7321,0.0,0.0,8.8596,8.9679,9.1742,9.3822,9.6027,9.8256,10.1707,10.5492,10.9446,11.2641,11.5786,11.9032,11.7469,11.6531,11.8224,12.0284,12.1809,12.2212,12.3777,12.4934,12.5073,12.5553,12.6222,12.6613,12.7712,12.8406,12.8406,12.8406,12.845,12.8406,12.8581,12.902,12.9771,12.9973,13.0474,13.0565,12.9171,12.8191,13.0112,13.1194,13.242,5.8208,5.7547,5.4927,5.3753,5.3554,5.4061,5.4376,5.4591,5.5155,5.5076,5.4539,5.4498,5.3897,5.2944,5.4353,0.0,5.644,5.9943,6.4326,6.9268,7.1092,7.435,7.863,8.0976,8.2051,8.225,8.6137,8.852,8.9592,9.1065,9.2803,9.4736,9.2394,9.1774,9.2992,9.5495,9.7944,10.0315,10.1806,10.2518,10.2431,10.1672,10.0875,10.0068,9.9954,9.9907,9.9907,9.9907,9.9907,9.9793,9.7086,9.4304,9.1641,0.0,0.0,0.0,0.0,0.0,0.0,0.0,0.0,0.0,0.0,0.0,0.0,0.0,0.0,0.0,7.521,0.0,7.9425,8.1019,0.0,0.0,0.0,8.3176,8.5623,8.6879,8.8773,9.1944,0.0,0.0,10.3729,10.7379,10.9449,10.8859,11.0027,11.1323,11.2302,11.4976,11.7102,11.7867,11.97,12.0912,12.0688,12.0733,12.1361,12.2967,12.5332,12.6205,12.6296,12.634,12.6478,12.6296,12.7227,12.7705,12.7839,12.8177,12.8096,12.4526,12.3673,12.4123,12.5978,12.6754,12.7769,5.3506,5.0301,4.921,4.855,4.8322,4.9134,4.9514,4.9565,5.0135,5.0021,4.9552,4.9934,4.9483,4.8542,4.955,0.0,0.0,0.0,5.9832,6.4994,6.7773,7.1253,7.5076,7.6652,7.7707,7.8409,8.1374,8.3327,8.4364,8.7453,8.6996,8.3134,0.0,0.0,8.7884,9.193,9.545,9.8322,10.0049,10.1216,10.1672,10.0913,10.0258,9.9907,9.9907,9.9907,9.9907,9.9907,9.9006,9.7048,9.4366,9.0121,0.0,0.0,0.0,0.0,0.0,0.0,0.0,0.0,0.0,0.0,0.0,5.7114,0.0,0.0,0.0,0.0,6.7888,7.0886,7.3274,7.4982,0.0,0.0,0.0,0.0,0.0,0.0,0.0,8.4604,9.0102,9.5177,9.8882,10.0893,10.2751,10.4679,10.562,10.6828,10.8907,0.0,11.2171,11.3121,11.3942,11.4398,11.4398,11.3966,11.4065,11.5481,11.7687,11.9546,12.0709,12.0933,12.0933,12.0977,12.1242,12.1857,12.3041,12.2076,12.0615,11.9143,11.9225,12.0278,12.217,12.3076,12.4206,4.7959,0.0,0.0,0.0,0.0,4.3889,4.4314,4.4542,4.5019,4.515,4.4992,4.5315,0.0,0.0,0.0,0.0,0.0,0.0,5.6181,6.0602,6.4963,6.8488,7.1188,7.2216,7.3006,7.3657,7.5336,7.6713,7.788,7.9509,7.7485,7.2134,0.0,0.0,0.0,0.0,9.2609,9.6195,9.8688,10.022,10.0875,10.0258,9.9907,9.9907,9.9907,9.9907,9.9869,9.9006,9.7024,9.3736,8.9971,0.0,0.0,0.0,0.0,0.0,0.0,0.0,0.0,0.0,0.0,0.0,0.0,0.0,0.0,0.0,0.0,0.0,0.0,0.0,6.7579,6.9624,7.0463,0.0,0.0,0.0,0.0,0.0,0.0,0.0,0.0,0.0,9.1308,9.397,9.7031,0.0,0.0,10.3528,10.5554,10.6803,10.7839,10.8568,10.8692,0.0,10.8698,10.7825,10.7595,10.9073,11.0694,11.249,11.4335,11.4424,11.4291,11.4291,11.4907,11.5125,11.4667,11.2754,11.1799,11.2409,11.3019,11.4104,11.5917,11.7201,11.831,0.0,0.0,0.0,0.0,0.0,0.0,0.0,0.0,3.9851,4.0362,0.0,4.0443,0.0,0.0,0.0,0.0,4.4064,4.9536,0.0,0.0,6.2026,6.5383,6.6156,6.7138,6.7438,6.7017,6.7452,6.8337,6.9368,6.5322,0.0,0.0,0.0,0.0,0.0,0.0,8.8895,9.3753,9.782,9.9907,9.9992,9.9954,9.9907,9.9907,9.9907,9.9831,9.9717,9.6805,9.3692,9.0394,8.3364,0.0,0.0,0.0,0.0,0.0,0.0,0.0,0.0,0.0,0.0,0.0,0.0,0.0,0.0,0.0,0.0,0.0,0.0,0.0,0.0,6.5021,0.0,0.0,0.0,0.0,0.0,0.0,0.0,0.0,0.0,0.0,7.9989,8.6707,9.2595,9.5011,0.0,0.0,0.0,0.0,10.4601,10.4647,10.4721,10.4805,10.4805,10.3529,10.3366,10.5806,0.0,0.0,10.7628,10.7378,10.6835,10.6878,10.8895,10.8636,10.1881,10.0668,10.1378,10.3601,10.4274,10.4899,10.6562,10.7935,10.9053,0.0,0.0,0.0,0.0,0.0,0.0,0.0,0.0,0.0,3.3839,0.0,3.4949,0.0,0.0,0.0,0.0,0.0,0.0,0.0,0.0,5.6017,5.8822,6.0822,6.1186,6.1099,0.0,6.1471,5.9466,0.0,0.0,0.0,0.0,0.0,0.0,0.0,0.0,8.7281,9.2012,9.7201,9.9907,9.9907,9.9907,9.9907,9.9907,9.9907,9.8393,9.5198,9.1967,8.753,0.0,0.0,0.0,0.0,0.0,0.0,0.0,0.0,0.0,0.0,0.0,0.0,0.0,0.0,0.0,0.0,0.0,0.0,0.0,0.0,0.0,0.0,0.0,6.0675,0.0,0.0,0.0,0.0,0.0,0.0,0.0,0.0,0.0,7.3323,7.9729,8.6411,9.1931,9.4829,9.7719,10.1065,0.0,0.0,0.0,0.0,0.0,0.0,0.0,9.9474,9.9869,9.9774,9.9631,9.9801,9.9684,9.9579,9.9579,0.0,0.0,9.174,9.186,9.3514,9.5017,9.6193,9.7491,9.933,10.0745,10.2036,0.0,0.0,0.0,0.0,0.0,0.0,0.0,0.0,0.0,2.8271,2.9038,0.0,0.0,0.0,0.0,0.0,0.0,0.0,0.0,0.0,0.0,0.0,5.555,5.5617,0.0,0.0,0.0,0.0,0.0,0.0,0.0,0.0,0.0,0.0,0.0,0.0,8.54,9.0308,9.6648,9.9907,9.9907,9.9907,9.9907,9.9907,9.9907,9.7724,9.3064,0.0,0.0,0.0,0.0,0.0,0.0,0.0,0.0,0.0,0.0,0.0,0.0,0.0,0.0,0.0,0.0,0.0,0.0,0.0,0.0,0.0,0.0,0.0,0.0,0.0,5.6229,0.0,0.0,0.0,0.0,0.0,0.0,0.0,0.0,0.0,0.0,0.0,7.9851,8.6381,9.0765,9.4746,9.8664,10.0008,10.0928,0.0,0.0,0.0,0.0,0.0,0.0,0.0,0.0,0.0,0.0,0.0,0.0,0.0,0.0,8.6692,8.2667,8.3355,8.4987,8.6126,0.0,0.0,0.0,0.0,0.0,0.0,0.0,0.0,0.0,0.0,0.0,0.0,0.0,0.0,0.0,2.4985,0.0,0.0,2.7982,0.0,0.0,0.0,0.0,0.0,0.0,0.0,0.0,0.0,0.0,0.0,0.0,0.0,0.0,0.0,0.0,0.0,0.0,0.0,0.0,0.0,0.0,8.3334,8.864,9.6122,9.9907,9.9907,9.9907,9.9907,9.9869,9.9831,9.7875,9.3581,0.0,0.0,0.0,0.0,0.0,0.0,0.0,0.0,0.0,0.0,0.0,0.0,0.0,0.0,0.0,0.0,0.0,0.0,0.0,0.0,0.0,0.0,0.0,0.0,0.0,0.0,5.3667,5.3299,5.2887,0.0,0.0,0.0,0.0,0.0,0.0,0.0,0.0,0.0,0.0,8.6772,9.2974,9.4742,9.7131,9.9061,9.9774,9.8605,9.7846,9.8614,9.739,9.5977,0.0,0.0,0.0,0.0,0.0,0.0,0.0,0.0,0.0,0.0,0.0,0.0,0.0,0.0,0.0,0.0,0.0,0.0,0.0,0.0,0.0,0.0,0.0,0.0,0.0,0.0,0.0,0.0,0.0,0.0,0.0,0.0,0.0,0.0,0.0,0.0,0.0,0.0,0.0,0.0,0.0,0.0,0.0,0.0,0.0,0.0,0.0,0.0,0.0,0.0,0.0,0.0,0.0,0.0,8.2788,8.8603,9.6084,9.9907,9.9907,9.9907,9.9907,9.9831,9.8247,9.516,0.0,0.0,0.0,0.0,0.0,0.0,0.0,0.0,0.0,0.0,0.0,0.0,0.0,0.0,0.0,0.0,0.0,0.0,0.0,0.0,0.0,0.0,0.0,0.0,0.0,0.0,0.0,0.0,5.0105,5.0205,4.9784,0.0,0.0,0.0,0.0,0.0,0.0,0.0,0.0,0.0,0.0,8.9258,9.4141,9.6603,9.7989,9.8217,9.7837,9.742,9.7032,9.7116,9.6053,9.2864,0.0,0.0,0.0,0.0,0.0,0.0,0.0,0.0,0.0,0.0,0.0,0.0,0.0,0.0,0.0,0.0,0.0,0.0,0.0,0.0,0.0,0.0,0.0,0.0,0.0,0.0,0.0,0.0,0.0,0.0,0.0,0.0,0.0,0.0,0.0,0.0,0.0,0.0,0.0,0.0,0.0,0.0,0.0,0.0,0.0,0.0,0.0,0.0,0.0,0.0,0.0,0.0,0.0,8.1692,8.7728,9.5759,9.9907,9.9907,9.9907,9.9907,9.9916,9.7526,9.347,0.0,0.0,0.0,0.0,0.0,0.0,0.0,0.0,0.0,0.0,0.0,0.0,0.0,0.0,0.0,0.0,0.0,0.0,0.0,0.0,0.0,0.0,0.0,0.0,0.0,0.0,0.0,0.0,4.6675,4.7273,4.6986,0.0,0.0,0.0,0.0,0.0,0.0,0.0,0.0,0.0,0.0,8.5741,9.1671,9.4874,0.0,0.0,9.6774,9.6471,9.6235,9.745,9.6698,9.153,8.7963,0.0,0.0,0.0,0.0,0.0,0.0,0.0,0.0,0.0,0.0,0.0,0.0,0.0,0.0,0.0,0.0,0.0,0.0,0.0,0.0,0.0,0.0,0.0,0.0,0.0,0.0,0.0,0.0,0.0,0.0,0.0,0.0,0.0,0.0,0.0,0.0,0.0,0.0,0.0,0.0,0.0,0.0,0.0,0.0,0.0,0.0,0.0,0.0,0.0,0.0,0.0,0.0,0.0,8.6312,9.5184,9.9822,9.9907,9.9907,9.9907,9.9878,9.7252,9.2374,0.0,0.0,0.0,0.0,0.0,0.0,0.0,0.0,0.0,0.0,0.0,0.0,0.0,0.0,0.0,0.0,0.0,0.0,0.0,0.0,0.0,0.0,0.0,0.0,0.0,0.0,0.0,0.0,0.0,0.0,0.0,0.0,0.0,0.0,0.0,0.0,0.0,0.0,0.0,0.0,0.0,8.2576,8.7741,9.2038,9.5,0.0,9.528,9.5021,9.5652,9.7897,9.7336,9.0695,0.0,0.0,0.0,0.0,0.0,0.0,0.0,0.0,0.0,0.0,0.0,0.0,0.0,0.0,0.0,0.0,0.0,0.0,0.0,0.0,0.0,0.0,0.0,0.0,0.0,0.0,0.0,0.0,0.0,0.0,0.0,0.0,0.0,0.0,0.0,0.0,0.0,0.0,0.0,0.0,0.0,0.0,0.0,0.0,0.0,0.0,0.0,0.0,0.0,0.0,0.0,0.0,0.0,0.0,8.5431,9.4327,9.9207,9.9907,9.9907,9.9907,9.9793,9.4467,0.0,0.0,0.0,0.0,0.0,0.0,0.0,0.0,0.0,0.0,0.0,0.0,0.0,0.0,0.0,0.0,0.0,0.0,0.0,0.0,0.0,0.0,0.0,0.0,0.0,0.0,0.0,3.7798,0.0,0.0,0.0,0.0,0.0,0.0,0.0,0.0,0.0,0.0,0.0,0.0,0.0,0.0,8.0711,8.5875,8.9182,9.1396,0.0,0.0,9.2136,9.1634,9.4208,9.3971,0.0,0.0,0.0,0.0,0.0,0.0,0.0,0.0,0.0,0.0,0.0,0.0,0.0,0.0,0.0,0.0,0.0,0.0,0.0,0.0,0.0,0.0,0.0,0.0,0.0,0.0,0.0,0.0,0.0,0.0,0.0,0.0,0.0,0.0,0.0,0.0,0.0,0.0,0.0,0.0,0.0,0.0,0.0,0.0,0.0,0.0,0.0,0.0,0.0,0.0,0.0,0.0,0.0,0.0,7.6202,8.3706,9.2446,9.788,9.9831,9.9907,9.9907,9.9869,9.3798,8.7884,0.0,0.0,0.0,0.0,0.0,0.0,0.0,0.0,0.0,0.0,0.0,0.0,0.0,0.0,0.0,0.0,0.0,0.0,0.0,0.0,0.0,0.0,0.0,0.0,0.0,0.0,0.0,0.0,0.0,0.0,0.0,0.0,0.0,0.0,0.0,0.0,0.0,0.0,0.0,0.0,0.0,0.0,8.1616,8.392,0.0,0.0,0.0,8.8747,8.8938,0.0,0.0,0.0,0.0,0.0,0.0,0.0,0.0,0.0,0.0,0.0,0.0,0.0,0.0,0.0,0.0,0.0,0.0,0.0,0.0,0.0,0.0,0.0,0.0,0.0,0.0,0.0,0.0,0.0,0.0,0.0,0.0,0.0,0.0,0.0,0.0,0.0,0.0,0.0,0.0,0.0,0.0,0.0,0.0,0.0,0.0,0.0,0.0,0.0,0.0,0.0,0.0,0.0,0.0,0.0,0.0,0.0,8.1362,9.0012,9.6146,9.9529,9.9822,9.9907,9.9831,9.4437,8.862,0.0,0.0,0.0,0.0,0.0,0.0,0.0,0.0,0.0,0.0,0.0,0.0,0.0,0.0,0.0,0.0,0.0,0.0,0.0,0.0,0.0,0.0,0.0,0.0,0.0,0.0,0.0,0.0,0.0,0.0,0.0,0.0,0.0,0.0,0.0,0.0,0.0,0.0,0.0,0.0,0.0,7.0048,7.6047,7.7266,7.7369,0.0,0.0,8.4225,8.6216,8.8299,0.0,0.0,0.0,0.0,0.0,0.0,0.0,0.0,0.0,0.0,0.0,0.0,0.0,0.0,0.0,0.0,0.0,0.0,0.0,0.0,0.0,0.0,0.0,0.0,0.0,0.0,0.0,0.0,0.0,0.0,0.0,0.0,0.0,0.0,0.0,0.0,0.0,0.0,0.0,0.0,0.0,0.0,0.0,0.0,0.0,0.0,0.0,0.0,0.0,0.0,0.0,0.0,0.0,0.0,0.0,0.0,7.8776,8.7363,9.4065,9.8631,9.9538,9.9907,9.9831,9.5574,8.9384,0.0,0.0,0.0,0.0,0.0,0.0,0.0,0.0,0.0,0.0,0.0,0.0,0.0,0.0,0.0,0.0,0.0,0.0,0.0,0.0,0.0,0.0,0.0,0.0,0.0,0.0,0.0,0.0,0.0,0.0,0.0,0.0,0.0,0.0,0.0,0.0,0.0,0.0,0.0,0.0,0.0,6.5393,7.1037,7.0319,0.0,0.0,0.0,0.0,7.9005,8.061,0.0,0.0,0.0,0.0,0.0,0.0,0.0,0.0,0.0,0.0,0.0,0.0,0.0,0.0,0.0,0.0,0.0,0.0,0.0,0.0,0.0,0.0,0.0,0.0,0.0,0.0,0.0,0.0,0.0,0.0,0.0,0.0,0.0,0.0,0.0,0.0,0.0,0.0,0.0,0.0,0.0,0.0,0.0,0.0,0.0,0.0,0.0,0.0,0.0,0.0,0.0,0.0,0.0,0.0,0.0,0.0,7.6362,8.4537,9.1931,9.8309,9.9444,9.9907,9.9831,9.582,8.9752,0.0,0.0,0.0,0.0,0.0,0.0,0.0,0.0,0.0,0.0,0.0,0.0,0.0,0.0,0.0,0.0,0.0,0.0,0.0,0.0,0.0,0.0,0.0,0.0,0.0,0.0,0.0,0.0,0.0,0.0,0.0,0.0,0.0,0.0,0.0,0.0,0.0,0.0,0.0,0.0,5.3934,5.7743,6.178,0.0,0.0,0.0,0.0,0.0,0.0,7.4856,7.441,0.0,0.0,0.0,0.0,0.0,0.0,0.0,0.0,0.0,0.0,0.0,0.0,0.0,0.0,0.0,0.0,0.0,0.0,0.0,0.0,0.0,0.0,0.0,0.0,0.0,0.0,0.0,0.0,0.0,0.0,0.0,0.0,0.0,0.0,0.0,0.0,0.0,0.0,0.0,0.0,0.0,0.0,0.0,0.0,0.0,0.0,0.0,0.0,0.0,0.0,0.0,0.0,0.0,0.0,0.0,7.3313,8.1265,8.9276,9.7287,9.8971,9.9775,9.9831,9.5759,8.9682,8.1436,0.0,0.0,0.0,0.0,0.0,0.0,0.0,0.0,0.0,0.0,0.0,0.0,0.0,0.0,0.0,0.0,0.0,0.0,0.0,0.0,0.0,0.0,0.0,0.0,0.0,0.0,0.0,0.0,0.0,0.0,0.0,0.0,0.0,0.0,0.0,0.0,0.0,0.0,0.0,4.754,4.9713,0.0,0.0,0.0,0.0,0.0,0.0,0.0,0.0,6.7898,0.0,0.0,0.0,0.0,0.0,0.0,0.0,0.0,0.0,0.0,0.0,0.0,0.0,0.0,0.0,0.0,0.0,0.0,0.0,0.0,0.0,0.0,0.0,0.0,0.0,0.0,0.0,0.0,0.0,0.0,0.0,0.0,0.0,0.0,0.0,0.0,0.0,0.0,0.0,0.0,0.0,0.0,0.0,0.0,0.0,0.0,0.0,0.0,0.0,0.0,0.0,0.0,0.0,0.0,0.0,0.0,7.6605,8.5067,9.2829,9.6801,9.9112,9.9784,9.5842,8.9099,7.935,0.0,0.0,0.0,0.0,0.0,0.0,0.0,0.0,0.0,0.0,0.0,0.0,0.0,0.0,0.0,0.0,0.0,0.0,0.0,0.0,0.0,0.0,0.0,0.0,0.0,0.0,0.0,0.0,0.0,0.0,0.0,0.0,0.0,0.0,0.0,0.0,0.0,0.0,3.6474,4.0694,0.0,0.0,0.0,0.0,0.0,0.0,0.0,0.0,5.8883,0.0,0.0,0.0,0.0,0.0,0.0,0.0,0.0,0.0,0.0,0.0,0.0,0.0,0.0,0.0,0.0,0.0,0.0,0.0,0.0,0.0,0.0,0.0,0.0,0.0,0.0,0.0,0.0,0.0,0.0,0.0,0.0,0.0,0.0,0.0,0.0,0.0,0.0,0.0,0.0,0.0,0.0,0.0,0.0,0.0,0.0,0.0,0.0,0.0,0.0,0.0,0.0,0.0,0.0,0.0,0.0,0.0,0.0,8.1806,8.9914,9.5041,9.8211,9.8839,9.1796,8.4092,0.0,0.0,0.0,0.0,0.0,0.0,0.0,0.0,0.0,0.0,0.0,0.0,0.0,0.0,0.0,0.0,0.0,0.0,0.0,0.0,0.0,0.0,0.0,0.0,0.0,0.0,0.0,0.0,0.0,0.0,0.0,0.0,0.0,0.0,0.0,0.0,0.0,0.0,0.0,0.0,0.0,0.0,0.0,0.0,0.0,0.0,0.0,0.0,0.0,0.0,0.0,0.0,0.0,0.0,0.0,0.0,0.0,0.0,0.0,0.0,0.0,0.0,0.0,0.0,0.0,0.0,0.0,0.0,0.0,0.0,0.0,0.0,0.0,0.0,0.0,0.0,0.0,0.0,0.0,0.0,0.0,0.0,0.0,0.0,0.0,0.0,0.0,0.0,0.0,0.0,0.0,0.0,0.0,0.0,0.0,0.0,0.0,0.0,0.0,0.0,0.0,0.0,0.0,0.0,0.0,0.0,0.0,0.0,7.8069,8.6248,9.2711,9.6604,9.7842,8.6961,7.8088,0.0,0.0,0.0,0.0,0.0,0.0,0.0,0.0,0.0,0.0,0.0,0.0,0.0,0.0,0.0,0.0,0.0,0.0,0.0,0.0,0.0,0.0,0.0,0.0,0.0,0.0,0.0,0.0,0.0,0.0,0.0,0.0,0.0,0.0,0.0,0.0,0.0,0.0,0.0,0.0,0.0,0.0,0.0,0.0,0.0,0.0,0.0,0.0,4.6401,0.0,0.0,0.0,0.0,0.0,0.0,0.0,0.0,0.0,0.0,0.0,0.0,0.0,0.0,0.0,0.0,0.0,0.0,0.0,0.0,0.0,0.0,0.0,0.0,0.0,0.0,0.0,0.0,0.0,0.0,0.0,0.0,0.0,0.0,0.0,0.0,0.0,0.0,0.0,0.0,0.0,0.0,0.0,0.0,0.0,0.0,0.0,0.0,0.0,0.0,0.0,0.0,0.0,0.0,0.0,0.0,0.0,0.0,0.0,7.2693,8.0337,8.8529,9.3728,9.5287,8.2953,7.244,0.0,0.0,0.0,0.0,0.0,0.0,0.0,0.0,0.0,0.0,0.0,0.0,0.0,0.0,0.0,0.0,0.0,0.0,0.0,0.0,0.0,0.0,0.0,0.0,0.0,0.0,0.0,0.0,0.0,0.0,0.0,0.0,0.0,0.0,0.0,0.0,0.0,0.0,0.0,0.0,0.0,0.0,0.0,0.0,0.0,0.0,0.0,0.0,0.0,0.0,0.0,0.0,0.0,0.0,0.0,0.0,0.0,0.0,0.0,0.0,0.0,0.0,0.0,0.0,0.0,0.0,0.0,0.0,0.0,0.0,0.0,0.0,0.0,0.0,0.0,0.0,0.0,0.0,0.0,0.0,0.0,0.0,0.0,0.0,0.0,0.0,0.0,0.0,0.0,0.0,0.0,0.0,0.0,0.0,0.0,0.0,0.0,0.0,0.0,0.0,0.0,0.0,0.0,0.0,0.0,0.0,0.0,0.0,6.5139,7.2959,8.1355,8.3598,7.9293,7.0905,6.385,0.0,0.0,0.0,0.0,0.0,0.0,0.0,0.0,0.0,0.0,0.0,0.0,0.0,0.0,0.0,0.0,0.0,0.0,0.0,0.0,0.0,0.0,0.0,0.0,0.0,0.0,0.0,0.0,0.0,0.0,0.0,0.0,0.0,0.0,0.0,0.0,0.0,0.0,0.0,0.0,0.0,0.0,0.0,0.0,0.0,0.0,0.0,0.0,0.0,0.0,0.0,0.0,0.0,0.0,0.0,0.0,0.0,0.0,0.0,0.0,0.0,0.0,0.0,0.0,0.0,0.0,0.0,0.0,0.0,0.0,0.0,0.0,0.0,0.0,0.0,0.0,0.0,0.0,0.0,0.0,0.0,0.0,0.0,0.0,0.0,0.0,0.0,0.0,0.0,0.0,0.0,0.0,0.0,0.0,0.0,0.0,0.0,0.0,0.0,0.0,0.0,0.0,0.0,0.0,0.0,0.0,0.0,0.0,0.0,6.4729,6.9931,6.9572,6.3302,5.9199,5.519,0.0,0.0,0.0,0.0,0.0,0.0,0.0,0.0,0.0,0.0,0.0,0.0,0.0,0.0,0.0,0.0,0.0,0.0,0.0,0.0,0.0,0.0,0.0,0.0,0.0,0.0,0.0,0.0,0.0,0.0,0.0,0.0,0.0,0.0,0.0,0.0,0.0,0.0,0.0,0.0,0.0,0.0,0.0,0.0,0.0,0.0,0.0,0.0,0.0,0.0,0.0,0.0,0.0,0.0,0.0,0.0,0.0,0.0,0.0,0.0,0.0,0.0,0.0,0.0,0.0,0.0,0.0,0.0,0.0,0.0,0.0,0.0,0.0,0.0,0.0,0.0,0.0,0.0,0.0,0.0,0.0,0.0,0.0,0.0,0.0,0.0,0.0,0.0,0.0,0.0,0.0,0.0,0.0,0.0,0.0,0.0,0.0,0.0,0.0,0.0,0.0,0.0,0.0,0.0,0.0,0.0,0.0,0.0,0.0,5.5703,5.2622,5.1248,5.1658,5.0192,4.7186,0.0,0.0,0.0,0.0,0.0,0.0,0.0,0.0,0.0,0.0,0.0,0.0,0.0,0.0,0.0,0.0,0.0,0.0,0.0,0.0,0.0,0.0,0.0,0.0,0.0,0.0,0.0,0.0,0.0,0.0,0.0,0.0,0.0,0.0,0.0,0.0,0.0,0.0,0.0,0.0,0.0,0.0,0.0,0.0,0.0,0.0,0.0,0.0,0.0,0.0,0.0,0.0,0.0,0.0,0.0,0.0,0.0,0.0,0.0,0.0,0.0,0.0,0.0,0.0,0.0,0.0,0.0,0.0,0.0,0.0,0.0,0.0,0.0,0.0,0.0,0.0,0.0,0.0,0.0,0.0,0.0,0.0,0.0,0.0,0.0,0.0,0.0,0.0,0.0,0.0,0.0,0.0,0.0,0.0,0.0,0.0,0.0,0.0,0.0,0.0,0.0,0.0,0.0,0.0,0.0,0.0,0.0,0.0,0.0,3.9558,4.0001,4.0459,4.0889,4.0756,3.9415,3.6573,0.0,0.0,0.0,0.0,0.0,0.0,0.0,0.0,0.0,0.0,0.0,0.0,0.0,0.0,0.0,0.0,0.0,0.0,0.0,0.0,0.0,0.0,0.0,0.0,0.0,0.0,0.0,0.0,0.0,0.0,0.0,0.0,0.0,0.0,0.0,0.0,0.0,0.0,0.0,0.0,0.0,0.0,0.0,0.0,0.0,0.0,0.0,0.0,0.0,0.0,0.0,0.0,0.0,0.0,0.0,0.0,0.0,0.0,0.0,0.0,0.0,0.0,0.0,0.0,0.0,0.0,0.0,0.0,0.0,0.0,0.0,0.0,0.0,0.0,0.0,0.0,0.0,0.0,0.0,0.0,0.0,0.0,0.0,0.0,0.0,0.0,0.0,0.0,0.0,0.0,0.0,0.0,0.0,0.0,0.0,0.0,0.0,0.0,0.0,0.0,0.0,0.0,0.0,0.0,0.0,0.0,0.0,0.0,2.8928,3.1203,3.2656,3.3169,3.3484,3.3202,0.0,0.0,0.0,0.0,0.0,0.0,0.0,0.0,0.0,0.0,0.0,0.0,0.0,0.0,0.0,0.0,0.0,0.0,0.0,0.0,0.0,0.0,0.0,0.0,0.0,0.0,0.0,0.0,0.0,0.0,0.0,0.0,0.0,0.0,0.0,0.0,0.0,0.0,0.0,0.0,0.0,0.0,0.0,0.0,0.0,0.0,0.0,0.0,0.0,0.0,0.0,0.0,0.0,0.0,0.0,0.0,0.0,0.0,0.0,0.0,0.0,0.0,0.0,0.0,0.0,0.0,0.0,0.0,0.0,0.0,0.0,0.0,0.0,0.0,0.0,0.0,0.0,0.0,0.0,0.0,0.0,0.0,0.0,0.0,0.0,0.0,0.0,0.0,0.0,0.0,0.0,0.0,0.0,0.0,0.0,0.0,0.0,0.0,0.0,0.0,0.0,0.0,0.0,0.0,0.0,0.0,0.0,0.0,0.0,2.5581,2.6404,2.7644,2.9151,2.8952,2.8915,0.0,0.0,0.0,0.0,0.0,0.0,0.0,0.0,0.0,0.0,0.0,0.0,0.0,0.0,0.0,0.0,0.0,0.0,0.0,0.0,0.0,0.0,0.0,0.0,0.0,0.0,0.0,0.0,0.0,0.0,0.0,0.0,0.0,0.0,0.0,0.0,0.0,0.0,0.0,0.0,0.0,0.0,0.0,0.0,0.0,0.0,0.0,0.0,0.0,0.0,0.0,0.0,0.0,0.0,0.0,0.0,0.0,0.0,0.0,0.0,0.0,0.0,0.0,0.0,0.0,0.0,0.0,0.0,0.0,0.0,0.0,0.0,0.0,0.0,0.0,0.0,0.0,0.0,0.0,0.0,0.0,0.0,0.0,0.0,0.0,0.0,0.0,0.0,0.0,0.0,0.0,0.0,0.0,0.0,0.0,0.0,0.0,0.0,0.0,0.0,0.0,0.0,0.0,0.0,0.0,0.0,0.0,0.0,0.0,2.1804,0.0,2.4853,0.0,2.6678,2.7199,0.0,0.0,0.0,0.0,0.0,0.0,0.0,0.0,0.0,0.0,0.0,0.0,0.0,0.0,0.0,0.0,0.0,0.0,0.0,0.0,0.0,0.0,0.0,0.0,0.0,0.0,0.0,0.0,0.0,0.0,0.0,0.0,0.0,0.0,0.0,0.0,0.0,0.0,0.0,0.0,0.0,0.0,0.0,0.0,0.0,0.0,0.0,0.0,0.0,0.0,0.0,0.0,0.0,0.0,0.0,0.0,0.0,0.0,0.0,0.0,0.0,0.0,0.0,0.0,0.0,0.0,0.0,0.0,0.0,0.0,0.0,0.0,0.0,0.0,0.0,0.0,0.0,0.0,0.0,0.0,0.0,0.0,0.0,0.0,0.0,0.0,0.0,0.0,0.0,0.0,0.0,0.0,0.0,0.0,0.0,0.0,0.0,0.0,0.0,0.0,0.0,0.0,0.0,0.0,0.0,0.0,0.0,0.0,0.0,1.9544,2.1257,2.2877,0.0,2.5047,2.5758,0.0,0.0,0.0,0.0,0.0,0.0,0.0,0.0,0.0,0.0,0.0,0.0,0.0,0.0,0.0,0.0,0.0,0.0,0.0,0.0,0.0,0.0,0.0,0.0,0.0,0.0,0.0,0.0,0.0,0.0,0.0,0.0,0.0,0.0,0.0,0.0,0.0,0.0,0.0,0.0,0.0,0.0,0.0,0.0,0.0,0.0,0.0,0.0,0.0,0.0,0.0,0.0,0.0,0.0,0.0,0.0,0.0,0.0,0.0,0.0,0.0,0.0,0.0,0.0,0.0,0.0,0.0,0.0,0.0,0.0,0.0,0.0,0.0,0.0,0.0,0.0,0.0,0.0,0.0,0.0,0.0,0.0,0.0,0.0,0.0,0.0,0.0,0.0,0.0,0.0,0.0,0.0,0.0,0.0,0.0,0.0,0.0,0.0,0.0,0.0,0.0,0.0,0.0,0.0,0.0,0.0,0.0,0.0,0.0,0.0,1.9777,2.1435,2.3557,2.3815,2.4554,0.0,0.0,0.0,0.0,0.0,0.0,0.0,0.0,0.0,0.0,0.0,0.0,0.0,0.0,0.0,0.0,0.0,0.0,0.0,0.0,0.0,0.0,0.0,0.0,0.0,0.0,0.0,0.0,0.0,0.0,0.0,0.0,0.0,0.0,0.0,0.0,0.0,0.0,0.0,0.0,0.0,0.0,0.0,0.0,0.0,0.0,0.0,0.0,0.0,0.0,0.0,0.0,0.0,0.0,0.0,0.0,0.0,0.0,0.0,0.0,0.0,0.0,0.0,0.0,0.0,0.0,0.0,0.0,0.0,0.0,0.0,0.0,0.0,0.0,0.0,0.0,0.0,0.0,0.0,0.0,0.0,0.0,0.0,0.0,0.0,0.0,0.0,0.0,0.0,0.0,0.0,0.0,0.0,0.0,0.0,0.0,0.0,0.0,0.0,0.0,0.0,0.0,0.0,0.0,0.0,0.0,0.0,0.0,0.0,0.0,1.8932,0.0,2.0457,2.2031,2.3767,2.5565,0.0,0.0,0.0,0.0,0.0,0.0,0.0,0.0,0.0,0.0,0.0,0.0,0.0,0.0,0.0,0.0,0.0,0.0,0.0,0.0,0.0,0.0,0.0,0.0,0.0,0.0,0.0,0.0,0.0,0.0,0.0,0.0,0.0,0.0,0.0,0.0,0.0,0.0,0.0,0.0,0.0,0.0,0.0,0.0,0.0,0.0,0.0,0.0,0.0,0.0,0.0,0.0,0.0,0.0,0.0,0.0,0.0,0.0,0.0,0.0,0.0,0.0,0.0,0.0,0.0,0.0,0.0,0.0,0.0,0.0,0.0,0.0,0.0,0.0,0.0,0.0,0.0,0.0,0.0,0.0,0.0,0.0,0.0,0.0,0.0,0.0,0.0,0.0,0.0,0.0,0.0,0.0,0.0,0.0,0.0,0.0,0.0,0.0,0.0,0.0,0.0,0.0,0.0,0.0,0.0,0.0,0.0,0.0,0.0,0.0,0.0,1.9046,2.1182,2.331,0.0,0.0,0.0,0.0,0.0,0.0,0.0,0.0,0.0,0.0,0.0,0.0,0.0,0.0,0.0,0.0,0.0,0.0,0.0,0.0,0.0,0.0,0.0,0.0,0.0,0.0,0.0,0.0,0.0,0.0,0.0,0.0,0.0,0.0,0.0,0.0,0.0,0.0,0.0,0.0,0.0,0.0,0.0,0.0,0.0,0.0,0.0,0.0,0.0,0.0,0.0,0.0,0.0,0.0,0.0,0.0,0.0,0.0,0.0,0.0,0.0,0.0,0.0,0.0,0.0,0.0,0.0,0.0,0.0,0.0,0.0,0.0,0.0,0.0,0.0,0.0,0.0,0.0,0.0,0.0,0.0,0.0,0.0,0.0,0.0,0.0,0.0,0.0,0.0,0.0,0.0,0.0,0.0,0.0,0.0,0.0,0.0,0.0,0.0,0.0,0.0,0.0,0.0,0.0,0.0,0.0,0.0,0.0,0.0,0.0,0.0,1.8718,1.8971,2.0851,0.0,2.4942,0.0,0.0,0.0,0.0,0.0,0.0,0.0,0.0,0.0,0.0,0.0,0.0,0.0,0.0,0.0,0.0,0.0,0.0,0.0,0.0,0.0,0.0,0.0,0.0,0.0,0.0,0.0,0.0,0.0,0.0,0.0,0.0,0.0,0.0,0.0,0.0,0.0,0.0,0.0,0.0,0.0,0.0,0.0,0.0,0.0,0.0,0.0,0.0,0.0,0.0,0.0,0.0,0.0,0.0,0.0,0.0,0.0,0.0,0.0,0.0,0.0,0.0,0.0,0.0,0.0,0.0,0.0,0.0,0.0,0.0,0.0,0.0,0.0,0.0,0.0,0.0,0.0,0.0,0.0,0.0,0.0,0.0,0.0,0.0,0.0,0.0,0.0,0.0,0.0,0.0,0.0,0.0,0.0,0.0,0.0,0.0,0.0,0.0,0.0,0.0,0.0,0.0,0.0,0.0,0.0,0.0,0.0,0.0,0.0,0.0,0.0,0.0,2.0112,2.1589,2.2733,0.0,0.0,0.0,0.0,0.0,0.0,0.0,0.0,0.0,0.0,0.0,0.0,0.0,0.0,0.0,0.0,0.0,0.0,0.0,0.0,0.0,0.0,0.0,0.0,0.0,0.0,0.0,0.0,0.0,0.0,0.0,0.0,0.0,0.0,0.0,0.0,0.0,0.0,0.0,0.0,0.0,0.0,0.0,0.0,0.0,0.0,0.0,0.0,0.0,0.0,0.0,0.0,0.0,0.0,0.0,0.0,0.0,0.0,0.0,0.0,0.0,0.0,0.0,0.0,0.0,0.0,0.0,0.0,0.0,0.0,0.0,0.0,0.0,0.0,0.0,0.0,0.0,0.0,0.0,0.0,0.0,0.0,0.0,0.0,0.0,0.0,0.0,0.0,0.0,0.0,0.0,0.0,0.0,0.0,0.0,0.0,0.0,0.0,0.0,0.0,0.0,0.0,0.0,0.0,0.0,0.0,0.0,0.0,0.0,0.0,1.8088,1.8131,1.9599,2.0815,2.16,0.0,0.0,0.0,0.0,0.0,0.0,0.0,0.0,0.0,0.0,0.0,0.0,0.0,0.0,0.0,0.0,0.0,0.0,0.0,0.0,0.0,0.0,0.0,0.0,0.0,0.0,0.0,0.0,0.0,0.0,0.0,0.0,0.0,0.0,0.0,0.0,0.0,0.0,0.0,0.0,0.0,0.0,0.0,0.0,0.0,0.0,0.0,0.0,0.0,0.0,0.0,0.0,0.0,0.0,0.0,0.0,0.0,0.0,0.0,0.0,0.0,0.0,0.0,0.0,0.0,0.0,0.0,0.0,0.0,0.0,0.0,0.0,0.0,0.0,0.0,0.0,0.0,0.0,0.0,0.0,0.0,0.0,0.0,0.0,0.0,0.0,0.0,0.0,0.0,0.0,0.0,0.0,0.0,0.0,0.0,0.0,0.0,0.0,0.0,0.0,0.0,0.0,0.0,0.0,0.0,0.0,0.0,0.0,0.0,0.0,0.0,0.0,0.0,0.0,2.1102,0.0,0.0,0.0,0.0,0.0,0.0,0.0,0.0,0.0,0.0,0.0,0.0,0.0,0.0,0.0,0.0,0.0,0.0,0.0,0.0,0.0,0.0,0.0,0.0,0.0,0.0,0.0,0.0,0.0,0.0,0.0,0.0,0.0,0.0,0.0,0.0,0.0,0.0,0.0,0.0,0.0,0.0,0.0,0.0,0.0,0.0,0.0,0.0,0.0,0.0,0.0,0.0,0.0,0.0,0.0,0.0,0.0,0.0,0.0,0.0,0.0,0.0,0.0,0.0,0.0,0.0,0.0,0.0,0.0,0.0,0.0,0.0,0.0,0.0,0.0,0.0,0.0,0.0,0.0,0.0,0.0,0.0,0.0,0.0,0.0,0.0,0.0,0.0,0.0,0.0,0.0,0.0,0.0,0.0,0.0,0.0,0.0,0.0,0.0,0.0,0.0,0.0,0.0,0.0,0.0,0.0,0.0,0.0,0.0,0.0,0.0,0.0,0.0,0.0,0.0,0.0,0.0,0.0,0.0,0.0,0.0,0.0,0.0,0.0,0.0,0.0,0.0,0.0,0.0,0.0,0.0,0.0,0.0,0.0,0.0,0.0,0.0,0.0,0.0,0.0,0.0,0.0,0.0,0.0,0.0,0.0,0.0,0.0,0.0,0.0,0.0,0.0,0.0,0.0,0.0,0.0,0.0,0.0,0.0,0.0,0.0,0.0,0.0,0.0,0.0,0.0,0.0,0.0,0.0,0.0,0.0,0.0,0.0,0.0,0.0,0.0,0.0,0.0,0.0,0.0,0.0,0.0,0.0,0.0,0.0,0.0,0.0,0.0,0.0,0.0,0.0,0.0,0.0,0.0,0.0,0.0,0.0,0.0,0.0,0.0,0.0,0.0,0.0,0.0,0.0,0.0,0.0,0.0,0.0,0.0,0.0,0.0,0.0,0.0,0.0,0.0,0.0,0.0,0.0,0.0,0.0,0.0,0.0,0.0,0.0,0.0,0.0,0.0,0.0,0.0,0.0,0.0,0.0,0.0,0.0,0.0,0.0,0.0,0.0,0.0,0.0,0.0,0.0,0.0,0.0,0.0,0.0,0.0,0.0,0.0,0.0,0.0,0.0,0.0,0.0,0.0,0.0,0.0,0.0,0.0,0.0,0.0,0.0,0.0,0.0,0.0,0.0,0.0,0.0,0.0,0.0,0.0,0.0,0.0,0.0,0.0,0.0,0.0,0.0,0.0,0.0,0.0,0.0,0.0,0.0,0.0,0.0,0.0,0.0,0.0,0.0,0.0,0.0,0.0,0.0,0.0,0.0,0.0,0.0,0.0,0.0,0.0,0.0,0.0,0.0,0.0,0.0,0.0,0.0,0.0,0.0,0.0,0.0,0.0,0.0,0.0,0.0,0.0,0.0,0.0,0.0,0.0,0.0,0.0,0.0,0.0,0.0,0.0,0.0,0.0,0.0,0.0,0.0,0.0,0.0,0.0,0.0,0.0,0.0,0.0,0.0,0.0,0.0,0.0,0.0,0.0,0.0,0.0,0.0,0.0,0.0,0.0,0.0,0.0,0.0,0.0,0.0,0.0,0.0,0.0,0.0,0.0,0.0,0.0,0.0,0.0,0.0,0.0,0.0,0.0,0.0,0.0,0.0,0.0,0.0,0.0,0.0,0.0,0.0,0.0,0.0,0.0,0.0,0.0,0.0,0.0,0.0,0.0,0.0,0.0,0.0,0.0,0.0,0.0,0.0,0.0,0.0,0.0,0.0,0.0,0.0,0.0,0.0,0.0,0.0,0.0,0.0,0.0,0.0,0.0,0.0,0.0,0.0,0.0,0.0,0.0,0.0,0.0,0.0,0.0,0.0,0.0,0.0,0.0,0.0,0.0,0.0,0.0,0.0,0.0,0.0,0.0,0.0,0.0,0.0,0.0,0.0,0.0,0.0,0.0,0.0,0.0,0.0,0.0,0.0,0.0,0.0,0.0,0.0,0.0,0.0,0.0,0.0,0.0,0.0,0.0,0.0,0.0,0.0,0.0,0.0,0.0,0.0,0.0,0.0,0.0,0.0,0.0,0.0,0.0,0.0,0.0,0.0,0.0,0.0,0.0,0.0,0.0,0.0,0.0,0.0,0.0,0.0,0.0,0.0,0.0,0.0,0.0,0.0,0.0,0.0,0.0,0.0,0.0,0.0,0.0,0.0,0.0,0.0,0.0,0.0,0.0,0.0,0.0,0.0,0.0,0.0,0.0,0.0,0.0,0.0,0.0,0.0,0.0,0.0,0.0,0.0,0.0,0.0,0.0,0.0,0.0,0.0,0.0,0.0,0.0,0.0,0.0,0.0,0.0,0.0,0.0,0.0,0.0,0.0,0.0,0.0,0.0,0.0,0.0,0.0,0.0,0.0,0.0,0.0,0.0,0.0,0.0,0.0,0.0,0.0,0.0,0.0,0.0,0.0,0.0,0.0,0.0,0.0,0.0,0.0,0.0,0.0,0.0,0.0,0.0,0.0,0.0,0.0,0.0,0.0,0.0,0.0,0.0,0.0,0.0,0.0,0.0,0.0,0.0,0.0,0.0,0.0,0.0,0.0,0.0,0.0,0.0,0.0,0.0,0.0,0.0,0.0,0.0,0.0,0.0,0.0,0.0,0.0,0.0,0.0,0.0,0.0,0.0,0.0,0.0,0.0,0.0,0.0,0.0,0.0,0.0,0.0,0.0,0.0,0.0,0.0,0.0,0.0,0.0,0.0,0.0,0.0,0.0,0.0,0.0,0.0,0.0,0.0,0.0,0.0,0.0,0.0,0.0,0.0,0.0,0.0,0.0,0.0,0.0,0.0,0.0,0.0,0.0,0.0,0.0,0.0,0.0,0.0,0.0,0.0,0.0,0.0,0.0,0.0,0.0,0.0,0.0,0.0,0.0,0.0,0.0,0.0,0.0,0.0,0.0,0.0,0.0,0.0,0.0,0.0,0.0,0.0,0.0,0.0,0.0,0.0,0.0,0.0,0.0,0.0,0.0,0.0,0.0,0.0,0.0,0.0,0.0,0.0,0.0,0.0,0.0,0.0,0.0,0.0,0.0,0.0,0.0,0.0,0.0,0.0,0.0,0.0,0.0,0.0,0.0,0.0,0.0,0.0,0.0,0.0,0.0,0.0,0.0,0.0,0.0,0.0,0.0,0.0,0.0,0.0,0.0,0.0,0.0,0.0,0.0,0.0,0.0,0.0,0.0,0.0,0.0,0.0,0.0,0.0,0.0,0.0,0.0,0.0,0.0,0.0,0.0,0.0,0.0,0.0,0.0,0.0,0.0,0.0,0.0,0.0,0.0,0.0,0.0,0.0,0.0,0.0,0.0,0.0,0.0,0.0,0.0,0.0,0.0,0.0,0.0,0.0,0.0,0.0,0.0,0.0,0.0,0.0,0.0,0.0,0.0,0.0,0.0,0.0,0.0,0.0,0.0,0.0,0.0,0.0,0.0,0.0,0.0,0.0,0.0,0.0,0.0,0.0,0.0,0.0,0.0,0.0,0.0,0.0,0.0,0.0,0.0,0.0,0.0,0.0,0.0,0.0,0.0,0.0,0.0,0.0,0.0,0.0,0.0,0.0,0.0,0.0,0.0,0.0,0.0,0.0,0.0,0.0,0.0,0.0,0.0,0.0,0.0,0.0,0.0,0.0,0.0,0.0,0.0,0.0,0.0,0.0,0.0,0.0,0.0,0.0,0.0,0.0,0.0,0.0,0.0,0.0,0.0,0.0,0.0,0.0,0.0,0.0,0.0,0.0,0.0,0.0,0.0,0.0,0.0,0.0,0.0,0.0,0.0,0.0,0.0,0.0,0.0,0.0,0.0,0.0,0.0,0.0,0.0,0.0,0.0,0.0,0.0,0.0,0.0,0.0,0.0,0.0,0.0,0.0,0.0,0.0,0.0,0.0,0.0,0.0,0.0,0.0,0.0,0.0,0.0,0.0,0.0,0.0,0.0,0.0,0.0,0.0,0.0,0.0,0.0,0.0,0.0,0.0,0.0,0.0,0.0,0.0,0.0,0.0,0.0,0.0,0.0,0.0,0.0,0.0,0.0,0.0,0.0,0.0,0.0,0.0,0.0,0.0,0.0,0.0,0.0,0.0,0.0,0.0,0.0,0.0,0.0,0.0,0.0,0.0,0.0,0.0,0.0,0.0,0.0,0.0,0.0,0.0,0.0,0.0,0.0,0.0,0.0,0.0,0.0,0.0,0.0,0.0,0.0,0.0,0.0,0.0,0.0,0.0,0.0,0.0,0.0,0.0,0.0,0.0,0.0,0.0,0.0,0.0,0.0,0.0,0.0,0.0,0.0,0.0,0.0,0.0,0.0,0.0,0.0,0.0,0.0]}]]]